[[{"header":{"parameterUnit":"m.s-1","parameterCategory":1,"la1":30.6,"la2":28.766,"lo1":-90.7593,"lo2":-88.6598,"dy":0.0162,"dx":0.0183,"nx":116,"ny":114,"refTime":"2024-05-22T18:00:00:Z","depth":0,"parameterNumber":2,"parameterNumberName":"U-component_of_WINDS"},"data":[0.0,0.0,0.0,0.0,0.0,0.0,0.0,0.0,0.0,0.0,0.0,0.0,0.0,0.0,0.0,0.0,0.0,0.0,0.0,0.0,0.0,0.0,0.0,0.0,0.0,0.0,0.0,0.0,0.0,0.0,0.0,0.0,0.0,0.0,0.0,0.0,0.0,0.0,0.0,0.0,0.0,0.0,0.0,0.0,0.0,0.0,0.0,0.0,0.0,0.0,0.0,0.0,0.0,0.0,0.0,0.0,0.0,0.0,0.0,0.0,0.0,0.0,0.0,0.0,0.0,0.0,0.0,0.0,0.0,0.0,0.0,0.0,0.0,0.0,0.0,0.0,0.0,0.0,0.0,0.0,0.0,0.0,0.0,0.0,0.0,0.0,0.0,0.0,0.0,0.0,0.0,0.0,0.0,0.0,0.0,0.0,0.0,0.0,0.0,0.0,0.0,0.0,0.0,0.0,0.0,0.0,0.0,0.0,0.0,0.0,0.0,0.0,0.0,0.0,0.0,0.0,0.0,0.0,0.0,0.0,0.0,0.0,0.0,0.0,0.0,0.0,0.0,0.0,0.0,0.0,0.0,0.0,0.0,0.0,0.0,0.0,0.0,0.0,0.0,0.0,0.0,0.0,0.0,0.0,0.0,0.0,0.0,0.0,0.0,0.0,0.0,0.0,0.0,0.0,0.0,0.0,0.0,0.0,0.0,0.0,0.0,0.0,0.0,0.0,0.0,0.0,0.0,0.0,0.0,0.0,0.0,0.0,0.0,0.0,0.0,0.0,0.0,0.0,0.0,0.0,0.0,0.0,0.0,0.0,0.0,0.0,0.0,0.0,0.0,0.0,0.0,0.0,0.0,0.0,0.0,0.0,0.0,0.0,0.0,0.0,0.0,0.0,0.0,0.0,0.0,0.0,0.0,0.0,0.0,0.0,0.0,0.0,0.0,0.0,0.0,0.0,0.0,0.0,0.0,0.0,0.0,0.0,0.0,0.0,0.0,0.0,0.0,0.0,0.0,0.0,0.0,0.0,0.0,0.0,0.0,0.0,0.0,0.0,0.0,0.0,0.0,0.0,0.0,0.0,0.0,0.0,0.0,0.0,0.0,0.0,0.0,0.0,0.0,0.0,0.0,0.0,0.0,0.0,0.0,0.0,0.0,0.0,0.0,0.0,0.0,0.0,0.0,0.0,0.0,0.0,0.0,0.0,0.0,0.0,0.0,0.0,0.0,0.0,0.0,0.0,0.0,0.0,0.0,0.0,0.0,0.0,0.0,0.0,0.0,0.0,0.0,0.0,0.0,0.0,0.0,0.0,0.0,0.0,0.0,0.0,0.0,0.0,0.0,0.0,0.0,0.0,0.0,0.0,0.0,0.0,0.0,0.0,0.0,0.0,0.0,0.0,0.0,0.0,0.0,0.0,0.0,0.0,0.0,0.0,0.0,0.0,0.0,0.0,0.0,0.0,0.0,0.0,0.0,0.0,0.0,0.0,0.0,0.0,0.0,0.0,0.0,0.0,0.0,0.0,0.0,0.0,0.0,0.0,0.0,0.0,0.0,0.0,0.0,0.0,0.0,0.0,0.0,0.0,0.0,0.0,0.0,0.0,0.0,0.0,0.0,0.0,0.0,0.0,0.0,0.0,0.0,0.0,0.0,0.0,0.0,0.0,0.0,0.0,0.0,0.0,0.0,0.0,0.0,0.0,0.0,0.0,0.0,0.0,0.0,0.0,0.0,0.0,0.0,0.0,0.0,0.0,0.0,0.0,0.0,0.0,0.0,0.0,0.0,0.0,0.0,0.0,0.0,0.0,0.0,0.0,0.0,0.0,0.0,0.0,0.0,0.0,0.0,0.0,0.0,0.0,0.0,0.0,0.0,0.0,0.0,0.0,0.0,0.0,0.0,0.0,0.0,0.0,0.0,0.0,0.0,0.0,0.0,0.0,0.0,0.0,0.0,0.0,0.0,0.0,0.0,0.0,0.0,0.0,0.0,0.0,0.0,0.0,0.0,0.0,0.0,0.0,0.0,0.0,0.0,0.0,0.0,0.0,0.0,0.0,0.0,0.0,0.0,0.0,0.0,0.0,0.0,0.0,0.0,0.0,0.0,0.0,0.0,0.0,0.0,0.0,0.0,0.0,0.0,0.0,0.0,0.0,0.0,0.0,0.0,0.0,0.0,0.0,0.0,0.0,0.0,0.0,0.0,0.0,0.0,0.0,0.0,0.0,0.0,0.0,0.0,0.0,0.0,0.0,0.0,0.0,0.0,0.0,0.0,0.0,0.0,0.0,0.0,0.0,0.0,0.0,0.0,0.0,0.0,0.0,0.0,0.0,0.0,0.0,0.0,0.0,0.0,0.0,0.0,0.0,0.0,0.0,0.0,0.0,0.0,0.0,0.0,0.0,0.0,0.0,0.0,0.0,0.0,0.0,0.0,0.0,0.0,0.0,0.0,0.0,0.0,0.0,0.0,0.0,0.0,0.0,0.0,0.0,0.0,0.0,0.0,0.0,0.0,0.0,0.0,0.0,0.0,0.0,0.0,0.0,0.0,0.0,0.0,0.0,0.0,0.0,0.0,0.0,0.0,0.0,0.0,0.0,0.0,0.0,0.0,0.0,0.0,0.0,0.0,0.0,0.0,0.0,0.0,0.0,0.0,0.0,0.0,0.0,0.0,0.0,0.0,0.0,0.0,0.0,0.0,0.0,0.0,0.0,0.0,0.0,0.0,0.0,0.0,0.0,0.0,0.0,0.0,0.0,0.0,0.0,0.0,0.0,0.0,0.0,0.0,0.0,0.0,0.0,0.0,0.0,0.0,0.0,0.0,0.0,0.0,0.0,0.0,0.0,0.0,0.0,0.0,0.0,0.0,0.0,0.0,0.0,0.0,0.0,0.0,0.0,0.0,0.0,0.0,0.0,0.0,0.0,0.0,0.0,0.0,0.0,0.0,0.0,0.0,0.0,0.0,0.0,0.0,0.0,0.0,0.0,0.0,0.0,0.0,0.0,0.0,0.0,0.0,0.0,0.0,0.0,0.0,0.0,0.0,0.0,0.0,0.0,0.0,0.0,0.0,0.0,0.0,0.0,0.0,0.0,0.0,0.0,0.0,0.0,0.0,0.0,0.0,0.0,0.0,0.0,0.0,0.0,0.0,0.0,0.0,0.0,0.0,0.0,0.0,0.0,0.0,0.0,0.0,0.0,0.0,0.0,0.0,0.0,0.0,0.0,0.0,0.0,0.0,0.0,0.0,0.0,0.0,0.0,0.0,0.0,0.0,0.0,0.0,0.0,0.0,0.0,0.0,0.0,0.0,0.0,0.0,0.0,0.0,0.0,0.0,0.0,0.0,0.0,0.0,0.0,0.0,0.0,0.0,0.0,0.0,0.0,0.0,0.0,0.0,0.0,0.0,0.0,0.0,0.0,0.0,0.0,0.0,0.0,0.0,0.0,0.0,0.0,0.0,0.0,0.0,0.0,0.0,0.0,0.0,0.0,0.0,0.0,0.0,0.0,0.0,0.0,0.0,0.0,0.0,0.0,0.0,0.0,0.0,0.0,0.0,0.0,0.0,0.0,0.0,0.0,0.0,0.0,0.0,0.0,0.0,0.0,0.0,0.0,0.0,0.0,0.0,0.0,0.0,0.0,0.0,0.0,0.0,0.0,0.0,0.0,0.0,0.0,0.0,0.0,0.0,0.0,0.0,0.0,0.0,0.0,0.0,0.0,0.0,0.0,0.0,0.0,0.0,0.0,0.0,0.0,0.0,0.0,0.0,0.0,0.0,0.0,0.0,0.0,0.0,0.0,0.0,0.0,0.0,0.0,0.0,0.0,0.0,0.0,0.0,0.0,0.0,0.0,0.0,0.0,0.0,0.0,0.0,0.0,0.0,0.0,0.0,0.0,0.0,0.0,0.0,0.0,0.0,0.0,0.0,0.0,0.0,0.0,0.0,0.0,0.0,0.0,0.0,0.0,0.0,0.0,0.0,0.0,0.0,0.0,0.0,0.0,0.0,0.0,0.0,0.0,0.0,0.0,0.0,0.0,0.0,0.0,0.0,0.0,0.0,0.0,0.0,0.0,0.0,0.0,0.0,0.0,0.0,0.0,0.0,0.0,0.0,0.0,0.0,0.0,0.0,0.0,0.0,0.0,0.0,0.0,0.0,0.0,0.0,0.0,0.0,0.0,0.0,0.0,0.0,0.0,0.0,0.0,0.0,0.0,0.0,0.0,0.0,0.0,0.0,0.0,0.0,0.0,0.0,0.0,0.0,0.0,0.0,0.0,0.0,0.0,0.0,0.0,0.0,0.0,0.0,0.0,0.0,0.0,0.0,0.0,0.0,0.0,0.0,0.0,0.0,0.0,0.0,0.0,0.0,0.0,0.0,0.0,0.0,0.0,0.0,0.0,0.0,0.0,0.0,0.0,0.0,0.0,0.0,0.0,0.0,0.0,0.0,0.0,0.0,0.0,0.0,0.0,0.0,0.0,0.0,0.0,0.0,0.0,0.0,0.0,0.0,0.0,0.0,0.0,0.0,0.0,0.0,0.0,0.0,0.0,0.0,0.0,0.0,0.0,0.0,0.0,0.0,0.0,0.0,0.0,0.0,0.0,0.0,0.0,0.0,0.0,0.0,0.0,0.0,0.0,0.0,0.0,0.0,0.0,0.0,0.0,0.0,0.0,0.0,0.0,0.0,0.0,0.0,0.0,0.0,0.0,0.0,0.0,0.0,0.0,0.0,0.0,0.0,0.0,0.0,0.0,0.0,0.0,0.0,0.0,0.0,0.0,0.0,0.0,0.0,0.0,0.0,0.0,0.0,0.0,0.0,0.0,0.0,0.0,0.0,0.0,0.0,0.0,0.0,0.0,0.0,0.0,0.0,0.0,0.0,0.0,0.0,0.0,0.0,0.0,0.0,0.0,0.0,0.0,0.0,0.0,0.0,0.0,0.0,0.0,0.0,0.0,0.0,0.0,0.0,0.0,0.0,0.0,0.0,0.0,0.0,0.0,0.0,0.0,0.0,0.0,0.0,0.0,0.0,0.0,0.0,0.0,0.0,0.0,0.0,0.0,0.0,0.0,0.0,0.0,0.0,0.0,0.0,0.0,0.0,0.0,0.0,0.0,0.0,0.0,0.0,0.0,0.0,0.0,0.0,0.0,0.0,0.0,0.0,0.0,0.0,0.0,0.0,0.0,0.0,0.0,0.0,0.0,0.0,0.0,0.0,0.0,0.0,0.0,0.0,0.0,0.0,0.0,0.0,0.0,0.0,0.0,0.0,0.0,0.0,0.0,0.0,0.0,0.0,0.0,0.0,0.0,0.0,0.0,0.0,0.0,0.0,0.0,0.0,0.0,0.0,0.0,0.0,0.0,0.0,0.0,0.0,0.0,0.0,0.0,0.0,0.0,0.0,0.0,0.0,0.0,0.0,0.0,0.0,0.0,0.0,0.0,0.0,0.0,0.0,0.0,0.0,0.0,0.0,0.0,0.0,0.0,0.0,0.0,0.0,0.0,0.0,0.0,0.0,0.0,0.0,0.0,0.0,0.0,0.0,0.0,0.0,0.0,0.0,0.0,0.0,0.0,0.0,0.0,0.0,0.0,0.0,0.0,0.0,0.0,0.0,0.0,0.0,0.0,0.0,0.0,0.0,0.0,0.0,0.0,0.0,0.0,0.0,0.0,0.0,0.0,0.0,0.0,0.0,0.0,0.0,0.0,0.0,0.0,0.0,0.0,0.0,0.0,0.0,0.0,0.0,0.0,0.0,0.0,0.0,0.0,0.0,0.0,0.0,0.0,0.0,0.0,0.0,0.0,0.0,0.0,0.0,0.0,0.0,0.0,0.0,0.0,0.0,0.0,0.0,0.0,0.0,0.0,0.0,0.0,0.0,0.0,0.0,0.0,0.0,0.0,0.0,0.0,0.0,0.0,0.0,0.0,0.0,0.0,0.0,0.0,0.0,0.0,0.0,0.0,0.0,0.0,0.0,0.0,0.0,0.0,0.0,0.0,0.0,0.0,0.0,0.0,0.0,0.0,0.0,0.0,0.0,0.0,0.0,0.0,0.0,0.0,0.0,0.0,0.0,0.0,0.0,0.0,0.0,0.0,0.0,0.0,-4.5947,0.0,0.0,0.0,0.0,0.0,0.0,0.0,0.0,0.0,0.0,0.0,0.0,0.0,0.0,0.0,0.0,0.0,0.0,0.0,0.0,0.0,0.0,0.0,0.0,-4.0545,-4.2072,-4.3852,-4.4341,-4.4574,-4.4593,0.0,0.0,0.0,0.0,0.0,-3.974,-3.775,-3.6518,-3.6167,-3.5296,-3.4874,-3.4902,-3.5865,-3.7098,-3.8479,0.0,0.0,0.0,0.0,0.0,0.0,0.0,0.0,0.0,0.0,0.0,0.0,0.0,0.0,0.0,0.0,0.0,0.0,0.0,0.0,0.0,0.0,0.0,0.0,0.0,0.0,0.0,0.0,0.0,0.0,0.0,0.0,0.0,0.0,0.0,0.0,0.0,0.0,0.0,0.0,0.0,0.0,0.0,0.0,0.0,0.0,0.0,0.0,0.0,0.0,0.0,0.0,0.0,0.0,0.0,0.0,0.0,0.0,0.0,0.0,0.0,0.0,0.0,0.0,0.0,0.0,0.0,0.0,0.0,0.0,0.0,-4.6192,0.0,0.0,0.0,0.0,0.0,0.0,0.0,0.0,0.0,0.0,0.0,0.0,0.0,0.0,0.0,0.0,0.0,0.0,0.0,0.0,0.0,-3.6743,-3.8505,-4.0141,-4.1864,-4.3748,-4.3971,-4.4121,-4.4392,-4.4146,0.0,0.0,0.0,-4.0114,-3.8918,-3.7284,-3.6135,-3.5543,-3.4496,-3.397,-3.397,-3.4152,-3.551,-3.7793,-3.737,0.0,0.0,0.0,0.0,0.0,0.0,0.0,0.0,0.0,0.0,0.0,0.0,0.0,0.0,0.0,0.0,0.0,0.0,0.0,0.0,0.0,0.0,0.0,0.0,0.0,0.0,0.0,0.0,0.0,0.0,0.0,0.0,0.0,0.0,0.0,0.0,0.0,0.0,0.0,0.0,0.0,0.0,0.0,0.0,0.0,0.0,0.0,0.0,0.0,0.0,0.0,0.0,0.0,0.0,0.0,0.0,0.0,0.0,0.0,0.0,0.0,0.0,0.0,-4.9875,-4.9787,-4.9637,-4.9637,-4.9637,-4.9562,-4.8243,-4.7277,-4.6609,0.0,0.0,0.0,0.0,0.0,0.0,0.0,0.0,0.0,0.0,0.0,0.0,0.0,0.0,0.0,0.0,0.0,0.0,0.0,0.0,-3.6068,-3.845,-4.0141,-4.177,-4.3418,-4.3818,-4.3912,-4.3646,-4.3865,0.0,0.0,-4.1386,-4.0319,-3.9665,-3.6861,-3.5364,-3.5253,-3.4083,-3.3485,-3.3521,-3.4387,-3.5322,-3.6302,-3.7091,-3.7555,-3.7786,0.0,0.0,0.0,0.0,0.0,0.0,0.0,0.0,0.0,0.0,0.0,0.0,0.0,0.0,0.0,0.0,0.0,0.0,0.0,0.0,0.0,0.0,0.0,0.0,0.0,0.0,0.0,0.0,0.0,0.0,0.0,0.0,0.0,0.0,0.0,0.0,0.0,0.0,0.0,0.0,0.0,-4.6944,-4.6946,0.0,0.0,0.0,0.0,0.0,0.0,0.0,0.0,0.0,0.0,0.0,0.0,0.0,-5.1857,-5.3218,-5.3218,-5.2845,-5.2099,-5.1804,-5.1294,-5.0631,-5.0631,-5.0631,-5.0594,-5.0392,0.0,-4.7848,-4.6437,0.0,0.0,0.0,0.0,0.0,0.0,0.0,0.0,0.0,0.0,0.0,0.0,0.0,0.0,0.0,0.0,0.0,0.0,0.0,0.0,0.0,-4.0196,-4.1618,-4.2941,-4.3458,-4.3662,-4.3496,-4.3354,-4.2941,-4.2223,-4.0868,-3.9699,-3.869,-3.6398,-3.4599,-3.3387,-3.3152,-3.3075,-3.3075,-3.3506,-3.4173,-3.5089,-3.5933,-3.6734,-3.7453,-3.7717,0.0,0.0,0.0,0.0,0.0,0.0,0.0,0.0,0.0,0.0,0.0,0.0,0.0,0.0,0.0,0.0,0.0,0.0,0.0,0.0,0.0,0.0,0.0,0.0,0.0,0.0,0.0,0.0,0.0,0.0,0.0,0.0,0.0,0.0,0.0,0.0,0.0,0.0,0.0,-4.5806,-4.781,-4.8493,-4.9245,-4.9205,0.0,0.0,0.0,0.0,0.0,0.0,0.0,0.0,0.0,-5.2766,-5.2954,-5.361,-5.481,-5.481,-5.4626,-5.4238,-5.3624,-5.3151,-5.2821,-5.2362,-5.216,-5.2123,-5.1665,-5.0781,-4.9559,-4.8135,-4.7212,-4.6613,0.0,0.0,0.0,0.0,0.0,-4.4787,0.0,0.0,0.0,0.0,0.0,0.0,0.0,0.0,0.0,0.0,0.0,0.0,-3.8654,-4.0112,-4.1379,-4.2374,-4.2828,-4.3069,-4.3069,-4.2694,-4.2124,-4.1327,-4.0153,-3.8754,-3.7186,-3.534,-3.3473,-3.1642,-3.2319,-3.267,-3.267,-3.2896,-3.3447,-3.417,-3.4822,-3.593,-3.7283,-3.719,-3.6794,-3.6213,0.0,0.0,0.0,0.0,0.0,0.0,0.0,0.0,0.0,0.0,0.0,0.0,0.0,0.0,0.0,0.0,0.0,0.0,0.0,0.0,0.0,0.0,0.0,0.0,0.0,0.0,0.0,0.0,0.0,0.0,0.0,0.0,0.0,0.0,0.0,0.0,0.0,-4.6595,-4.85,-4.9852,-5.0828,-5.0911,0.0,0.0,0.0,0.0,0.0,0.0,-5.1683,-5.2289,-5.3353,-5.4968,-5.5005,-5.539,-5.6198,-5.5996,-5.5904,-5.5886,-5.4876,-5.4399,-5.4363,-5.3573,-5.3185,-5.3167,-5.2564,-5.1738,-5.0694,-4.9307,-4.8129,-4.7097,-4.6266,-4.6022,-4.6051,-4.5487,-4.5277,-4.5293,0.0,0.0,0.0,0.0,0.0,0.0,0.0,0.0,0.0,0.0,0.0,-3.7385,-3.8233,-3.9704,-4.0946,-4.1782,-4.1874,-4.1895,-4.1895,-4.1874,-4.1265,-3.9966,-3.9111,-3.7628,-3.5368,-3.3243,-3.168,-3.0687,-3.1732,-3.2248,-3.2248,-3.3213,-3.3686,-3.374,-3.4159,-3.5345,-3.6967,-3.6397,-3.6545,-3.7091,-3.6508,0.0,0.0,0.0,0.0,0.0,0.0,0.0,0.0,0.0,0.0,0.0,0.0,0.0,0.0,0.0,0.0,0.0,0.0,0.0,0.0,0.0,0.0,0.0,0.0,0.0,0.0,0.0,0.0,0.0,0.0,0.0,0.0,0.0,0.0,0.0,0.0,0.0,0.0,-5.0692,-5.2185,0.0,0.0,0.0,0.0,-5.2892,-5.2986,-5.3371,-5.4179,-5.4252,-5.5023,-5.6638,-5.6693,-5.7079,-5.7868,-5.7116,-5.6748,-5.673,-5.5152,-5.4399,-5.4363,-5.3573,-5.3185,-5.3185,-5.317,-5.2252,-5.0674,-4.9004,-4.807,-4.7576,-4.6701,-4.66,-4.684,-4.6057,-4.5768,-4.5655,0.0,0.0,0.0,0.0,0.0,-3.0601,-3.179,-3.2614,-3.351,-3.4675,-3.6149,-3.7474,-3.8391,-3.9754,-4.0771,-4.1176,-4.1578,-4.181,-4.181,-4.1,-4.0309,-3.9825,-3.8207,-3.6306,-3.4085,-3.3046,-3.2213,-3.1637,-3.2403,-3.2767,-3.2767,-3.3136,-3.3292,-3.3334,-3.3478,-3.4286,-3.5526,-3.5616,-3.5666,-3.5722,-3.5537,-3.5085,0.0,0.0,0.0,0.0,0.0,0.0,0.0,0.0,0.0,0.0,0.0,0.0,0.0,0.0,0.0,0.0,0.0,0.0,0.0,0.0,0.0,0.0,0.0,0.0,0.0,0.0,0.0,0.0,0.0,0.0,0.0,0.0,0.0,0.0,0.0,0.0,0.0,-5.1708,-5.358,0.0,-5.3292,-5.414,-5.4528,-5.4014,-5.4932,-5.5647,-5.5941,-5.6436,-5.6987,-5.7556,-5.7574,-5.7703,-5.7997,-5.7721,-5.7574,-5.7556,-5.5941,-5.517,-5.5115,-5.3812,-5.3185,-5.3185,-5.3185,-5.2582,-5.1481,-5.038,-4.9192,-4.7997,-4.7167,-4.6942,-4.6984,-4.6405,-4.5859,-4.5442,0.0,0.0,0.0,0.0,-3.0374,-3.1058,-3.1959,-3.3199,-3.4359,-3.5277,-3.6686,-3.7903,-3.8659,-3.9765,-4.0474,-4.0621,-4.1007,-4.111,-4.0834,-3.9983,-3.9116,-3.8275,-3.6198,-3.4381,-3.2938,-3.2712,-3.2457,-3.2215,-3.2382,-3.2469,-3.2426,-3.2064,-3.1833,-3.1833,-3.1833,-3.2234,-3.2983,-3.3675,-3.4386,-3.5018,-3.4919,-3.4881,-3.482,0.0,0.0,0.0,0.0,0.0,0.0,0.0,0.0,0.0,0.0,0.0,0.0,0.0,0.0,0.0,0.0,0.0,0.0,0.0,0.0,0.0,0.0,0.0,0.0,0.0,0.0,0.0,0.0,0.0,0.0,0.0,0.0,0.0,0.0,-4.9706,-5.1533,-5.2208,-5.4315,-5.5261,-5.4132,-5.5486,-5.618,-5.5647,-5.6602,-5.7207,-5.7207,-5.7703,-5.7997,-5.7997,-5.7997,-5.7997,-5.7997,-5.7997,-5.7997,-5.7978,-5.6363,-5.5614,-5.5559,-5.394,-5.3185,-5.3185,-5.3185,-5.2747,-5.194,-5.1132,-4.9994,-4.8655,-4.7828,-4.7498,-4.7425,-4.6849,-4.6136,-4.5451,0.0,0.0,0.0,-2.9399,-3.0756,-3.1652,-3.1237,-3.3863,-3.575,-3.5314,-3.723,-3.8716,-3.9001,-3.9673,-4.0096,-4.0096,-4.007,-3.9731,-3.8935,-3.881,-3.7706,-3.5237,-3.314,-3.2026,-3.2052,-3.2156,-3.2227,-3.224,-3.1554,-3.1223,-3.1178,-2.9943,-2.9407,-2.9407,-2.9407,-2.9407,-2.9498,-3.0631,-3.2663,-3.5091,-3.4717,-3.5101,-3.5792,0.0,0.0,0.0,0.0,0.0,0.0,0.0,0.0,0.0,0.0,0.0,0.0,0.0,0.0,0.0,0.0,0.0,0.0,0.0,0.0,0.0,0.0,0.0,0.0,0.0,0.0,0.0,0.0,0.0,0.0,0.0,0.0,0.0,-4.9069,-5.0338,-5.1505,-5.2257,-5.4337,-5.5701,-5.571,-5.709,-5.7997,-5.7997,-5.7997,-5.7997,-5.7997,-5.7997,-5.7997,-5.7997,-5.7997,-5.7997,-5.7997,-5.7997,-5.7997,-5.7978,-5.6363,-5.5614,-5.5559,-5.394,-5.3185,-5.3185,-5.3185,-5.2766,-5.1958,-5.1132,-5.0343,-4.9555,-4.8655,-4.8306,-4.8214,-4.7424,-4.6617,-4.5788,0.0,0.0,-2.9495,-3.0174,-3.1118,-3.203,-3.2665,-3.476,-3.6334,-3.6544,-3.798,-3.9114,-3.9543,-3.9893,-4.0096,-4.0096,-3.9584,-3.9139,-3.8908,-3.7223,-3.5516,-3.3946,-3.2695,-3.2408,-3.3225,-3.2564,-3.2416,-3.2842,-3.1748,-3.1223,-3.1178,-2.9943,-2.9407,-2.9407,-2.9407,-2.9407,-2.9407,-2.9761,-3.0324,-3.1192,-3.3169,-3.4262,-3.4669,0.0,0.0,0.0,0.0,0.0,0.0,0.0,0.0,0.0,0.0,0.0,0.0,0.0,0.0,0.0,0.0,0.0,0.0,0.0,0.0,0.0,0.0,0.0,0.0,0.0,0.0,0.0,0.0,0.0,0.0,0.0,-4.9171,-5.0608,-5.0608,-5.1403,-5.2281,-5.307,-5.4665,-5.5692,-5.5701,-5.7096,-5.7997,-5.7997,-5.7997,-5.7997,-5.7997,-5.7997,-5.7997,-5.7997,-5.7997,-5.7997,-5.7997,-5.7997,-5.7997,-5.7978,-5.6363,-5.5614,-5.5559,-5.394,-5.3185,-5.3185,-5.3185,-5.3057,-5.2766,-5.1371,-5.0674,-5.0325,-4.8875,-4.8306,-4.8269,-4.8048,-4.726,-4.6104,0.0,-2.9551,-2.9685,-3.057,-3.1323,-3.227,-3.371,-3.5514,-3.7031,-3.7988,-3.908,-4.0002,-4.0574,-4.0515,-4.0441,-4.0441,-3.9492,-3.8772,-3.8469,-3.5928,-3.3973,-3.2864,-3.2344,-3.2404,-3.3075,-3.2735,-3.2742,-3.3124,-3.1323,-3.0451,-3.0406,-2.8669,-2.7851,-2.784,-2.7685,-2.7706,-2.7887,-2.8185,-2.8449,-2.8833,-3.1005,-3.2631,-3.3569,-3.2683,-3.3737,-3.5525,-3.4448,-3.5267,-3.6758,-3.6362,0.0,0.0,0.0,0.0,0.0,0.0,0.0,0.0,0.0,0.0,0.0,0.0,0.0,0.0,0.0,0.0,0.0,0.0,0.0,0.0,0.0,0.0,0.0,0.0,-5.0642,-5.1792,-5.2131,-5.2536,-5.2976,-5.345,-5.4805,-5.5706,-5.5706,-5.708,-5.7997,-5.7997,-5.7997,-5.7997,-5.7997,-5.7997,-5.7997,-5.7997,-5.7997,-5.7997,-5.7997,-5.7997,-5.7997,-5.7978,-5.6363,-5.5614,-5.5559,-5.394,-5.3185,0.0,-5.3185,-5.3023,-5.2601,-5.1316,-5.06,0.0,0.0,0.0,0.0,0.0,-4.6616,-4.5562,0.0,-3.0037,-3.0049,-3.0931,-3.1617,-3.2637,-3.4499,-3.6164,-3.7795,-3.9483,-4.0315,-4.1067,-4.1872,-4.1318,-4.0903,-4.0903,-3.9596,-3.8374,-3.7371,-3.486,-3.2969,-3.2082,-3.2153,-3.224,-3.2303,-3.2817,-3.3124,-3.3124,-3.0732,-2.9544,-2.9361,-2.702,-2.583,-2.5674,-2.5322,-2.5361,-2.5761,-2.6468,-2.7025,-2.7494,-2.8541,-3.037,-3.232,-3.1365,-3.2665,-3.4954,-3.4418,-3.4971,-3.5926,-3.5855,0.0,0.0,0.0,0.0,0.0,0.0,0.0,0.0,0.0,0.0,0.0,0.0,0.0,0.0,0.0,0.0,0.0,0.0,0.0,0.0,0.0,0.0,0.0,0.0,-5.1961,-5.2689,-5.3399,-5.3501,-5.3501,-5.3501,-5.4805,-5.5706,-5.5706,-5.708,-5.7997,-5.7997,-5.7997,-5.7997,-5.7997,0.0,0.0,0.0,0.0,-5.7997,-5.7997,-5.7997,-5.7997,-5.7978,-5.6363,-5.5614,-5.5559,-5.394,-5.3185,-5.3185,-5.3185,-5.2747,-5.194,-5.1132,-5.027,-4.939,-4.86,-4.8251,-4.7994,-4.6452,-4.5388,0.0,0.0,-3.1648,-3.211,-3.2248,-3.2904,-3.3849,-3.5151,-3.6753,-3.8588,-4.0691,-4.1041,-4.1572,-4.2812,-4.1711,-4.0903,-4.0903,-3.9136,-3.6938,-3.4423,-3.3734,-3.3046,-3.2196,-3.2172,-3.2428,-3.2905,-3.3061,-3.3124,-3.3124,-3.1589,-3.0361,-2.9361,-2.7898,-2.6668,-2.5684,-2.5596,-2.5606,-2.5732,-2.5876,-2.5983,-2.611,-2.6342,-2.7876,-3.0157,-3.0873,-3.2019,-3.3306,-3.3672,-3.4816,-3.6069,-3.5558,-3.6182,-3.7235,-3.7749,-3.8238,0.0,0.0,0.0,0.0,0.0,0.0,0.0,0.0,0.0,0.0,0.0,0.0,0.0,0.0,0.0,0.0,0.0,0.0,0.0,-5.1928,-5.2756,-5.3331,-5.3484,-5.3501,-5.3501,-5.3501,-5.4805,-5.5706,-5.5706,-5.708,-5.7997,-5.7997,-5.7997,-5.7997,-5.7997,-5.7997,-5.7997,-5.7997,-5.7997,-5.7997,-5.7997,-5.7997,-5.7997,-5.7978,0.0,0.0,-5.5559,-5.394,-5.3185,-5.3185,-5.3185,-5.2747,-5.194,-5.1132,-4.9903,-4.8526,-4.8379,-4.7901,-4.7223,-4.625,-4.5388,-4.4633,-3.3131,-3.2841,-3.2814,-3.3138,-3.3779,-3.4778,-3.6315,-3.763,-3.9139,-4.1044,-4.112,-4.1348,-4.231,-4.1284,-4.0461,-4.0223,-3.8391,-3.6168,-3.3567,-3.3684,-3.3361,-3.2248,-3.2491,-3.278,-3.3111,-3.3124,-3.3124,-3.3124,-3.1821,-3.0899,-3.0271,-2.8459,-2.7268,-2.661,-2.5777,-2.5121,-2.4747,-2.5189,-2.5131,-2.4766,-2.543,-2.6428,-2.7662,-2.8947,-3.0089,-3.1212,-3.2135,-3.3328,-3.4548,-3.4888,-3.5666,-3.6679,-3.76,-3.7792,-3.7734,0.0,0.0,0.0,0.0,0.0,0.0,0.0,0.0,0.0,0.0,0.0,0.0,0.0,0.0,-4.7212,-4.8375,0.0,-5.2012,-5.279,-5.3247,-5.3651,-5.3994,-5.4042,-5.3913,-5.3517,-5.4805,-5.5706,-5.5706,-5.708,-5.7997,-5.7997,-5.7997,-5.7997,-5.7997,-5.7997,-5.7997,-5.7997,-5.7997,-5.7997,-5.7997,-5.7997,-5.7997,-5.7978,-5.6363,-5.5614,-5.5559,-5.394,-5.3185,-5.3185,-5.3185,-5.2747,-5.1903,-5.0692,-4.9444,-4.8306,-4.8306,-4.7572,-4.6452,-4.6049,-4.5131,-4.4064,-3.4875,-3.4158,-3.3757,-3.4304,-3.48,-3.5768,-3.7636,-3.8522,-3.9564,-4.1189,-4.1059,-4.103,-4.1628,-4.0795,-3.9977,-3.9385,-3.7861,-3.6118,-3.422,-3.4556,-3.4263,-3.3039,-3.3456,-3.37,-3.37,-3.37,-3.37,-3.37,-3.2685,-3.1923,-3.1452,-2.9499,-2.8251,-2.7531,-2.5922,-2.4611,-2.3773,-2.4495,-2.4388,-2.384,-2.5177,-2.5693,-2.583,-2.6849,-2.7992,-2.9223,-3.0676,-3.1707,-3.2521,-3.3933,-3.513,-3.6217,-3.7185,-3.7417,-3.7441,-3.8195,-3.8018,0.0,0.0,0.0,0.0,0.0,0.0,0.0,0.0,-4.1758,-4.2573,-4.4098,-4.6094,-4.8066,-4.9567,-5.1273,-5.2724,-5.3568,-5.3721,-5.3954,-5.4707,-5.4693,-5.4437,-5.3962,-5.5119,-5.592,-5.592,-5.7198,-5.7997,-5.7997,-5.7997,-5.7997,-5.7997,-5.7997,-5.7997,-5.7997,-5.7997,-5.7997,-5.7997,-5.7997,-5.7997,-5.7978,-5.6363,-5.5614,-5.5559,-5.394,-5.3185,-5.3167,-5.2855,-5.238,-5.1628,-5.0033,-4.893,-4.8306,-4.8306,-4.7315,-4.5902,-4.5902,-4.4874,-4.3515,0.0,-3.6263,-3.6679,-3.6579,-3.6609,-3.7212,-3.8865,-3.9196,-3.9842,-4.1525,-4.1189,-4.1116,-4.1952,-4.0937,-3.9809,-3.8785,-3.8085,-3.7371,-3.6643,-3.6645,-3.6433,-3.577,-3.5813,-3.5854,-3.5854,-3.5854,-3.5854,-3.5854,-3.5707,-3.46,-3.2603,-3.2333,-3.0547,-2.7531,-2.6104,-2.48,-2.3683,-2.3795,-2.3804,-2.384,-2.5177,-2.5693,-2.5742,-2.5878,-2.6706,-2.8085,-3.0406,-3.0958,-3.0939,-3.2696,-3.4239,-3.5612,-3.6203,-3.7643,-3.9026,-3.8536,-3.8347,-3.8346,-3.8504,-3.9411,-4.0301,-4.0197,-4.1115,-4.2545,0.0,-4.4811,-4.5256,-4.6614,-4.7808,-4.8983,-5.0103,-5.1757,-5.3266,-5.4293,-5.4465,-5.472,-5.547,-5.5022,-5.4818,-5.5379,-5.6232,-5.6765,-5.6765,-5.7498,-5.7997,-5.7997,-5.7997,-5.7997,-5.7997,-5.7997,-5.7997,-5.7997,-5.7997,-5.7997,-5.7997,-5.7997,-5.7997,-5.7978,-5.6363,-5.5614,-5.5559,-5.394,-5.3185,-5.3112,-5.1701,-5.1022,-5.0802,-4.9132,-4.8398,-4.8306,-4.8306,-4.7315,-4.5902,-4.5902,-4.4874,-4.3515,0.0,-3.7005,-3.752,-3.8374,-3.8427,-3.8576,-3.9264,-3.9723,-4.0246,-4.095,-4.0488,-4.0417,-4.1254,-4.0412,-3.9602,-3.91,-3.8304,-3.779,-3.7772,-3.7259,-3.7166,-3.7497,-3.7053,-3.6956,-3.7356,-3.7887,-3.7927,-3.7356,-3.7507,-3.6823,-3.5311,-3.3594,-3.1671,-2.9466,-2.674,-2.4429,-2.2567,-2.3384,-2.3226,-2.2717,-2.4864,-2.5693,-2.5781,-2.6524,-2.7285,-2.8156,-2.9894,-3.0824,0.0,-3.3204,-3.4226,-3.491,-3.5766,-3.6646,-3.7483,-3.8221,-3.878,-3.9456,-4.0888,-4.1953,-4.2845,-4.3646,-4.4075,-4.4747,-4.6366,-4.6301,-4.6157,-4.7115,-4.8099,-4.915,-5.0204,-5.1836,-5.3337,-5.4428,-5.4955,-5.5502,-5.6283,-5.6145,-5.6226,-5.6964,-5.7358,-5.7376,-5.6938,-5.7565,-5.7997,-5.7997,-5.7997,-5.7997,-5.7997,-5.7997,-5.7997,-5.7997,-5.7997,-5.7997,-5.7997,-5.7997,-5.7997,-5.7978,-5.6363,-5.5614,-5.5559,-5.394,-5.3185,-5.313,-5.1995,-5.1224,-5.071,-4.9536,-4.8765,-4.8306,-4.8306,-4.7315,-4.5902,-4.5902,-4.4874,-4.3515,0.0,-3.7695,-3.8378,-3.9553,-3.9796,-3.9825,-3.9791,-4.0191,-4.0512,-4.0552,-4.0005,-3.9849,-4.0482,-4.0047,-3.9722,-3.9722,-3.8904,-3.8537,-3.8998,-3.8445,-3.85,-3.9452,-3.9071,-3.9054,-3.9557,-4.0415,-4.0541,-3.9871,-4.0038,-3.953,-3.8241,-3.6117,-3.4166,-3.2318,-2.8954,-2.6043,-2.3686,-2.4225,-2.3659,-2.2654,-2.5186,-2.6408,-2.6768,-2.7846,-2.8992,-3.0008,-3.0384,-3.1173,-3.2327,-3.4025,-3.4829,-3.5304,-3.6245,-3.6753,-3.7248,-3.8675,-3.984,-4.1053,-4.2653,-4.3781,-4.4749,-4.5977,-4.6355,-4.6731,-4.7942,-4.7584,-4.7147,-4.7616,-4.8072,-4.88,-5.0126,-5.1772,-5.3325,-5.4697,-5.553,-5.6286,-5.7087,-5.704,-5.7161,-5.7912,-5.7997,-5.7774,-5.7259,-5.7703,-5.7997,-5.7997,-5.7997,-5.7997,-5.7997,-5.7997,-5.7997,-5.7997,-5.7997,-5.7997,-5.7997,-5.7997,-5.7886,-5.7648,-5.6253,-5.5464,-5.5207,-5.383,-5.3185,-5.313,-5.2105,-5.1334,-5.0729,-4.9664,-4.8875,-4.8306,-4.8306,-4.7462,-4.6214,-4.5975,-4.4874,-4.3515,0.0,0.0,-3.9844,-3.9883,-4.0474,-4.0913,-4.077,-4.0609,-4.0545,-4.0674,-4.0052,-3.9677,-3.9896,-4.0141,-4.0341,-4.0548,-4.0066,-4.0071,-4.0861,-4.0894,-4.1179,-4.1869,-4.2539,-4.294,-4.2956,-4.3676,-4.4028,-4.4028,-4.4045,-4.3024,-4.1078,-4.101,-3.9276,-3.6118,-3.3543,-3.0935,-2.839,-2.6941,-2.5496,-2.4417,-2.6635,-2.814,-2.9081,-2.9697,-3.1804,-3.4165,-3.2383,-3.2175,-3.3028,-3.4795,-3.6196,-3.7341,-3.7923,-3.8857,-3.983,-4.0609,-4.1954,-4.3162,-4.3122,-4.4204,-4.5504,-4.615,-4.7281,-4.8408,-4.9187,-4.904,-4.8728,-4.8743,-4.7988,-4.7961,-5.0025,-5.1611,-5.3266,-5.5314,-5.6292,-5.7056,-5.7837,-5.7347,-5.7161,-5.7912,-5.7997,-5.7997,0.0,-5.7997,-5.7997,-5.7997,-5.7997,-5.7997,-5.7997,-5.7997,-5.7997,-5.7997,-5.7997,-5.7997,-5.7997,-5.7997,-5.7611,-5.684,-5.5996,-5.5188,-5.4418,-5.3592,-5.3185,-5.3093,-5.1518,-5.082,-5.0674,-4.9022,-4.8324,-4.8306,-4.8306,-4.7791,-4.6966,-4.6195,-4.4874,-4.3515,0.0,0.0,0.0,-4.1465,-4.1726,-4.1862,-4.1855,-4.1201,-4.0909,-4.1497,-4.1858,0.0,0.0,0.0,0.0,0.0,-4.1463,-4.129,-4.169,-4.1644,-4.1941,-4.2686,-4.2912,-4.3469,-4.4413,-4.5715,-4.6331,-4.6192,-4.6871,-4.6277,-4.4481,-4.3382,-4.1607,-3.9179,-3.6096,-3.3758,-3.204,-3.048,-3.0003,-3.0438,-3.0781,-3.1979,-3.3614,-3.4153,-3.5229,-3.6458,0.0,-3.6627,-3.586,-3.6687,-3.7279,-3.7652,-3.7875,-3.8166,-3.8809,-4.0593,-4.2501,-4.4254,-4.5275,-4.6625,-4.8038,-4.9246,-5.0135,-5.0753,-5.0941,-5.0775,-5.0333,-4.9319,-4.9261,-4.9631,-5.0485,-5.1871,-5.3482,-5.5387,-5.6325,-5.69,-5.7155,-5.7419,-5.748,-5.7282,-5.7688,-5.7989,-5.7987,0.0,0.0,-5.7997,-5.7997,-5.7997,-5.7997,-5.7997,-5.7997,-5.7997,-5.7997,-5.7997,-5.7997,-5.7997,-5.7593,-5.6785,-5.5445,-5.4381,-5.3592,-5.3314,-5.2913,-5.2344,-5.1279,-5.049,-4.9903,-4.8765,-4.8306,-4.8306,-4.8306,-4.781,-4.7003,-4.6195,-4.5223,-4.4213,0.0,0.0,0.0,0.0,0.0,0.0,0.0,0.0,0.0,0.0,0.0,0.0,0.0,0.0,0.0,0.0,0.0,-4.219,-4.2381,-4.2144,-4.2315,-4.3087,-4.3141,-4.3657,-4.4792,-4.6085,-4.6935,-4.7314,-4.7958,-4.77,-4.6582,-4.5768,-4.4577,-4.2953,-4.0651,-3.889,-3.7559,-3.5656,-3.5068,-3.535,-3.4685,-3.5454,-3.7086,-3.7645,-3.8513,0.0,-4.0572,-4.0299,-3.9429,-3.8956,-3.8857,-3.8972,-3.9253,-3.9566,-4.0144,-4.1891,-4.3581,-4.5263,-4.7053,-4.8225,-4.9337,-5.1109,-5.1793,-5.2068,-5.2299,-5.1761,-5.0949,-5.0003,-4.9671,-4.9829,-5.0637,-5.1789,-5.3288,-5.5355,-5.6325,-5.6897,-5.7147,-5.735,-5.745,-5.7316,-5.7474,-5.7703,-5.7964,-5.7997,-5.7997,-5.7997,-5.7997,-5.7997,-5.7997,-5.7997,-5.7997,-5.7997,-5.7997,-5.7997,-5.7997,-5.7997,-5.7446,-5.6345,-5.4748,-5.3702,-5.3185,-5.3185,-5.2766,-5.1958,-5.1151,-5.0343,-4.9537,-4.8655,-4.8306,-4.8306,-4.8306,-4.781,-4.7003,-4.6195,-4.5388,-4.458,0.0,0.0,0.0,0.0,0.0,0.0,0.0,0.0,0.0,0.0,0.0,0.0,0.0,0.0,0.0,0.0,0.0,0.0,-4.2881,-4.2462,-4.2493,-4.3155,-4.3338,-4.3712,-4.4335,-4.5087,-4.6166,-4.7561,-4.7621,-4.758,-4.7459,-4.8206,-4.8088,-4.72,-4.676,-4.5864,-4.454,-4.2173,-4.0449,-3.9228,-3.8344,-3.8637,-3.9634,-4.0175,-4.1731,-4.3496,-4.291,-4.3178,-4.3454,-4.1433,-4.0903,-4.1215,-4.194,-4.2783,-4.3673,-4.4418,-4.5196,-4.6265,-4.8342,-4.8962,-4.952,-5.167,-5.2263,-5.2476,-5.3148,-5.206,-5.0841,-5.076,-4.9447,-4.8796,-5.0465,-5.1416,-5.2727,-5.5255,-5.6275,-5.6998,-5.7754,-5.7282,-5.7126,-5.7846,-5.7367,-5.7224,-5.7917,-5.7992,-5.7997,-5.7997,0.0,-5.7997,-5.7997,-5.7997,-5.7997,-5.7997,-5.7997,-5.7997,-5.7997,-5.7923,-5.7079,-5.5522,-5.3959,-5.3185,-5.3185,-5.3185,-5.2747,-5.1885,-5.1132,-5.0306,-4.9482,-4.8636,-4.8306,-4.8306,-4.8306,-4.781,-4.7003,-4.6195,-4.5388,-4.458,0.0,0.0,0.0,0.0,0.0,0.0,0.0,0.0,0.0,0.0,0.0,0.0,0.0,0.0,0.0,0.0,0.0,0.0,-4.2769,-4.3122,-4.3241,-4.2999,-4.3547,-4.4165,-4.4869,-4.6204,-4.7326,-4.8245,-4.9401,-4.9657,-4.9091,-4.9287,-4.9174,-4.8717,-4.7849,-4.7457,-4.7278,-4.5477,-4.4705,-4.4552,-4.2903,-4.3194,-4.4561,-4.4494,-4.5098,-4.6006,-4.6593,-4.6526,-4.5851,-4.3551,-4.3071,-4.3469,-4.3167,-4.4031,-4.5162,-4.5365,-4.6346,-4.759,-4.8607,-4.9684,-5.0796,-5.1864,-5.2983,-5.372,-5.3324,-5.3393,-5.3048,-5.1417,-5.1141,-5.1024,-5.0402,-5.1345,-5.2791,-5.4599,-5.5513,-5.6244,-5.6964,-5.7409,-5.7467,-5.7147,-5.7453,-5.7795,-5.7988,-5.8007,-5.7997,0.0,-5.7997,-5.7997,-5.7997,-5.7997,-5.7997,-5.7997,-5.7997,-5.7997,-5.7997,-5.6804,-5.5702,-5.4693,-5.3683,-5.3185,-5.3185,-5.3185,-5.2435,-5.1096,-5.0894,-4.9976,-4.8618,-4.8398,-4.8306,-4.8306,-4.8306,-4.781,-4.7003,-4.6195,-4.5388,-4.458,0.0,0.0,0.0,0.0,0.0,0.0,0.0,0.0,0.0,0.0,0.0,0.0,0.0,0.0,0.0,0.0,0.0,0.0,0.0,-4.3205,-4.3167,-4.2825,-4.2959,-4.3341,-4.4025,-4.5594,-4.6601,-4.7052,-4.866,-4.9288,-4.9047,-4.9028,-4.9137,-4.9321,-4.8747,-4.8621,-4.8767,-4.7489,-4.7126,0.0,0.0,-4.5803,-4.6693,-4.6921,-4.7306,-4.7784,-4.8332,-4.8232,-4.7626,-4.6215,-4.5616,-4.5422,-4.5001,-4.5461,-4.6312,-4.6972,-4.7733,-4.8668,-4.9987,-5.0946,-5.1736,-5.2402,-5.3244,-5.3671,-5.2862,-5.2801,-5.2485,-5.0865,-5.0916,-5.0996,-5.0202,-5.1281,-5.2689,-5.3924,-5.5023,-5.597,-5.6697,-5.7154,-5.7237,-5.6835,-5.6913,-5.6999,-5.6973,-5.7319,-5.7516,-5.7516,-5.7815,-5.7997,-5.7997,-5.7997,-5.7997,-5.7997,-5.7997,-5.7831,-5.7483,-5.6216,-5.5188,-5.4399,-5.3592,-5.3185,-5.3185,-5.3185,-5.2325,-5.0802,0.0,-4.9848,-4.8306,-4.8306,-4.8306,-4.8306,-4.8306,-4.759,-4.6526,-4.6067,-4.5168,-4.4103,0.0,0.0,0.0,0.0,0.0,0.0,0.0,0.0,0.0,0.0,0.0,0.0,0.0,0.0,0.0,0.0,0.0,0.0,0.0,0.0,-4.2959,-4.2959,-4.2451,-4.2411,-4.2941,-4.4414,-4.5205,-4.527,-4.684,-4.7776,-4.8042,-4.8037,-4.8447,-4.9159,-4.915,-4.9183,-4.9169,-4.8484,-4.8134,-4.7986,-4.7409,-4.713,-4.7199,0.0,-4.8726,-4.9048,-4.9052,-4.8976,-4.8893,-4.8942,-4.8255,-4.7302,-4.7151,-4.721,-4.7628,-4.8795,-4.9297,-4.9863,-5.1831,-5.244,-5.2654,-5.3218,-5.3371,-5.3133,-5.2197,-5.1522,-5.0792,-4.9888,-4.9782,-4.9914,-4.9987,-5.109,-5.2326,-5.3309,-5.4584,-5.5716,-5.6545,-5.6664,-5.6641,-5.6636,-5.6072,-5.5705,-5.5706,-5.6312,-5.6739,-5.6739,-5.7425,-5.7886,-5.7997,-5.7997,-5.7997,-5.7997,-5.7997,-5.7556,-5.6657,-5.5941,-5.5133,-5.4234,-5.3537,-5.3185,-5.3185,-5.3185,-5.2325,-5.0802,0.0,0.0,-4.8306,-4.8306,-4.8306,-4.8306,-4.8196,-4.7223,-4.5883,-4.5773,-4.4782,-4.3515,0.0,0.0,0.0,0.0,0.0,0.0,0.0,0.0,0.0,0.0,-4.5996,-4.581,0.0,0.0,0.0,0.0,0.0,0.0,0.0,0.0,0.0,-4.4271,-4.4162,-4.4162,-4.4271,-4.5198,-4.5687,-4.5702,-4.6647,-4.7146,-4.7217,-4.7203,-4.7424,-4.7826,-4.7826,-4.8018,-4.8314,-4.818,-4.776,-4.7262,-4.7846,-4.7881,-4.7702,-4.8917,0.0,0.0,-5.0272,-4.9902,-4.9449,-5.0481,-5.0326,-4.9643,-4.9232,-4.9701,-5.0388,-5.0014,-5.0817,-5.2015,-5.2956,-5.3697,-5.4176,-5.4188,-5.4197,-5.3812,-5.2325,-5.1914,-5.1411,-4.9996,-4.9703,-4.9788,-4.9904,-5.0195,-5.1047,-5.3084,-5.3677,-5.4363,-5.5716,-5.5902,-5.5887,-5.5909,-5.5766,-5.5681,-5.5699,-5.5824,-5.592,-5.592,-5.6624,-5.7351,-5.7973,-5.7997,-5.7997,-5.7997,-5.7997,-5.7281,-5.5812,-5.5666,-5.4858,-5.3427,-5.328,-5.3185,-5.3185,-5.3185,-5.2325,-5.0802,0.0,0.0,-4.8306,-4.8306,-4.8306,-4.8233,-4.7571,-4.6727,-4.581,-4.5149,-4.4305,-4.3515,0.0,0.0,0.0,0.0,0.0,0.0,0.0,-4.6445,-4.7148,-4.7598,-4.7985,-4.7957,-4.7198,-4.6461,-4.5939,0.0,0.0,0.0,0.0,0.0,0.0,0.0,-4.4819,-4.4593,-4.4593,-4.5798,-4.6307,-4.6063,0.0,-4.7918,-4.7679,-4.729,-4.7195,-4.7325,-4.6862,-4.6769,-4.6958,-4.6958,-4.701,-4.7184,-4.8044,-4.8522,-4.8789,0.0,0.0,0.0,-5.0718,-5.0198,-4.9586,-5.0756,-5.0742,-5.0281,-5.0508,-5.0999,-5.1449,-5.1287,-5.2025,-5.305,-5.379,-5.4553,-5.5063,-5.4521,-5.4399,-5.3867,-5.183,-5.1371,-5.0922,-4.93,-4.9331,-4.9539,-4.9233,-5.0193,-5.1157,-5.1569,-5.2668,-5.3693,-5.4431,-5.4888,-5.5141,-5.5141,-5.5128,-5.4985,-5.4608,-5.4907,-5.5131,-5.5131,-5.6232,-5.704,-5.7401,-5.7797,-5.7997,-5.7997,-5.7593,-5.6804,-5.5614,-5.517,-5.4381,-5.3185,-5.3185,-5.3185,-5.3185,-5.3185,-5.2325,-5.0802,-5.0802,0.0,-4.8306,-4.8306,-4.8306,-4.8269,-4.7865,-4.6985,-4.5847,-4.548,-4.4544,-4.3515,0.0,0.0,0.0,0.0,0.0,0.0,0.0,-4.7754,-4.8242,-4.9297,-5.0039,-5.0233,-4.9627,-4.8277,-4.734,0.0,0.0,0.0,0.0,0.0,0.0,0.0,0.0,-4.5105,-4.509,0.0,0.0,-4.6961,-4.8241,0.0,0.0,0.0,0.0,0.0,-4.6565,-4.6176,-4.6176,-4.5977,-4.6422,0.0,0.0,-4.8978,0.0,0.0,0.0,0.0,0.0,-5.0299,-4.9644,-5.0678,-5.0739,-5.0528,-5.127,-5.1709,-5.1971,-5.2099,-5.2999,-5.4011,-5.4606,-5.546,-5.5934,-5.4913,-5.4656,-5.3977,-5.1389,-5.0802,-5.0325,-4.8655,-4.8838,-4.9215,-4.8792,-5.0114,-5.1021,-5.0317,-5.1731,-5.2991,-5.3195,-5.389,-5.4346,-5.4346,-5.4346,-5.4143,-5.3568,-5.4027,-5.4374,-5.4374,-5.5645,0.0,-5.7109,-5.754,-5.7839,-5.7997,-5.7226,-5.6418,-5.5614,-5.4803,-5.4014,-5.3185,-5.3185,-5.3185,-5.3185,-5.3023,-5.216,-5.0802,-5.0618,0.0,0.0,-4.8306,-4.8306,-4.8269,-4.7921,-4.7021,-4.5865,-4.5498,-4.458,-4.3515,0.0,0.0,0.0,0.0,0.0,0.0,0.0,-4.8262,-4.9355,-5.0957,-5.123,-5.1562,-5.2265,-5.0759,-4.9377,0.0,0.0,0.0,0.0,0.0,0.0,0.0,0.0,0.0,0.0,0.0,0.0,-4.9115,-4.8612,0.0,0.0,0.0,0.0,0.0,0.0,-4.7075,-4.7036,-4.6234,0.0,0.0,0.0,0.0,0.0,0.0,0.0,0.0,0.0,-5.041,-4.9907,-5.0792,-5.1054,-5.1068,-5.1395,-5.2035,-5.257,-5.1878,-5.3473,-5.5494,-5.5584,-5.6679,-5.7414,-5.5868,-5.5504,-5.4656,-5.1518,-5.0802,-5.0325,-4.8655,-4.8361,-4.8635,-4.9366,-4.9135,-4.9267,-5.0698,-5.1137,-5.1567,-5.2297,-5.3095,-5.3602,-5.3602,-5.3602,-5.3568,-5.3518,-5.3551,-5.3618,-5.3618,-5.4359,0.0,-5.7797,-5.7327,-5.7327,-5.7973,-5.7226,-5.6418,-5.5614,-5.4803,-5.4014,-5.3185,-5.3185,-5.3185,-5.3167,-5.2435,-5.1628,-5.0765,0.0,0.0,0.0,-4.8306,-4.8306,-4.8159,-4.6691,-4.603,-4.5718,-4.4267,-4.3643,-4.3515,0.0,0.0,0.0,0.0,0.0,0.0,-4.7461,-4.7891,-4.873,-5.0449,-5.1562,-5.2305,-5.2656,-5.2986,-5.222,-4.9817,0.0,0.0,0.0,0.0,0.0,0.0,0.0,0.0,0.0,0.0,-4.9317,-5.0183,-5.0537,0.0,0.0,0.0,0.0,0.0,0.0,-4.8216,-4.8197,-4.7845,0.0,0.0,0.0,0.0,0.0,0.0,0.0,0.0,0.0,0.0,-4.9885,-5.0396,-5.0494,-5.0357,-4.9846,-5.0817,-5.2145,-5.2189,-5.3321,-5.4631,-5.49,-5.5751,-5.629,-5.5152,-5.4876,-5.4161,-5.1426,-5.0802,-5.0325,-4.8655,-4.8306,-4.8416,-4.8746,-4.9009,-4.9404,-5.0109,-5.0309,-5.0683,-5.1533,-5.1896,-5.2283,-5.2723,-5.3213,-5.3501,-5.3501,-5.3501,-5.3701,-5.4139,-5.4027,0.0,-5.6509,-5.6799,-5.7234,-5.7973,-5.6748,-5.5904,-5.5614,-5.4326,-5.3537,-5.3185,-5.3185,-5.3185,-5.3167,-5.2362,-5.1555,-5.0765,-4.9939,0.0,0.0,-4.8306,-4.8306,-4.8196,-4.7058,-4.6342,-4.5755,-4.4635,-4.392,-4.3515,0.0,0.0,0.0,0.0,0.0,-4.6582,-4.7461,-4.7598,-4.8301,-5.0293,-5.1387,-5.2246,-5.3008,-5.3945,-5.3672,-5.1504,-5.0207,0.0,0.0,0.0,0.0,0.0,0.0,0.0,0.0,0.0,-5.0833,-5.1828,-5.2408,-5.2825,0.0,0.0,-5.1738,-5.0898,0.0,0.0,0.0,0.0,0.0,0.0,0.0,0.0,0.0,0.0,0.0,0.0,0.0,0.0,0.0,0.0,0.0,-5.0282,-4.9512,-5.0314,-5.1539,-5.1638,-5.2678,-5.3845,-5.4073,-5.4834,-5.5409,-5.4601,-5.4399,-5.3775,-5.1353,-5.0802,-5.0325,-4.8655,-4.8306,-4.8306,-4.8306,-4.9003,-4.9612,-4.9689,-4.9989,-5.0523,-5.1402,-5.152,-5.1809,-5.257,-5.3162,-5.3501,-5.3501,-5.3501,-5.3734,-5.4249,-5.3799,0.0,-5.532,-5.5697,-5.6335,-5.729,-5.578,-5.503,-5.5244,-5.3676,-5.298,-5.3185,-5.3185,-5.3096,-5.2821,-5.2013,-5.1206,-5.0398,0.0,0.0,0.0,-4.8306,-4.8306,-4.8214,-4.7149,-4.6416,-4.5773,-4.4727,-4.3993,-4.3515,0.0,0.0,0.0,0.0,0.0,0.0,-4.7461,-4.7598,-4.8516,-5.1055,-5.0703,-5.1191,-5.3711,-5.3223,-5.3066,-5.3887,-5.2363,0.0,0.0,0.0,0.0,0.0,0.0,0.0,0.0,0.0,-5.3178,-5.4453,-5.3869,-5.4027,-5.4868,-5.4255,-5.3516,-5.2637,0.0,0.0,0.0,0.0,0.0,0.0,0.0,0.0,0.0,0.0,0.0,0.0,0.0,0.0,0.0,0.0,0.0,0.0,0.0,-5.1089,-5.0888,-4.9759,-5.1501,-5.3719,-5.3332,-5.4381,-5.5409,-5.4601,-5.4399,-5.3775,-5.1353,-5.0802,-5.0325,-4.8655,-4.8306,-4.8306,-4.8306,-4.9003,-4.9612,-4.9689,-5.041,-5.1297,-5.2153,-5.2289,-5.2587,-5.3399,-5.3501,-5.3501,-5.3501,-5.3501,-5.3501,-5.3501,0.0,0.0,-5.4558,-5.3927,-5.4213,-5.5671,-5.4233,-5.3749,-5.4396,-5.289,-5.2468,-5.3185,-5.3185,-5.2784,-5.1977,-5.1187,-5.0362,0.0,0.0,0.0,0.0,-4.8306,-4.8306,-4.8141,-4.6544,-4.5902,-4.57,-4.4085,-4.3515,-4.3515,0.0,0.0,0.0,0.0,0.0,0.0,0.0,-4.6719,-4.7422,-4.9433,-4.998,-5.0937,-5.2891,-5.3926,-5.4355,-5.4023,-5.3496,0.0,0.0,0.0,0.0,0.0,0.0,0.0,0.0,0.0,-5.4039,-5.5318,-5.592,-5.6347,-5.66,-5.6032,-5.5312,-5.4414,-5.2949,-5.2148,0.0,0.0,0.0,0.0,0.0,0.0,0.0,0.0,0.0,0.0,0.0,0.0,0.0,0.0,0.0,0.0,0.0,0.0,0.0,-4.9381,-5.0274,-5.1701,-5.1862,-5.2111,-5.2252,-5.1995,-5.194,-5.1591,-5.027,-4.9996,-4.9646,-4.8526,-4.8306,-4.8306,-4.8306,-4.8526,-4.9275,-5.0997,-5.1085,-5.1422,-5.2831,-5.308,-5.3012,-5.2704,-5.3179,-5.3501,-5.3501,0.0,-5.3501,-5.3501,0.0,0.0,-5.3031,-5.2808,-5.3385,-5.4884,-5.346,-5.2973,-5.3629,-5.2604,-5.2177,-5.238,-5.1927,-5.1529,-5.113,-4.9862,0.0,0.0,0.0,0.0,0.0,-4.8306,-4.7994,-4.7369,-4.6305,-4.5571,-4.4947,-4.3883,-4.3515,-4.3515,0.0,0.0,0.0,0.0,0.0,0.0,0.0,-4.6308,-4.6933,-4.8672,-4.9375,-5.0605,-5.2949,-5.416,-5.4863,-5.4961,-5.498,0.0,0.0,0.0,0.0,0.0,0.0,0.0,-5.2157,-5.3409,-5.4699,-5.5969,-5.6892,-5.734,-5.7398,-5.7102,-5.6383,-5.5254,-5.418,-5.328,0.0,0.0,0.0,0.0,0.0,0.0,0.0,0.0,0.0,0.0,0.0,0.0,0.0,0.0,0.0,0.0,0.0,0.0,0.0,0.0,-4.9974,-5.0563,-5.0965,-5.1025,-5.0986,-5.0986,-5.0887,-5.0582,-4.9794,-4.961,-4.9353,-4.8489,-4.8306,-4.8306,-4.8306,-4.8545,-4.937,-5.1242,-5.0981,-5.1187,-5.3095,-5.2956,-5.2658,-5.2738,-5.3196,-5.3501,-5.3501,-5.3501,-5.3501,0.0,0.0,0.0,-5.2334,-5.1775,-5.1913,-5.2869,-5.1963,-5.1908,-5.2834,-5.2089,-5.1803,-5.1995,-5.1314,-5.0773,-5.0305,-4.9128,0.0,0.0,0.0,0.0,0.0,-4.7957,-4.7553,-4.6984,-4.5883,-4.5149,-4.4617,-4.3791,-4.3515,-4.3515,0.0,0.0,0.0,0.0,0.0,0.0,0.0,-4.6308,-4.6933,-4.8672,-4.8906,-5.0156,-5.3457,-5.3926,-5.4648,-5.6269,0.0,0.0,0.0,0.0,0.0,0.0,0.0,0.0,-5.2685,-5.3977,-5.5242,-5.6488,-5.71,-5.7458,-5.7587,-5.7669,-5.6907,-5.5488,-5.5351,-5.4291,0.0,0.0,0.0,0.0,0.0,0.0,0.0,0.0,0.0,0.0,0.0,0.0,0.0,0.0,0.0,0.0,0.0,0.0,0.0,0.0,0.0,0.0,0.0,-5.089,-5.1134,-5.1098,-5.0841,-5.0435,-4.9684,-4.9519,0.0,-4.8471,-4.8306,-4.8324,-4.8379,-4.8948,-4.9756,-5.0802,-5.0456,-5.0801,-5.2987,-5.2132,-5.1843,-5.3331,-5.3501,-5.3501,-5.3501,-5.345,-5.3416,0.0,0.0,0.0,-5.2147,-5.0828,-5.0067,-5.0016,-4.9965,-5.0558,-5.1856,-5.1254,-5.1184,-5.169,-5.1022,-5.025,-4.9421,-4.8756,0.0,0.0,0.0,0.0,0.0,-4.7406,-4.7021,-4.6782,-4.5278,-4.4654,-4.4525,-4.3773,-4.3515,-4.3515,0.0,0.0,0.0,0.0,0.0,0.0,0.0,0.0,0.0,0.0,-4.8906,-4.9687,-5.1777,-5.3203,-5.416,0.0,0.0,0.0,0.0,0.0,0.0,0.0,0.0,0.0,-5.3512,-5.5121,-5.6392,-5.7314,-5.8576,-5.9262,-5.9377,-5.8839,-5.8139,-5.7226,-5.5898,-5.4687,0.0,0.0,0.0,0.0,0.0,0.0,0.0,0.0,0.0,0.0,-5.1089,-5.1224,0.0,0.0,0.0,0.0,0.0,0.0,0.0,0.0,-5.0624,-5.0511,-5.0297,0.0,-4.9388,-4.9086,-4.8952,-4.8838,0.0,-4.8618,-4.8545,-4.8343,-4.8306,-4.8508,-4.9169,-4.8893,-4.9481,-5.2176,-5.2002,-5.1945,-5.3203,-5.2611,-5.2401,-5.3382,-5.3501,-5.3501,-5.3501,-5.2942,0.0,0.0,0.0,-5.1217,-5.0642,-5.0287,-4.983,-4.9272,-4.8714,-4.8807,-4.9634,-4.949,-4.9178,-4.8703,-4.8024,-4.7779,-4.7883,-4.7223,0.0,0.0,0.0,0.0,-4.7369,-4.7186,-4.636,-4.5223,-4.4838,-4.4323,-4.3754,-4.357,-4.3515,-4.3515,0.0,0.0,0.0,0.0,0.0,0.0,0.0,0.0,0.0,0.0,0.0,0.0,0.0,0.0,0.0,0.0,0.0,0.0,0.0,0.0,0.0,0.0,0.0,-5.384,-5.3533,-5.5203,-5.6504,-5.7317,-5.8667,-5.936,-5.9385,-5.8997,-5.8265,-5.7246,-5.576,-5.469,0.0,0.0,0.0,0.0,0.0,0.0,0.0,0.0,0.0,0.0,-5.1089,-5.1224,0.0,-5.1208,-5.1128,-5.1078,0.0,0.0,0.0,0.0,-5.0087,-4.9892,-4.894,-4.9183,-4.962,-4.9231,-4.901,-4.8893,-4.8893,-4.8306,-4.7736,-4.7736,-4.7736,-4.7807,-4.7992,-4.8241,-4.8992,-5.0878,-5.0813,-5.0962,-5.2207,-5.2335,-5.2604,-5.3399,-5.3501,-5.3365,0.0,0.0,0.0,0.0,0.0,-5.0524,-5.0101,-4.9779,-4.9407,-4.9018,-4.8261,-4.8238,-4.8872,-4.857,-4.8181,-4.77,-4.7019,-4.6949,-4.7385,-4.671,-4.711,0.0,0.0,0.0,-4.7076,-4.6691,-4.581,-4.4672,-4.4287,-4.3883,-4.3515,-4.3515,-4.3515,-4.3515,0.0,0.0,0.0,0.0,0.0,0.0,0.0,0.0,0.0,0.0,0.0,0.0,0.0,0.0,0.0,0.0,0.0,0.0,0.0,0.0,0.0,0.0,-5.4626,-5.4058,-5.3445,-5.4997,-5.6207,-5.7003,-5.8213,-5.89,-5.905,-5.8803,-5.7935,-5.6521,-5.5555,-5.484,0.0,0.0,0.0,0.0,0.0,0.0,0.0,0.0,0.0,0.0,0.0,0.0,0.0,-5.1172,-5.1089,-5.1042,-5.0782,0.0,0.0,0.0,0.0,0.0,-4.7637,-4.8947,-5.0522,-4.9809,-4.9621,-4.9574,-4.9445,-4.8214,-4.7094,-4.7094,-4.7094,-4.6961,-4.6476,-4.754,-4.8618,-4.8944,-4.8977,-4.9505,-5.098,-5.1637,-5.2266,-5.3061,-5.3162,0.0,-5.2198,0.0,0.0,0.0,0.0,-4.9915,0.0,-4.934,-4.8951,-4.8849,-4.8139,-4.7958,-4.8422,-4.7782,-4.7395,-4.7231,-4.6656,-4.6695,-4.7216,-4.6664,-4.711,0.0,0.0,0.0,-4.6856,-4.6049,-4.5241,-4.4452,-4.3754,-4.3515,-4.3515,-4.3515,-4.3515,-4.3515,0.0,0.0,0.0,0.0,0.0,0.0,0.0,0.0,0.0,0.0,0.0,0.0,0.0,0.0,0.0,0.0,0.0,0.0,0.0,0.0,0.0,-5.6182,-5.5964,-5.544,-5.4501,-5.5668,-5.6515,-5.7003,-5.828,-5.9482,-6.0622,-5.9316,-5.7892,-5.6424,-5.6247,-5.6055,-5.5818,0.0,0.0,0.0,0.0,0.0,0.0,0.0,0.0,0.0,0.0,0.0,0.0,-5.1172,-5.1089,-5.1042,-5.0782,0.0,0.0,0.0,0.0,0.0,-4.8483,-4.9587,-5.0185,-4.8088,-4.8584,-4.9408,-4.8673,-4.7755,-4.7094,-4.7094,-4.7094,-4.7125,-4.7202,-4.7919,-4.8798,-4.9671,-4.9808,-5.0138,-5.1087,-5.0758,-5.071,-5.1471,0.0,-5.1522,0.0,0.0,0.0,0.0,0.0,0.0,0.0,-4.9069,-4.8714,-4.8075,-4.7361,-4.6709,-4.6197,-4.6078,-4.5705,-4.5067,-4.4956,-4.5502,-4.6548,-4.6454,-4.711,0.0,0.0,-4.6819,-4.603,-4.5223,-4.4415,-4.3663,-4.3551,-4.3515,-4.3515,-4.3515,-4.3515,-4.3515,0.0,0.0,0.0,0.0,0.0,0.0,0.0,0.0,0.0,0.0,0.0,0.0,0.0,0.0,0.0,0.0,0.0,0.0,0.0,0.0,0.0,-5.6512,-5.638,-5.5903,-5.5032,-5.6179,-5.6954,-5.7317,-5.8562,-5.9573,-6.0261,-5.8726,-5.7361,-5.623,-5.6163,-5.5883,-5.55,-5.545,-5.5808,0.0,0.0,0.0,0.0,0.0,0.0,0.0,0.0,0.0,0.0,0.0,-5.0315,-5.0886,-4.9682,0.0,0.0,0.0,0.0,0.0,-4.6929,-4.8041,-4.9036,-4.7743,-4.9177,-5.0804,-5.038,-4.8985,-4.7736,-4.7736,-4.7388,-4.6919,-4.6305,-4.7515,-4.8799,-4.9372,-4.9457,-4.9736,-5.0488,-5.0317,-5.0371,0.0,0.0,0.0,0.0,0.0,0.0,0.0,0.0,0.0,0.0,0.0,-4.7665,-4.7327,-4.6583,-4.6041,-4.5703,-4.5297,-4.4953,-4.4598,-4.4934,-4.5545,-4.6407,-4.6407,-4.6932,-4.7761,0.0,-4.6161,-4.538,-4.4894,-4.4232,-4.3515,-4.3515,-4.3515,-4.3515,-4.3515,-4.3515,-4.3515,0.0,0.0,0.0,0.0,0.0,0.0,0.0,0.0,0.0,0.0,0.0,0.0,0.0,0.0,0.0,0.0,0.0,0.0,0.0,0.0,-5.6387,-5.6582,-5.649,-5.6091,-5.5374,-5.6414,-5.7142,-5.7439,-5.8688,-5.9439,-5.9663,-5.851,-5.7392,-5.6349,-5.6257,-5.5784,-5.5126,-5.5644,-5.6058,0.0,0.0,0.0,0.0,0.0,0.0,0.0,0.0,0.0,0.0,0.0,0.0,0.0,0.0,0.0,0.0,-4.7278,-4.6759,-4.6444,-4.5713,-4.6763,-4.8009,-4.7857,-4.9491,-5.1242,-5.1628,-4.9793,-4.8141,-4.8526,-4.7957,-4.7045,-4.5914,-4.7225,-4.8521,-4.8706,-4.89,-4.9204,-4.9763,-4.983,-5.005,-5.0625,-5.0661,0.0,0.0,0.0,0.0,0.0,0.0,0.0,0.0,0.0,-4.6718,-4.6549,-4.5991,-4.5618,-4.5449,-4.4874,-4.4615,-4.4598,-4.5205,-4.5833,-4.6407,-4.6571,-4.6999,-4.756,-4.6561,-4.578,-4.5167,-4.4638,-4.4066,-4.3515,-4.3515,-4.3515,-4.3515,-4.3515,-4.3515,-4.3515,0.0,0.0,0.0,0.0,0.0,0.0,0.0,0.0,0.0,0.0,0.0,0.0,0.0,0.0,0.0,0.0,0.0,0.0,0.0,0.0,-5.5742,-5.6562,-5.6582,-5.6235,-5.5509,-5.6231,-5.6735,-5.6951,-5.8274,-5.9191,-5.9702,-5.9658,-5.8737,-5.7121,-5.7121,-5.6566,-5.5651,-5.5688,-5.5913,-5.6052,-5.4324,0.0,0.0,0.0,0.0,0.0,0.0,0.0,0.0,0.0,0.0,0.0,0.0,0.0,-4.7058,-4.6942,-4.6336,-4.5855,-4.6559,-4.7157,-4.7662,-4.8065,-4.8381,-4.8967,-5.0527,-4.8985,-4.7626,-4.9206,-4.882,-4.8003,-4.7358,-4.7523,-4.781,-4.7971,-4.8562,-4.9018,-4.9069,0.0,-4.9103,-4.9154,0.0,0.0,0.0,0.0,0.0,0.0,0.0,0.0,0.0,0.0,0.0,-4.5805,-4.5737,-4.5365,-4.4699,-4.4632,-4.4615,-4.4598,-4.5205,-4.5833,-4.643,-4.7044,-4.7656,-4.8157,-4.6598,-4.5883,-4.5718,-4.4213,-4.3551,-4.3515,-4.3515,-4.3515,-4.3515,-4.3515,-4.3515,-4.3515,0.0,0.0,0.0,0.0,0.0,0.0,0.0,0.0,0.0,0.0,0.0,0.0,0.0,0.0,0.0,0.0,0.0,0.0,0.0,-5.5,-5.5449,-5.5781,-5.5716,-5.5508,-5.5123,-5.6219,-5.7146,-5.7893,-5.935,-6.0195,-6.0359,-5.9868,-5.8981,-5.7852,-5.7313,-5.6558,-5.5703,-5.5703,-5.5817,-5.5869,-5.4249,0.0,0.0,0.0,0.0,0.0,0.0,0.0,0.0,0.0,-4.7717,-4.8293,-4.7126,-4.682,-4.6797,-4.624,-4.5864,-4.5671,-4.599,-4.6777,-4.7616,-4.8079,-4.8071,-4.8419,-5.0348,-5.0086,-4.9601,-5.0271,-5.0117,-4.9651,-4.8952,-4.7848,-4.7333,-4.8312,-4.8388,-4.8494,-4.8934,-4.9001,-4.9001,0.0,0.0,0.0,0.0,0.0,0.0,0.0,0.0,0.0,0.0,0.0,0.0,-4.501,-4.501,-4.4874,-4.4615,-4.4615,-4.4615,-4.4598,-4.5597,-4.6167,-4.6413,-4.7088,-4.7259,-4.6937,-4.5829,-4.5046,-4.4539,-4.3796,-4.3515,-4.3515,-4.3515,-4.3515,-4.3515,-4.3515,-4.3286,-4.2995,0.0,0.0,0.0,0.0,0.0,0.0,0.0,0.0,0.0,0.0,0.0,0.0,0.0,0.0,0.0,0.0,0.0,0.0,-5.3535,-5.4141,-5.4609,-5.4883,-5.4766,-5.4642,-5.4547,-5.5441,-5.6417,-5.7392,-5.9007,-5.9879,-5.9992,-5.9127,-5.8415,-5.7857,-5.6973,-5.6272,-5.5703,-5.5703,-5.5635,-5.5389,-5.4077,-5.3478,0.0,0.0,0.0,0.0,0.0,0.0,0.0,0.0,-4.6801,-4.7466,-4.6222,-4.6119,-4.6392,-4.5833,-4.5819,-4.6009,-4.6009,-4.6656,-4.7396,-4.7729,-4.7654,-4.7979,-4.993,-5.0398,-5.0511,-5.0819,-5.0657,-5.0144,-4.922,-4.7855,-4.7187,-4.7979,-4.7779,-4.7733,-4.824,-4.8308,0.0,0.0,0.0,0.0,0.0,0.0,0.0,0.0,0.0,0.0,0.0,0.0,0.0,0.0,-4.4615,-4.4615,-4.4615,-4.4786,-4.4879,-4.4906,-4.6136,-4.6594,-4.6413,-4.7029,-4.7003,-4.644,-4.537,-4.4589,-4.4046,-4.365,-4.3515,-4.3515,-4.3515,-4.3515,-4.3515,-4.3515,-4.3268,-4.2958,0.0,0.0,0.0,0.0,0.0,0.0,0.0,0.0,0.0,0.0,0.0,0.0,0.0,0.0,0.0,0.0,0.0,0.0,-5.2617,-5.2676,-5.3066,-5.3945,-5.3868,-5.3801,-5.3801,-5.3801,-5.4207,-5.5011,-5.6771,-5.7857,-5.828,-5.7415,-5.7003,-5.6945,-5.6088,-5.5684,-5.5684,-5.5684,-5.5287,-5.4615,-5.3728,-5.303,-5.2218,0.0,0.0,0.0,0.0,0.0,0.0,0.0,-4.6005,-4.5903,-4.5899,-4.5764,-4.5637,-4.5768,-4.6318,-4.6904,-4.6885,-4.6885,-4.6915,-4.6979,-4.7005,-4.7451,-4.9103,-4.9555,-4.9854,-5.0733,-5.0249,-4.9251,-4.7873,-4.761,-4.7371,-4.6725,-4.6697,-4.6786,-4.6786,0.0,0.0,0.0,0.0,0.0,0.0,0.0,0.0,0.0,0.0,0.0,0.0,0.0,0.0,0.0,-4.4615,-4.4615,-4.4598,-4.5205,-4.5494,-4.5477,-4.6778,-4.7026,-4.6401,-4.688,-4.7094,-4.6984,-4.5388,-4.4691,-4.4635,-4.3828,-4.3515,-4.3515,-4.3515,-4.3497,-4.3479,-4.3479,-4.3497,-4.3479,0.0,0.0,0.0,0.0,0.0,0.0,0.0,0.0,0.0,0.0,0.0,0.0,0.0,0.0,0.0,0.0,0.0,0.0,-5.0918,-5.1465,-5.1894,-5.2168,-5.3122,-5.3665,-5.3665,-5.4167,-5.4861,-5.5773,-5.7425,-5.8273,-5.83,-5.805,-5.7261,-5.6069,-5.5818,-5.5049,-5.3933,-5.3933,-5.3831,-5.359,-5.2801,-5.244,-5.2087,0.0,0.0,0.0,0.0,0.0,0.0,0.0,0.0,0.0,-4.5924,-4.6224,-4.6474,-4.5957,-4.6318,-4.6778,-4.6144,-4.6235,-4.656,-4.6906,-4.7669,-4.8389,-4.8604,-4.9572,-5.0688,-5.1493,-5.0159,-4.8887,-4.8986,-4.7774,-4.6883,-4.7234,-4.6584,-4.621,0.0,0.0,0.0,0.0,0.0,0.0,0.0,0.0,0.0,0.0,0.0,0.0,0.0,0.0,0.0,0.0,-4.4615,-4.4344,-4.3775,-4.4362,-4.4404,-4.3892,-4.5134,-4.5909,-4.628,-4.6842,-4.647,-4.5388,-4.4911,-4.4378,-4.3828,-4.3606,-4.3515,-4.3515,-4.3515,-4.3268,-4.2939,-4.2939,-4.2404,-4.1715,0.0,0.0,0.0,0.0,0.0,0.0,0.0,0.0,0.0,0.0,-5.1546,-5.1988,0.0,0.0,0.0,0.0,0.0,0.0,0.0,-5.0332,-5.0546,-5.0833,-5.1635,-5.2392,-5.3059,-5.4192,-5.5056,-5.5611,-5.6539,-5.684,-5.6563,-5.6725,-5.6148,-5.501,-5.5487,-5.4953,-5.3722,-5.3722,-5.3318,-5.2636,-5.221,-5.1695,-5.1033,0.0,0.0,0.0,0.0,0.0,0.0,0.0,0.0,0.0,-4.5998,-4.6255,-4.6471,-4.5972,-4.635,-4.6846,-4.6465,-4.6551,-4.6925,-4.7584,-4.809,-4.8481,-4.877,-4.9375,-5.0104,-5.0927,-4.9717,-4.8638,-4.9076,-4.7883,-4.687,-4.7085,-4.6283,-4.5704,0.0,0.0,0.0,0.0,0.0,0.0,0.0,0.0,0.0,0.0,0.0,0.0,0.0,0.0,0.0,0.0,-4.4113,-4.3878,-4.332,-4.3725,-4.3791,-4.3569,-4.4329,-4.4887,-4.5312,-4.5879,-4.5608,-4.4673,-4.436,-4.3956,-4.3515,-4.3515,-4.3515,-4.3515,-4.3515,-4.3178,-4.2711,-4.2711,-4.2101,-4.1358,0.0,0.0,0.0,0.0,0.0,0.0,0.0,0.0,0.0,0.0,-5.0972,-5.1237,0.0,0.0,0.0,0.0,0.0,0.0,0.0,0.0,-4.9195,-4.9857,-5.0061,-5.0933,-5.2616,-5.4227,-5.4981,-5.4902,-5.4782,-5.4457,-5.3964,-5.4215,-5.4108,-5.3754,-5.4841,-5.4836,-5.403,-5.403,-5.3087,-5.1538,-5.1538,-5.0726,-4.9378,-4.8512,0.0,0.0,0.0,0.0,0.0,0.0,0.0,0.0,-4.6091,-4.6063,-4.6009,-4.5923,-4.6422,-4.7071,-4.7316,-4.7365,-4.7574,-4.8552,-4.8269,-4.8078,-4.9321,-4.9021,-4.8724,-4.9523,-4.9049,-4.8489,-4.8489,-4.7872,-4.7172,-4.6524,-4.5838,0.0,0.0,0.0,0.0,0.0,0.0,0.0,0.0,0.0,0.0,0.0,0.0,0.0,0.0,0.0,0.0,0.0,-4.3291,-4.3223,-4.3032,-4.3138,-4.3382,0.0,-4.3939,-4.3889,-4.3738,-4.4345,-4.46,-4.4562,-4.3809,-4.3515,-4.3515,-4.3515,-4.3515,-4.3515,-4.3515,-4.3142,-4.2616,-4.2616,-4.2221,-4.1746,0.0,0.0,0.0,0.0,0.0,0.0,0.0,0.0,0.0,0.0,0.0,0.0,0.0,0.0,0.0,0.0,0.0,0.0,0.0,0.0,-4.8921,-4.8977,-5.1425,-5.3584,-5.5316,-5.5822,-5.5682,-5.4893,-5.4866,-5.4684,-5.4348,-5.3441,-5.2771,-5.2329,-5.2269,-5.1598,-5.0491,-5.0491,-4.9894,-4.8933,-4.8933,-4.8786,-4.8475,-4.7609,-4.7256,0.0,0.0,0.0,0.0,0.0,0.0,0.0,-4.6122,-4.6545,-4.6911,-4.6138,-4.6422,-4.6935,-4.6638,-4.6372,-4.6458,-4.7671,-4.8084,-4.842,-4.9391,-4.8942,-4.8587,-4.9429,-4.8936,-4.8331,-4.8331,-4.7824,-4.7172,-4.6524,-4.5408,0.0,0.0,0.0,0.0,0.0,0.0,0.0,0.0,0.0,0.0,0.0,0.0,0.0,0.0,0.0,0.0,-4.254,-4.254,-4.2247,-4.1631,-4.2108,-4.2118,0.0,-4.2071,-4.2303,-4.2287,-4.3518,-4.3961,-4.3736,-4.3588,-4.3515,-4.3515,-4.3515,-4.3515,-4.3515,-4.3515,-4.2884,-4.1979,-4.1979,-4.1348,-4.0618,0.0,0.0,0.0,0.0,0.0,0.0,0.0,0.0,0.0,0.0,0.0,0.0,0.0,0.0,0.0,0.0,0.0,0.0,0.0,-4.8281,-4.8564,-4.9191,-5.1648,-5.3404,-5.4309,-5.4865,-5.4863,-5.429,-5.3862,-5.3336,-5.2736,-5.2831,-5.2552,-5.196,-5.2563,-5.199,-5.0567,-5.0183,-4.9279,-4.8105,-4.8105,-4.7908,-4.7573,-4.714,-4.6783,-4.6482,-4.608,0.0,0.0,0.0,0.0,0.0,0.0,0.0,-4.6752,-4.6084,-4.6163,-4.6455,-4.6325,-4.6341,-4.6623,-4.7707,-4.8145,-4.8416,-4.8875,-4.8324,-4.7846,-4.8306,-4.8049,-4.7718,-4.7718,-4.714,-4.6472,-4.5827,0.0,0.0,0.0,0.0,0.0,0.0,0.0,0.0,0.0,0.0,0.0,0.0,0.0,0.0,0.0,-4.2506,-4.2134,-4.1779,-4.1762,-4.1545,-4.1072,-4.1114,-4.1061,-4.0903,-4.0961,-4.1127,-4.1402,-4.2734,-4.3244,-4.3142,-4.3392,-4.3515,-4.3515,-4.3515,-4.3515,-4.3462,-4.3214,-4.258,-4.175,-4.1468,-4.0821,-4.0254,0.0,0.0,0.0,0.0,0.0,0.0,0.0,0.0,0.0,0.0,0.0,0.0,0.0,0.0,0.0,0.0,0.0,0.0,0.0,-4.7577,-4.8316,-4.9973,-5.137,-5.2173,-5.2334,-5.3161,-5.3456,-5.3176,-5.2265,-5.1539,-5.1024,-5.2207,-5.2399,-5.1842,-5.3225,-5.2837,-5.1113,-5.049,-4.924,-4.7663,-4.7663,-4.7278,-4.6682,-4.6682,-4.6301,-4.5775,-4.579,-4.5906,-4.6059,-4.6082,0.0,0.0,0.0,0.0,-4.6247,-4.6021,-4.5916,-4.5952,-4.6254,-4.6613,-4.7106,-4.7978,-4.8143,-4.8104,-4.8104,-4.7571,-4.7058,-4.6911,-4.6892,-4.6892,-4.6892,-4.6361,-4.5699,0.0,0.0,0.0,0.0,0.0,0.0,0.0,0.0,0.0,0.0,0.0,0.0,0.0,0.0,0.0,-4.21,-4.1982,-4.1627,-4.1035,-4.1018,-4.0916,-4.0756,-4.0336,-4.0336,-4.0756,-4.0311,-4.0336,-4.0803,-4.2018,-4.2596,-4.2713,-4.3178,-4.3375,-4.3375,-4.3462,-4.3444,-4.3339,-4.2976,-4.2422,-4.175,-4.1358,-4.0744,-4.0279,0.0,0.0,0.0,0.0,0.0,0.0,0.0,0.0,0.0,0.0,-5.0712,-5.0429,-4.9702,-4.9732,0.0,0.0,0.0,0.0,-4.7598,0.0,0.0,-5.0904,-5.1222,-5.1693,-5.2467,-5.2656,-5.2328,-5.1425,-5.0434,-5.0587,-5.1737,-5.1257,-5.0988,-5.0885,-5.1101,-5.0054,-4.8109,-4.8346,-4.7471,-4.5941,-4.5941,-4.5864,-4.5768,-4.5768,-4.5708,-4.5643,-4.5761,-4.5828,-4.5867,-4.605,-4.6115,0.0,0.0,0.0,-4.6268,-4.6117,-4.5988,-4.5973,-4.6378,-4.6481,-4.6696,-4.7568,-4.7534,-4.7259,-4.7259,-4.7186,-4.6892,-4.6214,-4.6067,-4.6067,-4.6067,-4.5975,-4.5699,0.0,0.0,0.0,0.0,0.0,0.0,0.0,0.0,0.0,0.0,0.0,0.0,0.0,0.0,0.0,-4.1356,-4.0756,-4.035,-4.0265,-4.0248,-4.0222,-4.0204,-4.0146,-4.0146,-4.0204,-4.0146,-4.0146,-4.0254,-4.1397,-4.2221,-4.2693,-4.2788,-4.2807,-4.2845,-4.3322,-4.3232,-4.2845,-4.3232,-4.2734,-4.1853,-4.2302,-4.1459,-4.0353,0.0,0.0,0.0,0.0,0.0,0.0,0.0,0.0,0.0,0.0,0.0,-5.0263,-4.911,-4.904,0.0,0.0,0.0,0.0,-4.7578,-4.7535,0.0,0.0,-4.9861,-5.0058,-5.0357,-5.0468,-5.0266,-4.976,-4.925,-5.0143,-5.2336,-5.1679,-5.1751,-5.2417,-5.2193,-5.0808,-4.8585,-4.8003,-4.6825,-4.5332,-4.5522,-4.5893,-4.6278,-4.5787,-4.5893,-4.6277,-4.5838,-4.5733,-4.5815,-4.5959,-4.6039,-4.6119,-4.6268,0.0,0.0,0.0,-4.6018,-4.5977,-4.6291,-4.6368,-4.644,-4.6856,-4.6836,-4.6648,-4.6471,-4.6085,-4.5699,-4.5554,-4.516,-4.491,-4.5167,-4.501,-4.4695,0.0,0.0,0.0,0.0,0.0,0.0,0.0,0.0,0.0,0.0,0.0,0.0,0.0,0.0,-4.0578,-4.0578,-4.0282,-4.0096,-4.0096,-4.0096,-4.0096,-4.0096,-4.0096,-4.0096,-4.0096,-4.0096,-4.0096,-4.0121,-4.0618,-4.1331,-4.2223,-4.2865,-4.316,-4.3142,-4.3069,-4.292,-4.2655,-4.2226,-4.1943,-4.1789,-4.1707,-4.1218,-4.075,0.0,0.0,0.0,0.0,0.0,0.0,0.0,0.0,0.0,0.0,0.0,-4.9875,-4.8602,0.0,0.0,0.0,0.0,0.0,-4.7226,0.0,0.0,0.0,0.0,-4.8513,-4.841,-4.8496,-4.8465,-4.8367,-4.8016,-4.9511,-5.2694,-5.206,-5.2604,-5.4075,-5.3592,-5.1863,-4.9262,-4.8155,-4.6918,-4.5707,-4.5764,-4.6224,-4.6855,-4.6413,-4.6644,-4.7086,-4.624,-4.5984,-4.6065,-4.5922,-4.5931,-4.605,-4.6168,-4.6063,0.0,0.0,0.0,-4.5292,-4.5457,-4.5568,-4.5741,-4.597,-4.6081,-4.6027,-4.5782,-4.5184,-4.474,-4.4872,-4.4502,-4.4263,-4.4603,-4.4289,-4.3909,0.0,0.0,0.0,0.0,0.0,0.0,0.0,0.0,0.0,0.0,0.0,0.0,0.0,0.0,-4.0096,-4.0096,-4.0096,-4.0096,-4.0096,-4.0096,-4.0096,-4.0096,-4.0096,-4.0096,-4.0096,-4.0096,-4.0096,-4.0096,-4.0254,-4.0767,-4.1621,-4.2485,-4.2847,-4.2829,-4.256,-4.2382,-4.2162,-4.1424,-4.1313,-4.1556,-4.1424,-4.1178,-4.1087,0.0,0.0,0.0,0.0,0.0,0.0,0.0,0.0,0.0,0.0,0.0,0.0,-4.8401,-4.8427,-4.7856,-4.6243,0.0,0.0,0.0,0.0,0.0,0.0,0.0,0.0,-4.7656,-4.7544,-4.7476,-4.747,-4.6516,-4.8315,-5.2672,-5.1826,-5.2677,-5.4894,-5.4131,-5.1971,-4.8895,-4.8367,-4.7869,-4.7315,-4.6557,-4.6529,-4.6981,-4.7702,-4.8009,-4.7932,-4.7124,-4.6836,-4.6735,-4.6039,-4.5822,-4.5834,-4.59,-4.5394,-4.4795,0.0,0.0,0.0,-4.3304,-4.358,-4.4111,-4.4874,-4.516,-4.5267,-4.5236,-4.4947,-4.4574,-4.4147,-4.4327,-4.4572,-4.4597,-4.427,0.0,0.0,0.0,0.0,0.0,0.0,0.0,0.0,0.0,0.0,0.0,0.0,0.0,0.0,0.0,-4.0096,-4.0096,-4.0096,-4.0096,-4.0096,-4.0096,-4.0096,-4.0096,-4.0096,-4.0096,-4.0096,-4.0096,-4.0096,-4.0121,-4.0625,-4.088,-4.0949,-4.1018,-4.1041,-4.1087,-4.1621,-4.1512,-4.1041,-4.1556,-4.1424,-4.1087,-4.2183,-4.1874,-4.1138,0.0,0.0,0.0,0.0,0.0,0.0,0.0,0.0,0.0,0.0,0.0,0.0,0.0,-4.7592,-4.7241,-4.6182,-4.6224,0.0,0.0,0.0,0.0,0.0,0.0,0.0,-4.6777,-4.6716,-4.6693,-4.6693,-4.6243,-4.7659,-5.078,-5.0635,-5.1322,-5.2677,-5.24,-5.1176,-4.9215,-4.7159,-4.6337,-4.6398,-4.6332,-4.6844,-4.7702,-4.799,-4.8452,-4.8759,-4.7394,-4.6904,-4.6795,-4.6044,-4.5803,-4.5712,-4.5264,-4.4934,-4.458,-4.3957,-4.3933,-4.3961,-4.3281,-4.3602,-4.4145,-4.4202,-4.4277,-4.4399,-4.4734,-4.4711,-4.465,-4.4695,-4.4818,-4.4977,-4.5192,-4.4947,0.0,0.0,0.0,0.0,0.0,0.0,0.0,0.0,0.0,0.0,0.0,0.0,0.0,0.0,0.0,0.0,-4.0096,-4.0096,-4.0096,-4.0096,-4.0096,-4.0096,-4.0096,-4.0096,-4.0096,-4.0096,-4.0096,-4.0096,-4.0113,-4.0311,-4.0392,-4.0392,-4.0392,-4.0797,-4.1468,-4.1273,-4.111,-4.088,-4.0767,-4.0797,-4.0949,-4.138,-4.1512,-4.1621,0.0,0.0,0.0,0.0,0.0,0.0,0.0,0.0,-4.951,-4.9798,0.0,0.0,0.0,0.0,-4.7233,-4.6245,-4.6247,-4.6308,-4.6308,-4.6308,0.0,0.0,0.0,0.0,-4.6308,-4.6308,-4.6308,-4.6308,-4.6202,-4.7253,-4.937,-4.95,-5.0087,-5.0975,-5.0383,-4.9984,-4.9621,-4.7252,-4.6326,-4.6477,-4.6828,-4.7182,-4.7607,-4.8596,-4.8971,-4.8817,-4.7702,-4.7135,-4.6777,-4.6009,-4.5725,-4.5592,-4.4806,-4.4213,-4.3602,-4.2602,-4.2738,-4.3073,-4.2418,-4.2835,-4.3485,-4.3551,-4.3451,-4.3602,-4.4559,-4.4462,-4.4342,-4.4984,-4.5096,-4.5201,-4.555,-4.5419,0.0,0.0,0.0,0.0,0.0,0.0,0.0,0.0,0.0,0.0,0.0,0.0,0.0,0.0,0.0,0.0,-4.0096,-4.0096,-4.0096,-4.0096,-4.0096,-4.0096,-4.0096,-4.0096,-4.0096,-4.0096,-4.0096,-4.0096,-4.0096,-4.0096,-4.0096,-4.0096,-4.0096,-4.0538,-4.1196,-4.0797,-4.0631,-4.0601,-4.0254,-4.0311,-4.0655,-4.0833,-4.1291,-4.1895,0.0,0.0,0.0,0.0,0.0,0.0,0.0,0.0,-4.9702,-5.0558,0.0,0.0,0.0,0.0,0.0,-4.6464,-4.6348,-4.6328,-4.6308,-4.6308,0.0,0.0,0.0,0.0,-4.6308,-4.6308,-4.6308,-4.6308,-4.6308,-4.7101,-4.8627,-4.8518,-4.9045,-5.0027,-4.8329,-4.8491,-4.9942,-4.8698,-4.7978,-4.7702,-4.8092,-4.7498,-4.6697,-4.9556,-4.9625,-4.8182,-4.8144,-4.7644,-4.6836,-4.5932,-4.5633,-4.5479,-4.4547,-4.3219,-4.1803,-4.0781,-4.0621,-4.0732,0.0,0.0,0.0,-4.2854,-4.2775,-4.2923,-4.465,-4.4128,-4.3623,-4.4843,-4.5069,-4.5173,-4.5531,-4.5594,0.0,0.0,0.0,0.0,0.0,0.0,0.0,0.0,0.0,0.0,0.0,0.0,0.0,0.0,0.0,-4.0096,-4.0096,-4.0096,-4.0096,-4.0096,-4.0096,-4.0096,-4.0096,-4.0096,-4.0096,-4.0096,-4.0096,-4.0096,-4.0096,-4.0096,-4.0096,-4.0096,-4.0096,-4.0096,-4.0096,-4.0096,-4.0096,-4.0096,-4.0096,-4.0096,-4.0171,-4.0679,-4.1268,-4.1895,0.0,0.0,0.0,0.0,0.0,-5.3203,-5.3203,-5.1048,-4.949,0.0,0.0,0.0,-4.7358,-4.7442,-4.7463,-4.7265,-4.7246,-4.6973,-4.6348,-4.6308,-4.6308,-4.6308,-4.6308,-4.6308,-4.6308,-4.6308,-4.6308,-4.6308,-4.6308,-4.6479,-4.6826,-4.7323,-4.7672,-4.787,-4.7373,-4.7432,-4.7736,-4.5938,-4.5979,-4.716,-4.6684,-4.7324,-4.8634,-4.9452,-4.9856,-4.9894,-4.926,-4.8894,-4.849,-4.7028,-4.6547,-4.6182,-4.4085,-4.2722,-4.1674,-4.0762,-4.1413,-4.2156,-4.0858,0.0,0.0,0.0,0.0,0.0,0.0,0.0,-4.3417,-4.4335,-4.4526,-4.4737,-4.5462,-4.5594,0.0,0.0,0.0,0.0,0.0,0.0,0.0,0.0,0.0,0.0,0.0,0.0,0.0,0.0,-4.0096,-4.0096,-4.0096,-4.0096,-4.0096,-4.0096,-4.0096,-4.0096,-4.0096,-4.0096,-4.0096,-4.0096,-4.0096,-4.0096,-4.0096,-4.0096,-4.0096,-4.0096,-4.0096,-4.0096,-4.0096,-4.0096,-4.0096,-4.0096,-4.0096,-4.0096,-4.0121,-4.0279,-4.0938,-4.1814,0.0,0.0,0.0,-5.5717,-5.4607,-5.3741,-5.3741,-5.1856,-5.0452,0.0,0.0,0.0,-4.8114,-4.8172,-4.8089,-4.7566,-4.7577,-4.7226,-4.6367,-4.6308,-4.6308,-4.6308,-4.6308,-4.6308,-4.6308,-4.6308,-4.6308,-4.6308,-4.6308,-4.6268,-4.6195,-4.6511,-4.6615,-4.6531,-4.6303,-4.6126,-4.5925,-4.4572,-4.4792,-4.6093,-4.6619,-4.7271,-4.8062,-4.9412,-4.9798,-4.9606,-4.9452,-4.8952,-4.8221,-4.724,-4.6432,-4.5509,-4.3662,-4.2758,-4.2181,-4.1296,-4.1758,-4.2335,-4.1316,-4.1508,-4.197,-4.1835,0.0,0.0,-4.2816,-4.2816,-4.2797,0.0,-4.3824,-4.4087,-4.491,-4.5104,0.0,0.0,0.0,0.0,0.0,0.0,0.0,0.0,0.0,0.0,0.0,0.0,0.0,-4.0096,-4.0096,-4.0096,-4.0096,-4.0096,-4.0096,-4.0096,-4.0096,-4.0096,-4.0096,-4.0096,-4.0096,-4.0096,-4.0096,-4.0096,-4.0096,-4.0096,-4.0096,-4.0096,-4.0096,-4.0096,-4.0096,-4.0096,-4.0096,-4.0096,-4.0096,-4.0096,-4.0096,-4.0096,-4.0648,-4.1468,0.0,0.0,-5.5868,-5.5717,-5.503,-5.4491,-5.4491,-5.3106,-5.2038,0.0,-5.1337,-5.0623,-5.007,-4.9969,-4.9365,-4.795,-4.7763,-4.7363,-4.6504,-4.6348,-4.6289,-4.6289,-4.6289,-4.6289,-4.6289,-4.6289,-4.6289,-4.6308,-4.6308,-4.6289,-4.6269,-4.6027,-4.5885,-4.5803,-4.5284,-4.4842,-4.4514,-4.4121,-4.4182,-4.4778,-4.7099,-4.7276,-4.6474,-4.9435,-4.9586,-4.8355,-4.9125,-4.8375,-4.7019,-4.6923,-4.5817,-4.4297,-4.3489,-4.3239,-4.3066,-4.22,-4.2,-4.2058,-4.1962,-4.1431,-4.1054,-4.1662,-4.1296,0.0,-4.2489,-4.2297,-4.2008,0.0,-4.3023,-4.3305,-4.4068,0.0,0.0,0.0,0.0,0.0,0.0,0.0,0.0,0.0,0.0,0.0,0.0,-4.0096,-4.0096,-4.0096,-4.0096,-4.0096,-4.0096,-4.0096,-4.0096,-4.0096,-4.0096,-4.0096,-4.0096,-4.0096,-4.0096,-4.0096,-4.0096,-4.0096,-4.0096,-4.0096,-4.0096,-4.0096,-4.0096,-4.0096,-4.0096,-4.0096,-4.0096,-4.0096,-4.0096,-4.0096,-4.0096,-4.0096,-4.0424,-4.0972,0.0,-5.5798,-5.5868,-5.5717,-5.503,-5.4491,-5.4491,-5.3626,-5.2953,-5.2953,-5.2202,-5.1934,-5.2601,-5.148,-5.0625,-5.0477,-4.9254,-4.8167,-4.7402,-4.6699,-4.6247,-4.6145,-4.6144,-4.6144,-4.6144,-4.6144,-4.6199,-4.6308,-4.6308,-4.6247,-4.6142,-4.5978,-4.5725,-4.5406,-4.4897,-4.4468,-4.4087,-4.3742,-4.3638,-4.3877,-4.5602,-4.7081,-4.8391,-4.9305,-4.9433,-4.9163,-4.9336,-4.874,-4.7778,-4.7115,-4.6201,-4.521,-4.4335,-4.4066,-4.3912,-4.3085,-4.3297,-4.3662,-4.3028,-4.3181,-4.3278,-4.2085,-4.22,0.0,-4.1247,-4.1412,-4.1875,0.0,-4.2222,-4.2503,-4.3402,-4.3593,0.0,0.0,0.0,0.0,0.0,0.0,0.0,0.0,0.0,0.0,0.0,-4.0096,-4.0096,-4.0096,-4.0096,-4.0096,-4.0096,-4.0096,-4.0096,-4.0096,-4.0096,-4.0096,-4.0096,-4.0096,-4.0096,-4.0096,-4.0096,-4.0096,-4.0096,-4.0096,-4.0096,-4.0096,-4.0096,-4.0096,-4.0096,-4.0096,-4.0096,-4.0096,-4.0096,-4.0096,-4.0096,-4.0096,-4.0424,-4.0926,-5.4495,-5.4919,-5.5258,-5.512,-5.4761,-5.4645,-5.503,-5.4395,-5.3857,-5.3857,-5.3472,-5.306,-5.2701,-5.2348,-5.167,-5.05,-4.9763,-4.8799,-4.7494,-4.705,-4.6594,-4.604,-4.5995,-4.5995,-4.5995,-4.6072,-4.6122,-4.62,-4.6268,-4.6225,-4.6108,-4.5951,-4.5697,-4.5271,-4.4813,-4.4392,-4.3986,-4.3646,-4.3515,-4.3657,-4.5654,-4.7066,-4.8099,-4.9044,-4.9394,-4.9336,-4.8913,-4.8221,-4.7375,-4.6528,-4.5951,-4.546,-4.4566,-4.4605,-4.4778,-4.3932,-4.397,-4.4201,-4.3816,-4.3701,-4.3508,-4.2662,-4.245,0.0,0.0,-4.1143,-4.1174,-4.1231,-4.1329,-4.1674,-4.2548,0.0,0.0,0.0,0.0,0.0,0.0,0.0,0.0,0.0,0.0,0.0,0.0,-4.0497,-4.0392,-4.0121,-4.0096,-4.0096,-4.0096,-4.0096,-4.0096,-4.0096,-4.0096,-4.0096,-4.0096,-4.0096,-4.0096,-4.0096,-4.0096,-4.0096,-4.0096,-4.0096,-3.991,-3.9554,-3.9554,-3.9326,-3.8988,-3.8988,-3.8988,-3.9039,-3.9419,-3.9326,-3.8988,-3.8988,-3.9173,-3.9431,-5.332,-5.384,-5.4383,-5.4263,-5.4314,-5.46,-5.5357,-5.4987,-5.4639,-5.4722,-5.4722,-5.4203,-5.2788,-5.3231,-5.2867,-5.0975,-5.0418,-4.9586,-4.8268,-4.7671,-4.7051,-4.6392,-4.6056,-4.594,-4.6115,-4.6089,-4.6077,-4.6108,-4.6226,-4.6223,-4.605,-4.594,-4.5641,-4.516,-4.4773,-4.435,-4.3896,-4.3612,-4.3515,-4.3693,-4.5896,-4.6792,-4.7021,-4.8499,-4.8991,-4.8798,-4.7932,-4.7201,-4.6547,-4.5845,-4.5559,-4.5398,-4.475,-4.4982,-4.5378,-4.475,-4.4547,-4.4547,-4.4547,-4.4085,-4.3508,-4.3181,-4.2701,-4.2162,0.0,0.0,0.0,-4.0561,-4.0679,0.0,0.0,0.0,0.0,0.0,0.0,0.0,0.0,0.0,0.0,0.0,0.0,0.0,0.0,-4.0972,-4.0709,-4.0286,-4.0171,-4.0096,-4.0096,-4.0096,-4.0096,-4.0096,-4.0096,-4.0096,-4.0096,-4.0096,-4.0096,-4.0096,-3.996,-3.9893,-3.9893,-3.974,-3.9368,-3.8785,-3.8785,-3.8447,-3.7905,-3.7905,-3.7821,-3.777,-3.8497,-3.843,-3.7905,-3.7905,-3.7905,-3.796,-5.3068,-5.3281,-5.3378,-5.3337,-5.3637,-5.4058,-5.4564,-5.4863,-5.516,-5.5517,-5.5549,-5.5491,-5.528,-5.4734,-5.4583,-5.5139,-5.2434,-5.1005,-5.1686,-4.8895,-4.7451,-4.8005,-4.6597,-4.6151,-4.6862,-4.6241,-4.5981,-4.6108,-4.6226,-4.6173,-4.592,-4.5907,-4.5448,-4.4688,-4.4631,-4.4209,-4.3546,-4.3513,-4.3515,-4.3604,-4.4944,-4.5687,-4.608,-4.7338,-4.7545,-4.7067,-4.6201,-4.5825,-4.5729,0.0,-4.541,-4.5192,-4.5389,-4.5323,-4.5192,-4.5398,-4.546,-4.546,-4.546,-4.5383,-4.496,-4.347,-4.3566,-4.3412,-4.117,0.0,-4.1478,-4.0817,0.0,0.0,0.0,0.0,0.0,0.0,0.0,0.0,0.0,0.0,0.0,0.0,0.0,0.0,0.0,0.0,-4.088,-4.081,-4.0368,-4.0096,-4.0096,-4.0096,-4.0096,-4.0096,-4.0096,-4.0096,-4.0096,-4.0096,-4.0096,-4.0096,-3.9453,-3.9106,-3.9089,-3.8447,-3.8108,-3.8024,-3.8024,-3.799,-3.7905,-3.7905,-3.7499,-3.7015,-3.7736,-3.7973,-3.7905,-3.7905,-3.7905,-3.7905,-5.1683,-5.2125,-5.2442,-5.2442,-5.2598,-5.2938,-5.3643,-5.4326,-5.4983,-5.5615,-5.5703,-5.5703,-5.5703,-5.5395,-5.5168,-5.5085,-5.3851,-5.2574,-5.1447,-5.0098,-4.9,-4.8216,-4.705,-4.6606,-4.6934,-4.6222,-4.5875,-4.593,-4.6018,-4.5994,-4.5842,-4.5842,-4.5412,-4.4593,-4.4593,-4.4198,-4.3515,-4.3515,-4.3515,-4.355,-4.4048,-4.4463,-4.489,-4.6113,-4.6143,-4.5529,-4.5376,-4.5171,-4.5044,0.0,-4.5085,0.0,0.0,-4.4931,-4.4849,-4.4977,-4.5022,-4.5055,-4.5253,-4.5312,-4.5064,0.0,0.0,0.0,-4.1604,0.0,-4.0954,0.0,0.0,0.0,0.0,0.0,0.0,0.0,-4.1734,0.0,0.0,0.0,0.0,0.0,0.0,0.0,0.0,0.0,0.0,0.0,0.0,-4.0096,-4.0096,-4.0096,-4.0096,-4.0096,-4.0096,-4.0096,-4.0096,-4.0096,-3.9893,-3.9469,-3.914,-3.8768,-3.8345,-3.8041,-3.7669,-3.7246,-3.7246,-3.6992,-3.6563,-3.6563,-3.6383,-3.6129,-3.6428,-3.6563,-3.6563,-3.6563,-3.6563,-3.6563,-5.0712,-5.1164,-5.1568,-5.1568,-5.165,-5.2097,-5.319,-5.4015,-5.478,-5.5588,-5.5703,-5.578,-5.603,-5.6049,-5.6011,-5.5876,-5.5326,-5.4254,-5.2539,-5.1427,-5.0353,-4.9183,-4.7904,-4.7231,-4.7231,-4.651,-4.6028,-4.5803,-4.5876,-4.5876,-4.5803,-4.5803,-4.5376,-4.4593,-4.4593,-4.431,-4.3828,-4.3828,-4.3956,-4.414,-4.392,-4.3848,-4.3983,-4.5059,-4.5102,-4.4618,-4.4884,-4.4812,-4.465,-4.4884,-4.4732,0.0,-4.4585,0.0,-4.446,-4.4567,-4.4593,-4.4644,-4.4896,0.0,0.0,0.0,0.0,0.0,0.0,0.0,0.0,0.0,0.0,0.0,0.0,0.0,-4.167,-4.1519,0.0,-4.1532,0.0,0.0,0.0,0.0,0.0,0.0,0.0,0.0,0.0,0.0,0.0,0.0,-4.0096,-4.0096,-4.0096,-4.0096,-4.0096,-4.0096,-4.0096,-3.991,-3.9537,-3.8988,-3.8582,-3.8108,-3.7584,-3.7381,-3.6992,-3.6468,-3.6468,-3.6146,-3.56,-3.56,-3.56,-3.56,-3.56,-3.56,-3.56,-3.56,-3.56,-3.56,-5.0712,-5.0731,-5.075,-5.075,-5.1055,-5.1872,-5.3525,-5.4189,-5.478,-5.5588,-5.5703,-5.6011,-5.6868,-5.6964,-5.7599,-5.9204,-5.7099,-5.5983,-5.675,-5.2963,-5.102,-5.175,-4.9385,-4.8067,-4.8067,-4.7353,-4.6583,-4.5803,-4.5876,-4.5876,-4.5803,-4.5803,-4.5376,-4.4593,-4.4593,-4.4614,-4.4672,-4.4672,-4.5112,-4.5755,-4.4984,-4.4195,-4.3615,0.0,-4.463,-4.4593,-4.4606,0.0,0.0,-4.4606,-4.4346,0.0,0.0,0.0,0.0,0.0,0.0,0.0,0.0,0.0,0.0,-4.2906,0.0,0.0,0.0,0.0,-4.175,0.0,0.0,0.0,0.0,-4.3425,-4.3238,-4.2405,-4.2971,0.0,0.0,0.0,0.0,0.0,0.0,0.0,0.0,0.0,0.0,0.0,0.0,0.0,-4.0121,-4.0096,-4.0096,-4.0096,-4.0096,-4.0096,-4.0096,-3.9402,-3.9005,-3.8971,-3.7557,-3.6863,-3.6812,-3.6045,-3.565,-3.5633,-3.5633,-3.5616,-3.56,-3.56,-3.56,-3.56,-3.56,-3.56,-3.56,-3.56,-3.56,-3.56,-5.0712,-5.0712,-5.0712,-5.0712,-5.0824,-5.1461,-5.3149,-5.3063,-5.3683,-5.6233,-5.6049,-5.6453,-5.8434,-5.8646,-5.8877,-5.9454,-5.8704,-5.7627,-5.6222,-5.4799,-5.3645,-5.2799,-5.0875,-4.9817,-4.9817,-4.7927,-4.6794,-4.6524,-4.5966,-4.5696,-4.5665,-4.5665,-4.5294,-4.4593,-4.4593,-4.4348,-4.3938,-4.447,-4.4544,-4.4287,-4.4011,-4.3736,-4.3531,0.0,0.0,-4.3899,-4.4121,-4.4046,0.0,-4.4136,-4.3974,-4.3677,-4.3839,-4.3775,-4.3712,-4.382,-4.3868,0.0,0.0,0.0,-4.4013,-4.3227,0.0,0.0,0.0,0.0,0.0,0.0,0.0,0.0,0.0,-4.3291,-4.3267,-4.307,-4.2758,-4.2311,0.0,0.0,0.0,0.0,0.0,0.0,0.0,0.0,0.0,0.0,0.0,0.0,0.0,-4.0096,-4.0096,-4.0096,-3.9639,-3.9385,-3.9385,-3.8633,-3.8024,-3.7557,-3.7049,-3.6502,-3.6011,-3.5718,-3.56,-3.56,-3.56,-3.56,-3.56,-3.56,-3.56,-3.56,-3.56,-3.56,-3.56,-3.56,-3.56,-3.56,-5.077,-5.0712,-5.0644,-5.0504,-5.0713,-5.1427,-5.297,-5.3241,-5.4145,-5.6676,-5.678,-5.7293,-5.9057,-5.9403,-5.9561,-5.969,-5.9576,-5.8684,-5.6742,-5.603,-5.5088,-5.3722,-5.2337,-5.1298,-5.0712,-4.9086,-4.7817,-4.6904,-4.6336,-4.5893,-4.5594,-4.5594,-4.5243,-4.4593,-4.4593,-4.4348,-4.3975,-4.48,-4.4837,-4.4323,-4.403,-4.3754,0.0,0.0,-4.3515,-4.3531,0.0,-4.3677,-4.3531,-4.3758,-4.3695,-4.3515,-4.3515,-4.3515,-4.3515,-4.3515,-4.3515,-4.3548,-4.3756,-4.3836,0.0,-4.3236,-4.2643,0.0,-4.1642,0.0,0.0,0.0,0.0,0.0,0.0,-4.366,-4.3497,-4.2971,-4.2394,-4.1886,0.0,-4.14,0.0,0.0,0.0,0.0,0.0,0.0,-4.2809,-4.208,0.0,0.0,0.0,0.0,-4.0096,-4.0096,-3.9377,-3.8988,-3.8988,-3.8007,-3.7263,-3.6795,-3.6524,-3.6096,-3.56,-3.56,-3.56,-3.56,-3.56,-3.56,-3.56,-3.56,-3.56,-3.56,-3.56,-3.56,-3.56,-3.56,-3.56,-3.56,-5.0797,-5.0663,-5.057,-5.0193,-5.076,-5.1682,-5.2967,-5.4528,-5.5885,-5.6846,-5.772,-5.8417,-5.8787,-5.923,-5.9651,-6.0041,-5.9735,-5.9181,-5.8316,-5.6731,-5.5453,-5.4607,-5.3722,-5.2529,-5.0923,-5.077,-4.951,-4.7077,-4.6962,-4.649,-4.5671,-4.5614,-4.5243,-4.4593,-4.4593,-4.4614,-4.469,-4.5498,-4.5847,-4.5773,-4.4966,-4.4176,-4.3515,-4.3515,0.0,-4.3515,-4.3515,-4.3515,-4.3515,-4.3515,-4.3515,-4.3515,-4.3515,-4.3515,-4.3515,-4.3515,-4.3515,-4.3515,-4.3515,-4.3478,-4.3324,-4.2885,0.0,0.0,0.0,0.0,-4.2742,0.0,0.0,0.0,0.0,0.0,-4.3911,-4.2311,-4.2026,-4.1641,-4.0642,0.0,0.0,0.0,0.0,0.0,-4.4047,-4.2895,-4.2502,-4.3491,-4.174,-4.0699,0.0,0.0,0.0,-4.0096,-3.9368,-3.8937,-3.8937,-3.7489,-3.6745,-3.6745,-3.5977,-3.56,-3.56,-3.56,-3.56,-3.56,-3.56,-3.56,-3.56,-3.56,-3.56,-3.56,-3.56,-3.56,-3.56,-3.56,-3.56,-3.56,-4.9971,-5.0038,-5.0323,-5.0496,-5.0468,-5.0937,-5.2518,-5.3128,-5.4134,-5.6199,-5.725,-5.8163,-5.9136,-5.9355,-5.9482,-5.9576,-5.9801,-5.9327,-5.7881,-5.768,-5.6953,-5.5453,-5.4607,-5.3953,-5.353,-5.1674,-5.0385,-4.9721,-4.7836,-4.6797,-4.6547,-4.5893,-4.5243,-4.4593,-4.4593,-4.431,-4.3864,-4.4672,-4.5021,-4.4947,-4.4121,-4.3681,0.0,0.0,-4.3515,-4.3515,-4.3515,-4.3515,-4.3515,-4.3515,-4.3515,-4.3515,-4.3515,-4.3515,-4.3515,-4.3515,-4.3515,-4.3515,-4.3515,-4.3057,-4.2578,-4.2456,-4.1511,-4.0645,0.0,0.0,0.0,0.0,0.0,0.0,0.0,0.0,0.0,-4.2884,-4.2267,-4.1532,-4.0639,-4.0496,0.0,-4.1393,0.0,0.0,0.0,-4.1857,-4.2019,-4.1864,-4.107,0.0,0.0,0.0,0.0,-4.0096,-3.8853,-3.8176,-3.8176,-3.6671,-3.591,-3.591,-3.5701,-3.56,-3.56,-3.56,-3.56,-3.56,-3.56,-3.56,-3.56,-3.56,-3.56,-3.56,-3.56,-3.56,-3.56,-3.56,-3.56,-3.56,-5.0262,-5.0498,-5.1012,-5.1417,-5.1287,-5.1649,-5.3168,-5.3395,-5.405,-5.5821,-5.6808,-5.7526,-5.7992,-5.8869,-5.932,-5.9121,-5.9509,-5.9071,-5.7404,-5.7549,-5.6948,-5.5249,-5.4734,-5.4396,-5.4196,-5.2452,-5.1272,-5.0712,-4.8509,-4.7231,-4.6885,-4.586,-4.5107,-4.458,-4.4419,-4.4035,-4.3533,-4.3975,-4.4378,-4.4635,-4.3809,-4.3515,0.0,-4.3515,-4.3515,-4.3515,-4.3515,-4.3515,-4.3515,-4.3515,-4.3515,-4.3515,-4.3515,-4.3515,-4.3515,-4.3515,-4.3515,-4.3515,-4.3515,-4.291,-4.2304,-4.2304,-4.1214,-4.0204,-4.0574,-4.0663,-4.0835,0.0,0.0,0.0,0.0,0.0,0.0,-4.1992,-4.1546,-4.1066,-4.0573,-4.0496,-4.0689,0.0,-4.0804,0.0,0.0,0.0,-4.1174,-4.156,0.0,0.0,0.0,0.0,0.0,-3.9639,-3.8497,-3.7753,-3.7415,-3.6214,-3.56,-3.56,-3.56,-3.56,-3.56,-3.56,-3.56,-3.5583,-3.5267,-3.5295,-3.5566,-3.5245,-3.5318,-3.56,-3.56,-3.56,-3.56,-3.56,-3.56,-3.56,-5.1021,-5.1453,-5.2148,-5.24,-5.2624,-5.3162,-5.4373,-5.4672,-5.4983,-5.5682,-5.6623,-5.7052,-5.6571,-5.8128,-5.9047,-5.8634,-5.9028,-5.8605,-5.693,-5.6868,-5.6166,-5.4578,-5.4503,-5.43,-5.3889,-5.3034,-5.2007,-5.0787,-4.8942,-4.7616,-4.68,-4.5602,-4.4861,-4.4514,-4.4146,-4.382,-4.3515,-4.3515,-4.3901,-4.4488,-4.3773,-4.3515,-4.3515,-4.3515,-4.3515,-4.3515,-4.3515,-4.3515,-4.3515,-4.3515,-4.3515,-4.3515,-4.3515,-4.3515,-4.3515,-4.3515,-4.3515,-4.3515,-4.3515,-4.2837,-4.2139,-4.2139,-4.0928,-3.9918,-4.0618,-4.047,-4.0393,-4.112,-4.149,0.0,0.0,0.0,0.0,-4.0513,-4.0457,-4.0465,-4.0489,-4.0593,-4.0669,-4.0669,0.0,0.0,0.0,0.0,0.0,0.0,0.0,0.0,0.0,0.0,0.0,0.0,-3.8142,0.0,-3.6812,0.0,-3.56,-3.56,-3.56,-3.56,-3.56,-3.56,-3.56,-3.5566,-3.4928,-3.5013,-3.5549,-3.4912,-3.503,-3.56,-3.56,-3.5554,-3.547,-3.547,-3.5407,-3.5362,-5.0967,-5.1963,-5.279,-5.2195,-5.3205,-5.4367,-5.5265,-5.5728,-5.6033,-5.6107,-5.7432,-5.8224,-5.7744,-5.8024,-5.8213,-5.8142,-5.8549,-5.8125,-5.6443,-5.6678,-5.6166,-5.4578,-5.4503,-5.4459,-5.4386,-5.3218,-5.2133,-5.1183,-4.885,-4.7256,-4.6375,-4.524,-4.4487,-4.4102,-4.4028,-4.382,-4.3515,-4.3515,0.0,-4.3699,-4.357,-4.3515,-4.3515,-4.3515,-4.3515,-4.3515,-4.3515,-4.3515,-4.3515,-4.3515,-4.3515,-4.3515,-4.3515,-4.3515,-4.3515,-4.3515,-4.3515,-4.3515,-4.3515,-4.2433,-4.1297,-4.1297,-4.0086,-3.8946,-3.9093,-3.9062,-3.9102,-3.9454,-3.9576,-3.9695,-3.986,0.0,0.0,0.0,0.0,0.0,0.0,-4.1123,-4.1566,-4.1566,0.0,-4.1436,0.0,0.0,0.0,0.0,0.0,0.0,0.0,0.0,0.0,0.0,0.0,0.0,0.0,0.0,0.0,-3.56,-3.56,-3.56,-3.56,-3.56,-3.56,-3.5583,-3.5447,-3.5481,-3.5583,-3.5447,-3.5481,-3.56,-3.56,-3.5253,-3.4783,-3.4783,-3.4423,-3.4128,-5.328,-5.3573,-5.383,-5.3849,-5.4509,-5.528,0.0,-5.6771,-5.6869,-5.5995,-5.6591,-5.7005,-5.6793,-5.7501,-5.7831,-5.7409,-5.7586,-5.7016,-5.5369,-5.5483,-5.5061,-5.387,-5.3833,-5.3924,-5.4135,-5.3099,-5.2039,-5.1039,-4.8933,-4.7277,-4.6006,-4.4845,-4.4175,-4.4001,-4.382,-4.3646,0.0,0.0,0.0,-4.4158,-4.458,-4.4488,-4.4121,-4.4121,-4.3864,-4.3515,-4.3515,-4.3515,-4.3515,-4.3515,-4.3322,-4.3087,-4.3087,-4.2865,-4.262,-4.262,-4.262,-4.2696,-4.3014,-4.1886,-4.0701,-4.1011,-3.9884,-3.8707,-3.8707,-3.8707,-3.8735,-3.8869,-3.888,-3.899,-3.9295,-3.9474,0.0,0.0,0.0,0.0,0.0,0.0,-4.1475,-4.1301,-4.1281,-4.0997,0.0,0.0,0.0,0.0,0.0,0.0,0.0,0.0,0.0,0.0,0.0,0.0,0.0,0.0,0.0,-3.56,-3.56,-3.56,-3.56,-3.56,-3.56,-3.5583,-3.5199,-3.5245,-3.56,-3.56,-3.56,-3.5577,-3.5207,-3.4894,-3.4552,-3.4211,-3.3887,-3.3684,-5.55,-5.5225,-5.506,-5.5519,-5.5739,-5.6069,-5.6712,-5.7483,-5.7538,-5.6271,-5.6106,-5.6033,-5.5868,-5.6987,-5.7428,-5.662,-5.6547,-5.5941,-5.4491,-5.4399,-5.4051,-5.3243,-5.3185,-5.3339,-5.3663,-5.2903,-5.1904,-5.0647,-4.8938,-4.7264,-4.5659,-4.4449,0.0,0.0,0.0,0.0,0.0,0.0,-4.4966,-4.5002,-4.5461,-4.5278,-4.4673,-4.4525,-4.4048,-4.3515,-4.3515,-4.3427,-4.3321,-4.3321,-4.305,-4.2674,-4.2539,-4.2183,-4.181,-4.181,-4.181,-4.1895,-4.2382,-4.142,-4.0363,-4.0687,-3.968,-3.8569,-3.8421,-3.8385,-3.8417,-3.8515,-3.8627,-3.8728,-3.882,-3.9147,0.0,0.0,0.0,0.0,0.0,0.0,-4.1114,-4.0832,-4.0808,-4.0359,-3.9213,0.0,0.0,0.0,0.0,0.0,-3.8148,-3.7843,0.0,0.0,0.0,0.0,-3.56,0.0,-3.56,0.0,-3.56,-3.56,-3.56,-3.56,-3.56,-3.5566,-3.4996,-3.5064,-3.56,-3.56,-3.56,-3.5538,-3.5028,-3.464,-3.4333,-3.3786,-3.3401,-3.3156,-5.5721,-5.6124,-5.6381,-5.5702,-5.6198,-5.6712,-5.6804,-5.7483,-5.7941,-5.7795,-5.7776,-5.7501,-5.6767,-5.6822,-5.6602,-5.5776,-5.5702,-5.5335,-5.4454,-5.4399,-5.4051,-5.3243,-5.3185,-5.3227,-5.3251,-5.277,-5.1729,0.0,0.0,-4.6893,-4.5221,-4.4079,0.0,0.0,0.0,0.0,0.0,-4.5461,-4.5792,-4.5736,-4.5094,-4.4782,-4.4618,-4.3883,-4.357,-4.3515,-4.3515,-4.3196,-4.277,-4.277,-4.275,-4.2616,-4.2059,-4.1853,-4.181,-4.181,-4.181,-4.181,-4.1874,-4.1233,-4.0435,-3.9789,-3.899,-3.8154,-3.75,-3.734,-3.7451,-3.7894,-3.8366,-3.8562,-3.8114,-3.8426,-3.8859,0.0,0.0,0.0,0.0,0.0,-4.0892,-4.0808,-4.0844,-4.0427,0.0,0.0,0.0,0.0,0.0,0.0,-3.6658,-3.6785,0.0,-3.5735,0.0,-3.5667,-3.56,-3.56,0.0,-3.56,-3.56,-3.56,-3.56,-3.56,-3.56,-3.56,-3.5515,-3.5532,-3.56,-3.56,-3.56,-3.56,-3.5515,-3.4752,-3.3684,-3.3608,-3.2783,-3.1682,0.0,0.0,0.0,0.0,0.0,0.0,0.0,-5.7795,-5.7997,-5.7997,-5.7997,-5.7685,-5.6895,-5.6804,-5.629,-5.4987,-5.4876,-5.4546,-5.3739,-5.3683,-5.3555,-5.3203,-5.3185,-5.3185,-5.3185,-5.3007,-5.189,0.0,0.0,-4.7737,-4.5615,-4.5146,0.0,0.0,0.0,-4.5424,-4.548,-4.6287,-4.6617,-4.6581,-4.6269,-4.5847,-4.5333,-4.4525,-4.392,-4.3444,-4.3142,-4.2883,-4.2596,-4.1874,-4.1621,-4.1578,-4.1335,-4.1036,-4.0767,-4.0767,-4.0767,-4.0861,-4.1155,-4.0665,-3.9979,-3.9585,-3.8905,-3.8107,-3.7367,-3.7209,-3.7248,-3.7433,-3.7649,-3.7826,-3.7894,-3.8082,-3.8362,0.0,0.0,0.0,0.0,0.0,0.0,-3.9433,-3.9365,-3.914,0.0,0.0,0.0,0.0,0.0,0.0,0.0,0.0,0.0,-3.5616,0.0,-3.56,-3.56,-3.5165,-3.5165,-3.5583,-3.5165,-3.5182,-3.56,-3.56,-3.56,-3.56,-3.56,-3.56,-3.56,-3.56,-3.56,-3.5577,-3.5161,-3.4664,-3.4112,-3.3287,-3.2625,-3.2092,-5.7679,0.0,-5.7068,0.0,-5.7538,-5.7336,-5.7905,-5.7997,-5.7997,-5.7997,-5.7997,-5.7685,-5.6895,-5.6602,-5.5886,-5.4528,-5.4179,-5.3812,-5.3243,-5.3185,-5.3185,-5.3185,-5.3185,0.0,-5.3185,-5.3185,-5.2252,-5.0308,-5.0088,-4.8802,-4.6599,0.0,0.0,0.0,-4.6159,-4.625,-4.6305,-4.7094,-4.7443,-4.7406,-4.6929,-4.6416,-4.5792,-4.4745,-4.3905,-4.3214,-4.2845,-4.248,-4.2041,-4.1201,-4.0803,-4.0655,-4.0655,-4.04,-4.0096,-4.0096,-4.0096,-4.0179,-4.0552,-4.0253,-3.9686,-3.9151,-3.859,-3.7923,-3.6933,-3.6726,-3.6726,-3.6726,-3.6981,-3.7248,-3.7433,-3.7702,-3.8013,-3.8399,0.0,0.0,0.0,-3.8986,0.0,-3.8439,-3.8185,-3.7963,-3.7721,0.0,0.0,0.0,0.0,0.0,0.0,0.0,0.0,0.0,0.0,0.0,0.0,0.0,-3.4886,-3.5583,-3.5081,-3.5115,-3.56,-3.56,-3.56,-3.56,-3.56,-3.56,-3.56,-3.56,-3.56,-3.5538,-3.5075,-3.4759,-3.4479,-3.3531,-3.2949,-3.2547,-5.6912,-5.6912,-5.7141,-5.7862,-5.7997,-5.7997,-5.7997,-5.7997,-5.7997,-5.7997,-5.7997,-5.7685,-5.6895,-5.6088,-5.528,-5.4473,-5.3683,-5.3203,-5.3185,-5.3185,-5.3185,0.0,0.0,-5.3185,-5.3185,-5.3185,-5.2803,-5.1958,0.0,0.0,-4.8251,0.0,-4.5902,-4.592,-4.6727,-4.7094,-4.7131,-4.7938,-4.8306,-4.8159,-4.6544,-4.5902,-4.5718,-4.4121,-4.3178,-4.2711,-4.2693,-4.1937,-4.0926,-4.0903,-4.0552,-4.0096,-4.0096,-4.0113,-4.0096,-4.0096,-4.0096,-4.0096,-4.0096,-4.0096,-3.974,-3.8285,-3.7905,-3.7483,-3.596,-3.5622,-3.5622,-3.5622,-3.646,-3.7057,-3.6501,-3.723,-3.7893,-3.7893,0.0,0.0,0.0,0.0,0.0,-3.8309,-3.7687,-3.7209,-3.7209,0.0,0.0,0.0,0.0,0.0,0.0,0.0,0.0,-3.4633,-3.3962,0.0,-3.46,-3.46,-3.4941,-3.56,-3.5583,-3.5583,-3.56,-3.56,-3.56,-3.56,-3.56,-3.56,-3.56,-3.56,-3.56,-3.56,-3.56,-3.5168,-3.46,-3.4576,-3.3735,-3.2586,-5.6077,-5.6518,-5.6964,-5.7209,-5.7679,-5.7997,-5.7997,-5.7997,-5.7997,-5.7997,-5.7997,-5.7905,-5.7648,-5.64,-5.5262,0.0,-5.3665,-5.3185,0.0,-5.3185,-5.3185,-5.3185,-5.3185,-5.3185,-5.3185,-5.3185,-5.2821,-5.1995,0.0,0.0,0.0,-4.8674,-4.8104,-4.7553,-4.7791,-4.7921,-4.792,-4.8196,-4.8306,-4.8176,-4.669,-4.5807,-4.519,-4.367,-4.267,-4.2021,-4.1621,-4.1223,-4.0833,-4.0473,-4.0254,-4.0096,-4.0096,-4.0096,-4.0096,-4.0096,-4.0096,-4.0096,-4.0096,-4.0096,-3.9876,-3.8886,-3.8278,-3.7652,-3.6637,-3.5994,-3.56,-3.56,-3.5876,-3.6165,-3.6354,-3.6664,-3.7001,-3.736,0.0,0.0,0.0,0.0,-3.5925,-3.5819,-3.5566,-3.5569,0.0,-3.6388,0.0,0.0,0.0,0.0,0.0,0.0,0.0,0.0,-3.371,0.0,-3.3912,-3.3883,-3.4209,-3.4918,-3.4863,-3.5115,-3.56,-3.56,-3.56,-3.56,-3.56,-3.56,-3.56,-3.56,-3.56,-3.56,-3.56,-3.547,-3.523,-3.4759,-3.4333,-3.3912,-5.5291,-5.591,-5.6465,-5.6465,-5.7309,-5.7909,-5.7637,-5.7821,-5.7886,-5.7593,-5.7556,-5.7428,-5.7134,-5.5923,0.0,-5.4858,-5.3849,-5.3185,-5.3185,-5.3185,-5.3185,-5.3185,-5.3185,-5.3185,-5.3185,0.0,0.0,-5.2454,-5.2142,-5.1316,-5.0031,-4.9739,-4.9132,-4.8306,-4.8306,-4.8306,-4.8306,-4.8306,-4.8306,-4.8175,-4.6762,-4.5923,-4.5305,-4.3568,-4.2485,-4.1823,-4.1146,-4.078,-4.0552,-4.0204,-4.0096,-4.0096,-4.0096,-4.0096,-4.0096,-4.0096,-4.0096,-4.0096,-4.0096,-4.0096,-3.9926,-3.9174,-3.865,-3.8041,-3.7032,-3.618,-3.56,-3.56,-3.56,-3.5694,-3.6032,-3.6249,-3.6519,-3.6843,0.0,-3.7001,-3.6147,0.0,0.0,0.0,0.0,0.0,0.0,-3.5318,0.0,0.0,0.0,0.0,0.0,0.0,0.0,-3.3235,-3.296,0.0,-3.3209,-3.3191,-3.3665,-3.46,-3.4807,-3.5143,-3.56,-3.56,-3.56,-3.56,-3.56,-3.56,-3.56,-3.56,-3.56,-3.56,-3.56,-3.56,-3.5538,-3.5121,-3.4823,-3.4528,-5.4527,-5.5131,0.0,0.0,-5.6858,0.0,-5.692,-5.7449,-5.7652,-5.6901,-5.6795,-5.651,-5.5757,-5.4873,-5.4631,-5.5365,0.0,0.0,0.0,-5.3185,-5.3185,-5.3185,-5.3185,0.0,-5.3185,-5.3185,-5.3185,-5.3185,-5.238,-5.1591,-5.0784,-4.9996,-4.9132,-4.8306,-4.8306,-4.8306,-4.8306,-4.8306,-4.8287,-4.8118,-4.6755,-4.6161,-4.586,-4.3735,-4.255,-4.1933,-4.1196,-4.058,-4.0096,-4.0096,-4.0096,-4.0096,-4.0096,-4.007,-4.002,-4.007,-4.0096,-4.007,-4.002,-4.002,-3.9826,-3.9101,-3.8848,-3.8393,-3.6976,-3.6026,-3.547,-3.5515,-3.5515,-3.5538,-3.56,-3.6028,-3.635,-3.6419,-3.6934,-3.6857,-3.5594,0.0,0.0,0.0,0.0,0.0,0.0,-3.4137,-3.4284,0.0,0.0,0.0,0.0,0.0,-3.2504,-3.2504,-3.1853,-3.1824,-3.252,-3.2559,-3.3261,-3.46,-3.5276,-3.56,-3.56,-3.56,-3.56,-3.56,-3.56,-3.56,-3.56,-3.56,-3.56,-3.56,-3.56,-3.56,-3.56,-3.56,-3.5207,-3.4688,0.0,0.0,-5.4878,-5.4878,-5.5638,-5.6196,-5.6004,-5.665,-5.7087,-5.6905,-5.6833,-5.673,-5.6547,-5.4747,-5.3655,-5.3836,-5.3441,-5.3185,-5.3185,-5.3185,-5.3185,-5.3185,-5.3185,-5.3185,-5.3185,-5.3185,-5.3185,-5.3185,-5.238,-5.1591,-5.0784,-4.9996,-4.9132,-4.8306,-4.8306,-4.8306,-4.8306,-4.8306,-4.8035,-4.7533,-4.6695,-4.5741,-4.4701,-4.3666,-4.2501,-4.1384,-4.1197,-4.0696,-4.0096,-4.0096,-4.0096,-4.0096,-4.0096,-3.9662,-3.9315,-3.9927,-4.0096,-3.9969,-3.9342,-3.9166,-3.9026,-3.829,-3.7291,-3.6237,-3.5344,-3.4581,-3.4227,-3.4736,-3.4847,-3.4988,-3.5515,-3.5694,-3.5992,-3.6627,-3.5902,-3.5361,-3.5601,-3.4304,0.0,0.0,-3.2841,-3.2841,-3.2841,-3.3443,-3.3761,0.0,0.0,0.0,0.0,0.0,-3.1768,-3.1768,-3.1582,-3.1582,-3.1768,-3.2327,-3.3261,-3.46,-3.5276,-3.56,-3.56,-3.56,-3.56,-3.56,-3.56,-3.56,-3.56,-3.56,-3.56,-3.56,-3.56,-3.56,-3.56,-3.56,-3.5492,-3.5362,-5.3501,-5.4106,-5.4482,-5.4154,-5.4999,-5.561,-5.5262,-5.5836,-5.6366,-5.6356,-5.6001,-5.5598,-5.5239,-5.3717,-5.263,-5.2319,-5.2246,-5.2353,-5.2684,-5.2417,-5.2376,-5.2684,-5.2702,-5.2702,-5.2702,-5.302,-5.3185,-5.3185,-5.2766,-5.1958,-5.0802,-5.0343,-4.9481,-4.8306,-4.8306,-4.8306,-4.8287,-4.8015,-4.7715,-4.732,-4.6359,-4.5546,-4.4802,-4.3776,-4.2885,-4.2168,-4.183,-4.1221,-4.0595,-4.0595,-4.0383,-4.0096,-4.0096,-3.9542,-3.9005,-3.9437,-3.9305,-3.8941,-3.8513,-3.8386,-3.8302,-3.7892,-3.6961,-3.605,-3.5667,-3.5016,-3.4514,-3.4588,-3.4824,-3.506,-3.5142,-3.5385,-3.5853,-3.6677,-3.5859,-3.5144,-3.5237,-3.4,0.0,-3.2178,-3.2092,-3.2092,-3.2092,-3.2734,-3.3013,-3.2664,0.0,0.0,-3.212,-3.171,-3.1511,-3.1511,-3.1511,-3.1511,-3.1511,-3.2559,-3.3417,-3.4161,-3.5138,-3.56,-3.56,-3.56,-3.56,-3.56,-3.56,-3.56,-3.56,-3.56,-3.56,-3.56,-3.56,-3.56,-3.56,-3.56,-3.5407,-3.5144,-5.3501,-5.3994,-5.4249,-5.3618,-5.453,-5.5161,-5.4544,-5.5072,-5.556,-5.57,-5.5004,-5.4237,-5.358,-5.2576,-5.1687,-5.0981,-5.085,-5.1112,-5.1904,-5.1419,-5.1343,-5.1928,-5.1952,-5.1952,-5.1952,-5.2554,-5.2915,-5.302,-5.2806,-5.2038,-5.0806,-5.0469,-4.961,-4.8335,-4.8226,-4.8172,-4.8132,-4.7614,-4.7299,-4.7017,-4.5933,-4.5433,-4.5225,-4.4028,-4.3521,-4.3308,-4.2692,-4.1982,-4.1373,-4.1373,-4.095,-4.0417,-4.0299,-3.963,-3.8892,-3.8778,-3.8133,-3.7472,-3.7573,-3.7531,-3.7442,-3.7442,-3.6904,-3.6381,-3.6381,-3.5802,-3.5166,-3.4668,-3.5035,-3.5295,-3.4824,-3.5314,-3.6036,-3.6818,-3.6256,-3.55,-3.493,0.0,-3.3008,-3.1657,-3.1511,-3.1511,-3.1511,-3.2064,-3.2132,-3.138,-3.1992,0.0,0.0,-3.1438,-3.1511,-3.1511,-3.1511,-3.1511,-3.1511,-3.2906,-3.3582,-3.3624,-3.4958,-3.56,-3.56,-3.56,-3.56,-3.56,-3.56,-3.56,-3.56,-3.56,-3.56,-3.56,-3.56,-3.5554,-3.547,-3.556,-3.5098,-3.4455,-5.3501,-5.3584,-5.3634,-5.3534,-5.3701,-5.3799,-5.3701,-5.4296,-5.4989,-5.5621,-5.4985,-5.4465,-5.4416,-5.2573,-5.1028,-5.0237,-4.9652,-4.9867,-5.1164,-5.1164,-5.1138,-5.1241,-5.1266,-5.1266,-5.1266,-5.1386,-5.171,-5.2271,-5.1023,-5.0551,-5.0832,-4.8977,-4.8248,-4.8424,-4.7838,-4.7551,-4.753,-4.7428,-4.6774,-4.5783,-4.5571,-4.5178,-4.4703,-4.449,-4.3995,-4.3375,-4.3257,-4.276,-4.2117,-4.2117,-4.2049,-4.1847,-4.1221,-4.0056,-3.8792,-3.8155,-3.6981,-3.599,-3.6631,-3.6321,-3.5861,-3.5861,-3.5363,-3.4848,-3.4848,-3.4303,-3.3954,-3.443,-3.46,-3.4823,-3.5352,-3.6036,-3.6769,-3.7513,-3.6554,-3.5696,-3.5626,0.0,-3.2405,-3.157,-3.1511,-3.1511,-3.1511,-3.1611,-3.135,-3.0554,-3.1234,-3.1321,-3.0524,-3.1117,-3.1511,-3.1511,-3.1511,-3.1511,-3.1511,-3.2906,-3.3582,-3.3624,-3.4958,-3.56,-3.56,-3.56,-3.56,-3.56,-3.56,-3.56,-3.56,-3.56,-3.56,-3.56,-3.56,-3.5253,-3.4807,-3.5385,-3.4823,-3.3836,-5.3501,-5.3501,-5.3501,-5.3501,-5.3501,-5.3501,-5.3501,-5.3766,-5.4264,-5.5012,-5.4407,-5.3782,-5.3447,-5.2426,-5.1173,-4.9594,-4.9539,-4.9712,-4.9942,-4.9965,-5.0118,-5.05,-5.05,-5.0689,-5.1086,-5.1086,-5.1241,-5.1544,-5.0886,-5.047,-5.0316,-4.8908,-4.8145,-4.7979,-4.7222,-4.6864,-4.6842,-4.6501,-4.6056,-4.5485,-4.5142,-4.4841,-4.4615,-4.4615,-4.4378,-4.4045,-4.4045,-4.3555,-4.2895,-4.2895,-4.2625,-4.2165,-4.1364,-4.0082,-3.8736,-3.7925,-3.6644,-3.5554,-3.5926,-3.575,-3.5504,-3.5504,-3.5265,-3.5026,-3.5026,-3.4801,-3.4551,-3.4501,-3.4802,-3.5019,-3.5021,-3.5612,-3.6341,-3.708,-3.6003,0.0,0.0,-3.3257,-3.157,-3.094,-3.0419,-3.0133,-3.0133,-3.0133,-3.0011,-2.9628,-3.0389,-3.0673,-3.0329,-3.1058,-3.1511,-3.1511,-3.1511,-3.1511,-3.1511,-3.2906,-3.3582,-3.3624,-3.4958,-3.56,-3.56,-3.56,-3.56,-3.56,-3.56,-3.56,-3.56,-3.56,-3.56,-3.56,-3.56,-3.5207,-3.464,-3.4941,-3.4227,-3.3119,-5.3501,-5.3501,-5.3501,-5.3501,-5.3501,-5.3501,-5.3501,-5.3501,-5.375,-5.4513,-5.3905,-5.3235,-5.2713,-5.2447,-5.1552,-4.9658,-5.0033,-5.0033,-4.9306,-4.9255,-4.9413,-4.9751,-4.978,-5.0033,-5.0599,-5.0626,-5.0707,-5.085,-5.0707,-5.0382,-4.9916,-4.9012,-4.824,-4.7593,-4.6783,-4.6456,-4.6407,-4.5942,-4.5667,-4.5516,-4.5031,-4.4767,-4.4615,-4.4615,-4.4615,-4.4615,-4.4615,-4.4198,-4.369,-4.369,-4.3175,-4.2406,-4.1555,-4.0154,-3.8676,-3.7857,-3.6604,-3.5504,-3.5504,-3.5504,-3.5504,-3.5504,-3.5504,-3.5504,-3.5504,-3.5504,-3.5355,-3.4848,-3.5153,-3.5355,-3.4818,-3.5357,-3.6017,-3.6581,0.0,0.0,0.0,-3.2674,-3.1073,-3.0097,-2.9411,-2.9002,-2.9002,-2.9192,-2.9223,-2.9034,-2.9981,-3.0494,-3.0299,-3.1058,-3.1511,-3.1511,-3.1511,-3.1511,-3.1511,-3.2745,-3.3365,-3.3391,-3.4728,-3.5362,-3.5362,-3.5515,-3.56,-3.56,-3.56,-3.56,-3.56,-3.56,-3.5515,-3.5362,-3.5362,-3.4871,-3.4161,-3.4309,-3.3505,-3.2355,-5.3501,-5.3501,-5.3501,-5.3501,-5.3501,-5.3501,-5.3501,-5.3501,-5.375,-5.4513,-5.3943,-5.3474,-5.342,-5.2746,-5.1959,-5.1116,-5.1099,-5.0811,-5.0067,-5.0016,-4.9743,-4.9111,-4.9077,-4.9107,-4.9152,-4.9152,-4.9462,-5.0072,-4.9462,-4.9445,-4.9957,-4.8612,-4.7888,-4.7642,-4.6933,-4.6586,-4.6569,-4.6533,-4.6199,-4.5659,-4.5647,-4.5213,-4.4615,-4.4615,-4.4615,-4.4615,-4.4615,-4.4564,-4.4513,-4.4513,-4.3946,-4.3086,-4.2334,-4.0566,-3.8587,-3.7808,-3.6604,-3.5504,-3.5504,-3.5504,-3.5504,-3.5504,-3.5504,-3.5504,-3.5504,-3.5504,-3.5489,-3.5444,-3.5462,-3.5464,-3.5452,-3.6027,-3.6537,-3.6583,0.0,0.0,-3.3774,-3.2704,-3.1354,-2.9331,-2.9034,-2.9002,-2.9002,-2.9721,-2.9858,-2.9066,-3.0494,-3.1087,-3.0329,-3.1058,-3.1511,-3.1511,-3.1511,-3.1511,-3.1511,-3.2272,-3.2668,-3.2695,-3.4037,-3.4688,-3.4688,-3.5316,-3.56,-3.56,-3.56,-3.56,-3.56,-3.56,-3.523,-3.4688,-3.4688,-3.3887,-3.2815,-3.3427,-3.2799,-3.1697,-5.3501,-5.3501,-5.3501,-5.3501,-5.3501,-5.3501,-5.3501,-5.3501,-5.3618,-5.3881,-5.3668,-5.3313,-5.2806,-5.2921,-5.2553,-5.1319,-5.164,-5.1572,-5.0828,-5.0338,-4.9763,-4.9035,-4.9001,-4.9001,-4.9001,-4.9001,-4.9138,-4.9389,-4.9138,-4.9138,-4.9342,-4.8361,-4.7853,-4.7807,-4.7068,-4.6726,-4.6726,-4.6726,-4.6589,-4.638,-4.638,-4.594,-4.528,-4.528,-4.4993,-4.4615,-4.4615,-4.4615,-4.4514,-4.3977,-4.3562,-4.3059,-4.1709,-4.0367,-3.9013,-3.738,-3.6245,-3.5504,-3.5504,-3.5504,-3.5504,-3.5504,-3.5504,-3.5504,-3.5504,-3.5504,-3.5504,-3.5504,-3.5504,-3.5504,-3.5504,-3.5733,-3.5926,-3.5926,0.0,-3.5277,-3.3466,-3.2194,-3.0778,-2.8918,-2.7967,-2.7451,-2.7451,-2.8214,-2.8556,-2.8214,-2.9797,-3.0614,-3.0329,-3.1058,-3.1511,-3.1511,-3.1511,-3.1511,-3.1511,-3.2637,-3.3209,-3.3251,-3.4568,-3.523,-3.523,-3.5492,-3.56,-3.56,-3.56,-3.56,-3.56,-3.56,-3.5207,-3.46,-3.46,-3.3786,-3.2641,-3.2895,-3.2339,-3.1539,-5.3501,-5.3501,-5.3501,-5.3501,-5.3501,-5.3501,-5.3501,-5.3501,-5.3501,-5.3501,-5.3501,-5.3298,-5.2739,-5.3179,-5.3078,-5.2029,-5.2384,-5.2266,-5.1252,-5.0287,-4.9526,-4.9018,-4.9001,-4.9001,-4.9001,-4.9001,-4.9001,-4.9001,-4.9001,-4.9001,-4.8984,-4.8494,-4.8108,-4.7872,-4.7378,-4.7141,-4.7141,-4.7141,-4.7141,-4.7141,-4.7141,-4.6701,-4.6058,-4.6058,-4.5585,-4.4897,-4.4635,-4.438,-4.4064,-4.3199,-4.2724,-4.2252,-4.108,-4.0056,-3.8935,-3.7052,-3.6163,-3.5774,-3.5564,-3.5504,-3.5504,-3.5504,-3.5504,-3.5504,-3.5504,-3.5504,-3.5504,-3.5504,-3.5504,-3.5504,-3.5504,-3.5504,-3.5504,-3.5504,-3.5246,-3.4486,-3.2892,-3.1436,-2.9937,-2.8304,-2.7169,-2.6499,-2.6499,-2.7484,-2.8117,-2.8117,-2.969,-3.0673,-3.0673,-3.119,-3.1511,-3.1511,-3.1511,-3.1511,-3.1511,-3.2461,-3.2944,-3.2944,-3.4325,-3.4958,-3.4981,-3.5184,-3.5385,-3.56,-3.5385,-3.5407,-3.5577,-3.5362,-3.4894,-3.426,-3.4062,-3.3261,-3.2244,-3.2244,-3.1923,-3.1511,-5.3501,-5.3501,-5.3501,-5.3501,-5.3501,-5.3501,-5.3501,-5.3501,-5.3501,-5.3501,-5.3501,-5.3501,-5.3501,-5.3501,-5.3501,-5.3501,-5.3501,-5.2858,-5.1286,-4.9847,-4.9018,-4.9001,-4.9001,-4.9001,-4.9001,-4.9001,-4.9001,-4.9001,-4.9001,-4.9001,-4.9001,-4.9001,-4.8612,-4.7889,-4.7889,-4.7889,-4.7889,-4.7889,-4.7889,-4.7889,-4.7889,-4.7479,-4.6802,-4.6802,-4.6346,-4.5587,-4.4699,-4.3916,-4.3155,-4.23,-4.1412,-4.069,-4.069,-3.9642,-3.8138,-3.69,-3.6492,-3.6342,-3.5684,-3.5504,-3.5504,-3.5504,-3.5504,-3.5504,-3.5504,-3.5504,-3.5504,-3.5504,-3.5504,-3.5504,-3.5504,-3.5504,-3.5504,-3.5472,-3.4643,-3.3491,-3.2,-3.0475,-2.8939,-2.7485,-2.6839,-2.6499,-2.6499,-2.8019,-2.9002,-2.9002,-3.0554,-3.1511,-3.1511,-3.1511,-3.1511,-3.1511,-3.1511,-3.1511,-3.1511,-3.1511,-3.1511,-3.1524,-3.2917,-3.3582,-3.3608,-3.4284,-3.4965,-3.5538,-3.4894,-3.4965,-3.5538,-3.4871,-3.4211,-3.3531,-3.2868,-3.2132,-3.1511,-3.1511,-3.1511,-3.1511,-5.3501,-5.3501,-5.3501,-5.3501,-5.3501,-5.3501,-5.3501,-5.3501,-5.3501,-5.3501,-5.3501,-5.3501,-5.3501,-5.3501,-5.3501,-5.3501,-5.3501,-5.2858,-5.1286,-5.0811,-5.0084,-4.9052,-4.9001,-4.9001,-4.9001,-4.9001,-4.9001,-4.9001,-4.9001,-4.9001,-4.9001,-4.9001,-4.8883,-4.868,-4.868,-4.868,-4.868,-4.868,-4.868,-4.868,-4.868,-4.824,-4.7504,-4.6824,-4.6124,-4.5303,-4.3911,-4.3283,-4.288,-4.1537,-4.0912,-4.0588,-3.999,-3.9164,-3.8317,-3.7928,-3.7195,-3.6447,-3.6252,-3.5863,-3.5504,-3.5504,-3.5504,-3.5504,-3.5504,-3.5504,-3.5504,-3.5504,-3.5504,-3.5279,-3.4576,-3.4461,-3.4211,-3.3581,-3.3206,-3.2644,-3.155,-3.0272,-2.9082,-2.7979,-2.7065,-2.6714,-2.7284,-2.833,-2.9254,-2.9858,-3.0896,-3.1511,-3.1511,-3.1511,-3.1511,-3.1511,-3.1511,-3.1511,-3.1511,-3.2007,-3.2272,-3.2272,-3.3182,-3.3582,-3.3608,-3.3811,-3.426,-3.4871,-3.4186,-3.4284,-3.4847,-3.4161,-3.3786,-3.3531,-3.2868,-3.2465,-3.2216,-3.1697,-3.1511,-3.1511,-5.3501,-5.3501,-5.3501,-5.3501,-5.3501,-5.3501,-5.3501,-5.3501,-5.3501,-5.3501,-5.3501,-5.3501,-5.3501,-5.3501,-5.3501,-5.3501,-5.3213,-5.252,-5.1302,-5.0947,-5.0371,-4.9475,-4.9154,-4.9001,-4.9001,-4.9001,-4.9001,-4.9001,-4.9001,-4.9001,-4.9001,-4.9001,-4.9001,-4.9001,-4.9001,-4.9001,-4.9001,-4.9001,-4.9001,-4.9001,-4.9001,-4.8731,-4.8233,-4.7303,-4.6469,-4.5569,-4.3609,-4.2724,-4.2257,-4.0713,-4.0185,-4.008,-3.9574,-3.9125,-3.8736,-3.8467,-3.7838,-3.7135,-3.6626,-3.6193,-3.5833,-3.5564,-3.5504,-3.5504,-3.5504,-3.5504,-3.5392,-3.4986,-3.4905,-3.4624,-3.3636,-3.3449,-3.3276,-3.2713,-3.2285,-3.1852,-3.1278,-3.0061,-2.8954,-2.8195,-2.7318,-2.7058,-2.763,-2.8492,-2.9473,-3.0673,-3.1219,-3.1511,-3.1511,-3.1511,-3.1511,-3.1511,-3.1511,-3.1511,-3.1511,-3.1923,-3.216,-3.216,-3.2879,-3.3209,-3.3209,-3.3209,-3.3556,-3.4161,-3.3495,-3.3582,-3.4161,-3.3495,-3.3209,-3.3145,-3.2449,-3.216,-3.212,-3.1668,-3.1511,-3.1511,-5.3501,-5.3501,-5.3501,-5.3501,-5.3501,-5.3501,-5.3501,-5.3501,-5.3501,-5.3501,-5.3501,-5.3501,-5.3501,-5.3501,-5.3501,-5.3501,-5.2841,-5.2097,-5.1369,-5.0676,-5.0253,-5.0185,-4.9492,-4.9103,-4.9103,-4.9035,-4.9001,-4.9001,-4.9001,-4.9001,-4.9001,-4.9001,-4.9001,-4.9001,-4.9001,-4.9001,-4.9001,-4.9001,-4.9001,-4.9001,-4.9001,-4.9001,-4.8892,-4.7868,-4.7046,-4.6159,-4.3651,-4.2288,-4.1463,-3.9922,-3.9388,-3.9388,-3.9388,-3.9388,-3.929,-3.8661,-3.8437,-3.8138,-3.6971,-3.6567,-3.6342,-3.5744,-3.5549,-3.5504,-3.5504,-3.5504,-3.5213,-3.4211,-3.3993,-3.3705,-3.2664,-3.2464,-3.2464,-3.2357,-3.1646,-3.1106,-3.118,-2.9868,-2.8774,-2.8478,-2.7811,-2.7566,-2.7987,-2.8744,-2.9858,-3.138,-3.1511,-3.1511,-3.1511,-3.1511,-3.1511,-3.1511,-3.1511,-3.1511,-3.1511,-3.1511,-3.1511,-3.1511,-3.216,-3.2504,-3.2504,-3.2504,-3.2868,-3.3453,-3.2788,-3.2895,-3.3469,-3.2788,-3.2532,-3.2547,-3.1796,-3.1539,-3.1582,-3.1524,-3.1511,-3.1511,-5.3501,-5.3501,-5.3501,-5.3501,-5.3501,-5.3501,-5.3501,-5.3501,-5.3501,-5.3501,-5.3501,-5.3501,-5.3501,-5.3501,-5.3501,-5.3501,-5.3348,-5.2909,-5.2114,-5.1911,-5.1572,-5.0997,-5.0253,-4.9847,-4.9847,-4.9306,-4.9001,-4.9001,-4.9001,-4.9001,-4.9001,-4.9001,-4.9001,-4.9001,-4.9001,-4.9001,-4.9001,-4.9001,-4.9001,-4.9001,-4.9001,-4.9001,-4.8829,-4.7138,-4.6392,-4.5923,-4.3398,-4.204,-4.1264,-3.9886,-3.9388,-3.9388,-3.9388,-3.9388,-3.9394,-3.9245,-3.8811,-3.8332,-3.8048,-3.7255,-3.6447,-3.6312,-3.5893,-3.5504,-3.5504,-3.5504,-3.5213,-3.4211,-3.3993,-3.3484,-3.1815,-3.1499,-3.1254,-3.0533,-3.0254,-3.0343,-3.1106,-2.9868,-2.9433,-3.0834,-2.9374,-2.8839,-3.0302,-3.0755,-3.1117,-3.1467,-3.1511,-3.1511,-3.1511,-3.1511,-3.1511,-3.1511,-3.1511,-3.1511,-3.1511,-3.1511,-3.1511,-3.1511,-3.1668,-3.1739,-3.1739,-3.1739,-3.2132,-3.2761,-3.2064,-3.216,-3.2761,-3.2035,-3.2092,-3.2547,-3.1796,-3.1853,-3.2299,-3.171,-3.1511,-3.1511,-5.3501,-5.3501,-5.3501,-5.3501,-5.3501,-5.3501,-5.3501,-5.3501,-5.3501,-5.3501,-5.3501,-5.3501,-5.3501,-5.3501,-5.3501,-5.3501,-5.3501,-5.3162,-5.235,-5.23,-5.2131,-5.1758,-5.0676,-5.0253,-5.0625,-4.956,-4.9001,-4.9001,-4.9001,-4.9001,-4.9001,-4.9001,-4.9001,-4.9001,-4.9001,-4.9001,-4.9001,-4.9001,-4.9001,-4.9001,-4.9001,-4.8719,-4.8193,-4.673,-4.5905,-4.5264,-4.3168,-4.1767,-4.0816,-4.0113,-3.9679,-3.9388,-3.9388,-3.9388,-3.9388,-3.9388,-3.917,-3.8811,-3.8482,-3.7898,-3.7315,-3.7,-3.6447,-3.5893,-3.5579,-3.5504,-3.51,-3.3636,-3.3345,-3.2749,-3.0871,-3.052,-3.052,-3.0482,-3.0482,-3.0809,-3.1756,-3.116,-3.0939,-3.1702,-3.0788,-3.0361,-3.1125,-3.1382,-3.1511,-3.1511,-3.1511,-3.1511,-3.1511,-3.1511,-3.1511,-3.1511,-3.1511,-3.1511,-3.1511,-3.1511,-3.1697,-3.2035,-3.2035,-3.2035,-3.2035,-3.2367,-3.2544,-3.2574,-3.2203,-3.2035,-3.2035,-3.1668,-3.171,-3.2035,-3.1668,-3.1951,-3.2559,-3.2176,-3.2035,-3.2035,-5.3501,-5.3501,-5.3501,-5.3501,-5.3501,-5.3501,-5.3501,-5.3501,-5.3501,-5.3501,-5.3501,-5.3501,-5.3501,-5.3501,-5.3501,-5.3501,-5.3501,-5.3213,-5.2553,-5.252,-5.252,-5.252,-5.12,-5.0693,-5.12,-4.9881,-4.9137,-4.9001,-4.9001,-4.9001,-4.9001,-4.9001,-4.9001,-4.9001,-4.9001,-4.9001,-4.9001,-4.9001,-4.9001,-4.9001,-4.8829,-4.8289,-4.7489,-4.64,-4.5488,-4.4584,-4.3089,-4.1758,-4.0711,-4.0472,-4.0038,-3.9574,-3.9454,-3.9388,-3.9388,-3.9388,-3.9388,-3.929,-3.8721,-3.8482,-3.8257,-3.7719,-3.703,-3.6342,-3.5804,-3.5594,-3.5001,-3.322,-3.2855,-3.2321,-3.0608,-3.0292,-3.0533,-3.1328,-3.1426,-3.1779,-3.2713,-3.2713,-3.2611,-3.2611,-3.2629,-3.2421,-3.1865,-3.1958,-3.1987,-3.1881,-3.1739,-3.1697,-3.1697,-3.1553,-3.1511,-3.1511,-3.1511,-3.1511,-3.1511,-3.164,-3.1979,-3.2586,-3.2841,-3.2895,-3.2788,-3.3339,-3.3287,-3.2761,-3.2761,-3.2422,-3.1866,-3.1866,-3.1866,-3.1838,-3.1739,-3.2132,-3.2761,-3.2761,-3.2761,-3.2734,-5.3501,-5.3501,-5.3501,-5.3501,-5.3501,-5.3501,-5.3501,-5.3501,-5.3501,-5.3501,-5.3501,-5.3501,-5.3501,-5.3501,-5.3501,-5.3501,-5.3501,-5.345,-5.3348,-5.3348,-5.3348,-5.3348,-5.2486,-5.1758,-5.1202,-5.0388,-4.9644,-4.9001,-4.9001,-4.9001,-4.9001,-4.9001,-4.9001,-4.9001,-4.9001,-4.9001,-4.9001,-4.9001,-4.9001,-4.894,-4.8112,-4.7688,-4.7423,-4.5649,-4.4909,-4.4646,-4.3563,-4.2731,-4.1961,-4.0786,-4.0337,-4.0172,-3.9568,-3.9388,-3.9388,-3.9388,-3.9388,-3.9394,-3.9305,-3.8841,-3.8362,-3.8287,-3.7375,-3.6462,-3.6372,-3.5908,-3.518,-3.4027,-3.3808,-3.3498,-3.2429,-3.2213,-3.2249,-3.2393,-3.2429,-3.2749,-3.3671,-3.3101,-3.3433,-3.5685,-3.6051,-3.5606,-3.4347,-3.4265,-3.399,-3.3345,-3.2788,-3.2465,-3.2465,-3.1853,-3.1511,-3.1511,-3.1511,-3.1511,-3.1511,-3.2148,-3.2504,-3.2614,-3.3786,-3.4037,-3.3469,-3.3556,-3.3556,-3.3453,-3.3453,-3.3417,-3.3313,-3.3313,-3.3313,-3.3261,-3.268,-3.2868,-3.3453,-3.3453,-3.3453,-3.3391,-5.3501,-5.3501,-5.3501,-5.3501,-5.3501,-5.3501,-5.3501,-5.3501,-5.3501,-5.3501,-5.3501,-5.3501,-5.3501,-5.3501,-5.3501,-5.3501,-5.3501,-5.3501,-5.3501,-5.3501,-5.3501,-5.3501,-5.2739,-5.2147,-5.1826,-5.0693,-4.9932,-4.961,-4.9204,-4.9001,-4.9001,-4.9001,-4.9001,-4.9001,-4.9001,-4.9001,-4.897,-4.8433,-4.8225,-4.8161,-4.7205,-4.6504,-4.5957,-4.5132,-4.445,-4.3888,-4.3448,-4.291,-4.2306,-4.1737,-4.1287,-4.0831,-4.0172,-3.9963,-3.9903,-3.9493,-3.9388,-3.9388,-3.9388,-3.92,-3.896,-3.896,-3.7973,-3.7,-3.7,-3.6222,-3.5213,-3.4211,-3.3993,-3.3705,-3.2784,-3.2593,-3.2784,-3.331,-3.338,-3.3705,-3.4691,-3.485,-3.5458,-3.7084,-3.6995,-3.6561,-3.5925,-3.5155,-3.4579,-3.4232,-3.3562,-3.3172,-3.3172,-3.3239,-3.3096,-3.268,-3.2693,-3.2708,-3.2664,-3.2625,-3.2975,-3.3735,-3.4333,-3.4455,-3.4186,-3.4544,-3.452,-3.4161,-3.4161,-3.3962,-3.3582,-3.3582,-3.3582,-3.3556,-3.3261,-3.3572,-3.4211,-3.4568,-3.4471,-3.4062]},{"header":{"parameterUnit":"m.s-1","parameterCategory":1,"la1":30.6,"la2":28.766,"lo1":-90.7593,"lo2":-88.6598,"dy":0.0162,"dx":0.0183,"nx":116,"ny":114,"refTime":"2024-05-22T18:00:00:Z","depth":0,"parameterNumber":3,"parameterNumberName":"V-component_of_WINDS"},"data":[0.0,0.0,0.0,0.0,0.0,0.0,0.0,0.0,0.0,0.0,0.0,0.0,0.0,0.0,0.0,0.0,0.0,0.0,0.0,0.0,0.0,0.0,0.0,0.0,0.0,0.0,0.0,0.0,0.0,0.0,0.0,0.0,0.0,0.0,0.0,0.0,0.0,0.0,0.0,0.0,0.0,0.0,0.0,0.0,0.0,0.0,0.0,0.0,0.0,0.0,0.0,0.0,0.0,0.0,0.0,0.0,0.0,0.0,0.0,0.0,0.0,0.0,0.0,0.0,0.0,0.0,0.0,0.0,0.0,0.0,0.0,0.0,0.0,0.0,0.0,0.0,0.0,0.0,0.0,0.0,0.0,0.0,0.0,0.0,0.0,0.0,0.0,0.0,0.0,0.0,0.0,0.0,0.0,0.0,0.0,0.0,0.0,0.0,0.0,0.0,0.0,0.0,0.0,0.0,0.0,0.0,0.0,0.0,0.0,0.0,0.0,0.0,0.0,0.0,0.0,0.0,0.0,0.0,0.0,0.0,0.0,0.0,0.0,0.0,0.0,0.0,0.0,0.0,0.0,0.0,0.0,0.0,0.0,0.0,0.0,0.0,0.0,0.0,0.0,0.0,0.0,0.0,0.0,0.0,0.0,0.0,0.0,0.0,0.0,0.0,0.0,0.0,0.0,0.0,0.0,0.0,0.0,0.0,0.0,0.0,0.0,0.0,0.0,0.0,0.0,0.0,0.0,0.0,0.0,0.0,0.0,0.0,0.0,0.0,0.0,0.0,0.0,0.0,0.0,0.0,0.0,0.0,0.0,0.0,0.0,0.0,0.0,0.0,0.0,0.0,0.0,0.0,0.0,0.0,0.0,0.0,0.0,0.0,0.0,0.0,0.0,0.0,0.0,0.0,0.0,0.0,0.0,0.0,0.0,0.0,0.0,0.0,0.0,0.0,0.0,0.0,0.0,0.0,0.0,0.0,0.0,0.0,0.0,0.0,0.0,0.0,0.0,0.0,0.0,0.0,0.0,0.0,0.0,0.0,0.0,0.0,0.0,0.0,0.0,0.0,0.0,0.0,0.0,0.0,0.0,0.0,0.0,0.0,0.0,0.0,0.0,0.0,0.0,0.0,0.0,0.0,0.0,0.0,0.0,0.0,0.0,0.0,0.0,0.0,0.0,0.0,0.0,0.0,0.0,0.0,0.0,0.0,0.0,0.0,0.0,0.0,0.0,0.0,0.0,0.0,0.0,0.0,0.0,0.0,0.0,0.0,0.0,0.0,0.0,0.0,0.0,0.0,0.0,0.0,0.0,0.0,0.0,0.0,0.0,0.0,0.0,0.0,0.0,0.0,0.0,0.0,0.0,0.0,0.0,0.0,0.0,0.0,0.0,0.0,0.0,0.0,0.0,0.0,0.0,0.0,0.0,0.0,0.0,0.0,0.0,0.0,0.0,0.0,0.0,0.0,0.0,0.0,0.0,0.0,0.0,0.0,0.0,0.0,0.0,0.0,0.0,0.0,0.0,0.0,0.0,0.0,0.0,0.0,0.0,0.0,0.0,0.0,0.0,0.0,0.0,0.0,0.0,0.0,0.0,0.0,0.0,0.0,0.0,0.0,0.0,0.0,0.0,0.0,0.0,0.0,0.0,0.0,0.0,0.0,0.0,0.0,0.0,0.0,0.0,0.0,0.0,0.0,0.0,0.0,0.0,0.0,0.0,0.0,0.0,0.0,0.0,0.0,0.0,0.0,0.0,0.0,0.0,0.0,0.0,0.0,0.0,0.0,0.0,0.0,0.0,0.0,0.0,0.0,0.0,0.0,0.0,0.0,0.0,0.0,0.0,0.0,0.0,0.0,0.0,0.0,0.0,0.0,0.0,0.0,0.0,0.0,0.0,0.0,0.0,0.0,0.0,0.0,0.0,0.0,0.0,0.0,0.0,0.0,0.0,0.0,0.0,0.0,0.0,0.0,0.0,0.0,0.0,0.0,0.0,0.0,0.0,0.0,0.0,0.0,0.0,0.0,0.0,0.0,0.0,0.0,0.0,0.0,0.0,0.0,0.0,0.0,0.0,0.0,0.0,0.0,0.0,0.0,0.0,0.0,0.0,0.0,0.0,0.0,0.0,0.0,0.0,0.0,0.0,0.0,0.0,0.0,0.0,0.0,0.0,0.0,0.0,0.0,0.0,0.0,0.0,0.0,0.0,0.0,0.0,0.0,0.0,0.0,0.0,0.0,0.0,0.0,0.0,0.0,0.0,0.0,0.0,0.0,0.0,0.0,0.0,0.0,0.0,0.0,0.0,0.0,0.0,0.0,0.0,0.0,0.0,0.0,0.0,0.0,0.0,0.0,0.0,0.0,0.0,0.0,0.0,0.0,0.0,0.0,0.0,0.0,0.0,0.0,0.0,0.0,0.0,0.0,0.0,0.0,0.0,0.0,0.0,0.0,0.0,0.0,0.0,0.0,0.0,0.0,0.0,0.0,0.0,0.0,0.0,0.0,0.0,0.0,0.0,0.0,0.0,0.0,0.0,0.0,0.0,0.0,0.0,0.0,0.0,0.0,0.0,0.0,0.0,0.0,0.0,0.0,0.0,0.0,0.0,0.0,0.0,0.0,0.0,0.0,0.0,0.0,0.0,0.0,0.0,0.0,0.0,0.0,0.0,0.0,0.0,0.0,0.0,0.0,0.0,0.0,0.0,0.0,0.0,0.0,0.0,0.0,0.0,0.0,0.0,0.0,0.0,0.0,0.0,0.0,0.0,0.0,0.0,0.0,0.0,0.0,0.0,0.0,0.0,0.0,0.0,0.0,0.0,0.0,0.0,0.0,0.0,0.0,0.0,0.0,0.0,0.0,0.0,0.0,0.0,0.0,0.0,0.0,0.0,0.0,0.0,0.0,0.0,0.0,0.0,0.0,0.0,0.0,0.0,0.0,0.0,0.0,0.0,0.0,0.0,0.0,0.0,0.0,0.0,0.0,0.0,0.0,0.0,0.0,0.0,0.0,0.0,0.0,0.0,0.0,0.0,0.0,0.0,0.0,0.0,0.0,0.0,0.0,0.0,0.0,0.0,0.0,0.0,0.0,0.0,0.0,0.0,0.0,0.0,0.0,0.0,0.0,0.0,0.0,0.0,0.0,0.0,0.0,0.0,0.0,0.0,0.0,0.0,0.0,0.0,0.0,0.0,0.0,0.0,0.0,0.0,0.0,0.0,0.0,0.0,0.0,0.0,0.0,0.0,0.0,0.0,0.0,0.0,0.0,0.0,0.0,0.0,0.0,0.0,0.0,0.0,0.0,0.0,0.0,0.0,0.0,0.0,0.0,0.0,0.0,0.0,0.0,0.0,0.0,0.0,0.0,0.0,0.0,0.0,0.0,0.0,0.0,0.0,0.0,0.0,0.0,0.0,0.0,0.0,0.0,0.0,0.0,0.0,0.0,0.0,0.0,0.0,0.0,0.0,0.0,0.0,0.0,0.0,0.0,0.0,0.0,0.0,0.0,0.0,0.0,0.0,0.0,0.0,0.0,0.0,0.0,0.0,0.0,0.0,0.0,0.0,0.0,0.0,0.0,0.0,0.0,0.0,0.0,0.0,0.0,0.0,0.0,0.0,0.0,0.0,0.0,0.0,0.0,0.0,0.0,0.0,0.0,0.0,0.0,0.0,0.0,0.0,0.0,0.0,0.0,0.0,0.0,0.0,0.0,0.0,0.0,0.0,0.0,0.0,0.0,0.0,0.0,0.0,0.0,0.0,0.0,0.0,0.0,0.0,0.0,0.0,0.0,0.0,0.0,0.0,0.0,0.0,0.0,0.0,0.0,0.0,0.0,0.0,0.0,0.0,0.0,0.0,0.0,0.0,0.0,0.0,0.0,0.0,0.0,0.0,0.0,0.0,0.0,0.0,0.0,0.0,0.0,0.0,0.0,0.0,0.0,0.0,0.0,0.0,0.0,0.0,0.0,0.0,0.0,0.0,0.0,0.0,0.0,0.0,0.0,0.0,0.0,0.0,0.0,0.0,0.0,0.0,0.0,0.0,0.0,0.0,0.0,0.0,0.0,0.0,0.0,0.0,0.0,0.0,0.0,0.0,0.0,0.0,0.0,0.0,0.0,0.0,0.0,0.0,0.0,0.0,0.0,0.0,0.0,0.0,0.0,0.0,0.0,0.0,0.0,0.0,0.0,0.0,0.0,0.0,0.0,0.0,0.0,0.0,0.0,0.0,0.0,0.0,0.0,0.0,0.0,0.0,0.0,0.0,0.0,0.0,0.0,0.0,0.0,0.0,0.0,0.0,0.0,0.0,0.0,0.0,0.0,0.0,0.0,0.0,0.0,0.0,0.0,0.0,0.0,0.0,0.0,0.0,0.0,0.0,0.0,0.0,0.0,0.0,0.0,0.0,0.0,0.0,0.0,0.0,0.0,0.0,0.0,0.0,0.0,0.0,0.0,0.0,0.0,0.0,0.0,0.0,0.0,0.0,0.0,0.0,0.0,0.0,0.0,0.0,0.0,0.0,0.0,0.0,0.0,0.0,0.0,0.0,0.0,0.0,0.0,0.0,0.0,0.0,0.0,0.0,0.0,0.0,0.0,0.0,0.0,0.0,0.0,0.0,0.0,0.0,0.0,0.0,0.0,0.0,0.0,0.0,0.0,0.0,0.0,0.0,0.0,0.0,0.0,0.0,0.0,0.0,0.0,0.0,0.0,0.0,0.0,0.0,0.0,0.0,0.0,0.0,0.0,0.0,0.0,0.0,0.0,0.0,0.0,0.0,0.0,0.0,0.0,0.0,0.0,0.0,0.0,0.0,0.0,0.0,0.0,0.0,0.0,0.0,0.0,0.0,0.0,0.0,0.0,0.0,0.0,0.0,0.0,0.0,0.0,0.0,0.0,0.0,0.0,0.0,0.0,0.0,0.0,0.0,0.0,0.0,0.0,0.0,0.0,0.0,0.0,0.0,0.0,0.0,0.0,0.0,0.0,0.0,0.0,0.0,0.0,0.0,0.0,0.0,0.0,0.0,0.0,0.0,0.0,0.0,0.0,0.0,0.0,0.0,0.0,0.0,0.0,0.0,0.0,0.0,0.0,0.0,0.0,0.0,0.0,0.0,0.0,0.0,0.0,0.0,0.0,0.0,0.0,0.0,0.0,0.0,0.0,0.0,0.0,0.0,0.0,0.0,0.0,0.0,0.0,0.0,0.0,0.0,0.0,0.0,0.0,0.0,0.0,0.0,0.0,0.0,0.0,0.0,0.0,0.0,0.0,0.0,0.0,0.0,0.0,0.0,0.0,0.0,0.0,0.0,0.0,0.0,0.0,0.0,0.0,0.0,0.0,0.0,0.0,0.0,0.0,0.0,0.0,0.0,0.0,0.0,0.0,0.0,0.0,0.0,0.0,0.0,0.0,0.0,0.0,0.0,0.0,0.0,0.0,0.0,0.0,0.0,0.0,0.0,0.0,0.0,0.0,0.0,0.0,0.0,0.0,0.0,0.0,0.0,0.0,0.0,0.0,0.0,0.0,0.0,0.0,0.0,0.0,0.0,0.0,0.0,0.0,0.0,0.0,0.0,0.0,0.0,0.0,0.0,0.0,0.0,0.0,0.0,0.0,0.0,0.0,0.0,0.0,0.0,0.0,0.0,0.0,0.0,0.0,0.0,0.0,0.0,0.0,0.0,0.0,0.0,0.0,0.0,0.0,0.0,0.0,0.0,0.0,0.0,0.0,0.0,0.0,0.0,0.0,0.0,0.0,0.0,0.0,0.0,0.0,0.0,0.0,0.0,0.0,0.0,0.0,0.0,0.0,0.0,0.0,0.0,0.0,0.0,0.0,0.0,0.0,0.0,0.0,0.0,0.0,0.0,0.0,0.0,0.0,0.0,0.0,0.0,0.0,0.0,0.0,0.0,0.0,0.0,0.0,0.0,0.0,0.0,0.0,0.0,0.0,0.0,0.0,0.0,0.0,0.0,0.0,0.0,0.0,0.0,0.0,0.0,0.0,0.0,0.0,0.0,0.0,0.0,0.0,0.0,0.0,0.0,0.0,0.0,0.0,0.0,0.0,0.0,0.0,0.0,0.0,0.0,0.0,0.0,0.0,0.0,0.0,0.0,0.0,0.8775,0.0,0.0,0.0,0.0,0.0,0.0,0.0,0.0,0.0,0.0,0.0,0.0,0.0,0.0,0.0,0.0,0.0,0.0,0.0,0.0,0.0,0.0,0.0,0.0,1.4109,1.3924,1.3879,1.2662,1.1891,1.1896,0.0,0.0,0.0,0.0,0.0,2.0522,2.2459,2.3772,2.4338,2.5351,2.5864,2.5826,2.3236,2.0616,1.8045,0.0,0.0,0.0,0.0,0.0,0.0,0.0,0.0,0.0,0.0,0.0,0.0,0.0,0.0,0.0,0.0,0.0,0.0,0.0,0.0,0.0,0.0,0.0,0.0,0.0,0.0,0.0,0.0,0.0,0.0,0.0,0.0,0.0,0.0,0.0,0.0,0.0,0.0,0.0,0.0,0.0,0.0,0.0,0.0,0.0,0.0,0.0,0.0,0.0,0.0,0.0,0.0,0.0,0.0,0.0,0.0,0.0,0.0,0.0,0.0,0.0,0.0,0.0,0.0,0.0,0.0,0.0,0.0,0.0,0.0,0.0,0.945,0.0,0.0,0.0,0.0,0.0,0.0,0.0,0.0,0.0,0.0,0.0,0.0,0.0,0.0,0.0,0.0,0.0,0.0,0.0,0.0,0.0,1.3373,1.4015,1.466,1.4774,1.4267,1.4022,1.3542,1.2624,1.3392,0.0,0.0,0.0,2.0219,2.2357,2.381,2.5009,2.5942,2.7194,2.7817,2.7817,2.7656,2.5622,2.204,2.0608,0.0,0.0,0.0,0.0,0.0,0.0,0.0,0.0,0.0,0.0,0.0,0.0,0.0,0.0,0.0,0.0,0.0,0.0,0.0,0.0,0.0,0.0,0.0,0.0,0.0,0.0,0.0,0.0,0.0,0.0,0.0,0.0,0.0,0.0,0.0,0.0,0.0,0.0,0.0,0.0,0.0,0.0,0.0,0.0,0.0,0.0,0.0,0.0,0.0,0.0,0.0,0.0,0.0,0.0,0.0,0.0,0.0,0.0,0.0,0.0,0.0,0.0,0.0,1.4478,1.457,1.4527,1.4527,1.4527,1.4505,1.4004,1.2668,1.0921,0.0,0.0,0.0,0.0,0.0,0.0,0.0,0.0,0.0,0.0,0.0,0.0,0.0,0.0,0.0,0.0,0.0,0.0,0.0,0.0,1.3172,1.3995,1.466,1.5152,1.5535,1.4555,1.4268,1.5242,1.4411,0.0,0.0,1.9574,2.1438,2.29,2.672,2.8765,2.8932,3.1437,3.2691,3.2654,3.1856,3.0637,2.894,2.3858,2.1356,2.0784,0.0,0.0,0.0,0.0,0.0,0.0,0.0,0.0,0.0,0.0,0.0,0.0,0.0,0.0,0.0,0.0,0.0,0.0,0.0,0.0,0.0,0.0,0.0,0.0,0.0,0.0,0.0,0.0,0.0,0.0,0.0,0.0,0.0,0.0,0.0,0.0,0.0,0.0,0.0,0.0,0.0,1.8847,1.7319,0.0,0.0,0.0,0.0,0.0,0.0,0.0,0.0,0.0,0.0,0.0,0.0,0.0,1.6226,1.6716,1.6716,1.6599,1.6302,1.7585,1.8101,1.7867,1.7867,1.7867,1.7854,1.7783,0.0,1.2877,1.2334,0.0,0.0,0.0,0.0,0.0,0.0,0.0,0.0,0.0,0.0,0.0,0.0,0.0,0.0,0.0,0.0,0.0,0.0,0.0,0.0,0.0,1.5129,1.5509,1.6753,1.571,1.5194,1.5778,1.594,1.6861,1.8634,2.0935,2.3036,2.4946,2.7929,3.0544,3.2595,3.4181,3.493,3.493,3.4545,3.3802,3.265,2.9489,2.6262,2.3063,2.1069,0.0,0.0,0.0,0.0,0.0,0.0,0.0,0.0,0.0,0.0,0.0,0.0,0.0,0.0,0.0,0.0,0.0,0.0,0.0,0.0,0.0,0.0,0.0,0.0,0.0,0.0,0.0,0.0,0.0,0.0,0.0,0.0,0.0,0.0,0.0,0.0,0.0,0.0,0.0,2.1603,2.0479,1.9286,1.8534,1.7909,0.0,0.0,0.0,0.0,0.0,0.0,0.0,0.0,0.0,1.9205,1.8622,1.8459,1.8873,1.8873,1.8809,1.8676,1.9187,1.9345,1.9225,1.9058,1.8985,1.8971,1.8804,1.7796,1.6103,1.4774,1.3204,1.173,0.0,0.0,0.0,0.0,0.0,0.8909,0.0,0.0,0.0,0.0,0.0,0.0,0.0,0.0,0.0,0.0,0.0,0.0,1.6557,1.6308,1.6613,1.8041,1.7304,1.6749,1.6749,1.763,1.881,2.0324,2.2315,2.4629,2.7204,2.9654,3.2395,3.5374,3.621,3.6603,3.6603,3.6374,3.5868,3.5153,3.3922,3.0619,2.5924,2.4209,2.2382,2.0436,0.0,0.0,0.0,0.0,0.0,0.0,0.0,0.0,0.0,0.0,0.0,0.0,0.0,0.0,0.0,0.0,0.0,0.0,0.0,0.0,0.0,0.0,0.0,0.0,0.0,0.0,0.0,0.0,0.0,0.0,0.0,0.0,0.0,0.0,0.0,0.0,0.0,2.2978,2.2295,2.0968,2.0022,1.9098,0.0,0.0,0.0,0.0,0.0,0.0,1.8811,1.9032,1.9419,2.0007,2.002,2.016,2.0454,2.0381,2.0347,2.0341,1.9973,1.98,1.9786,1.9499,1.9424,1.9417,1.9132,1.8831,1.8388,1.6797,1.506,1.3394,1.3103,1.2817,1.2339,1.1078,1.0609,1.0457,0.0,0.0,0.0,0.0,0.0,0.0,0.0,0.0,0.0,0.0,0.0,1.7433,1.7879,1.8514,1.9039,1.9372,1.936,1.9314,1.9314,1.936,2.0406,2.2727,2.3909,2.6043,2.9285,3.2882,3.5261,3.641,3.7649,3.8262,3.8262,3.7375,3.6923,3.6821,3.5218,3.3177,3.0813,2.8757,2.6491,2.4145,2.2099,0.0,0.0,0.0,0.0,0.0,0.0,0.0,0.0,0.0,0.0,0.0,0.0,0.0,0.0,0.0,0.0,0.0,0.0,0.0,0.0,0.0,0.0,0.0,0.0,0.0,0.0,0.0,0.0,0.0,0.0,0.0,0.0,0.0,0.0,0.0,0.0,0.0,0.0,2.1387,2.1616,0.0,0.0,0.0,0.0,1.9316,1.9285,1.9426,1.972,1.9746,2.0027,2.0615,2.0635,2.0775,2.1062,2.0788,2.0655,2.0648,2.0074,1.98,1.9786,1.9499,1.9424,1.9424,1.9352,1.9018,1.8444,1.7776,1.6552,1.5058,1.4781,1.3914,1.2715,1.2395,1.2264,1.2233,0.0,0.0,0.0,0.0,0.0,1.1289,1.2124,1.3177,1.4181,1.5032,1.6522,1.7975,1.9298,1.9229,1.9502,2.0586,1.9943,1.9497,1.9497,2.0891,2.2114,2.2935,2.5469,2.8493,3.2064,3.4445,3.633,3.7704,3.8616,3.905,3.905,3.8712,3.8552,3.8516,3.7923,3.6848,3.5294,3.2423,2.9994,2.7846,2.6116,2.4226,0.0,0.0,0.0,0.0,0.0,0.0,0.0,0.0,0.0,0.0,0.0,0.0,0.0,0.0,0.0,0.0,0.0,0.0,0.0,0.0,0.0,0.0,0.0,0.0,0.0,0.0,0.0,0.0,0.0,0.0,0.0,0.0,0.0,0.0,0.0,0.0,0.0,2.515,2.3715,0.0,2.1329,2.0444,1.9846,1.9659,1.9993,2.0254,2.0361,2.0541,2.0742,2.0949,2.0955,2.1002,2.1109,2.1009,2.0955,2.0949,2.0361,2.008,2.006,1.9586,1.9424,1.9424,1.9424,1.9138,1.8738,1.8337,1.7601,1.6703,1.6472,1.6049,1.5493,1.4354,1.3802,1.3353,0.0,0.0,0.0,0.0,1.0533,1.0884,1.1672,1.2869,1.4276,1.5845,1.7449,1.9053,2.0772,2.0645,2.0846,2.1826,2.1177,2.089,2.1257,2.2737,2.4088,2.5154,2.8536,3.1574,3.4034,3.5855,3.7337,3.8392,3.937,3.9829,3.9864,4.013,4.0289,4.0289,4.0289,3.9894,3.9047,3.6589,3.4087,3.16,2.9758,2.8058,2.6358,0.0,0.0,0.0,0.0,0.0,0.0,0.0,0.0,0.0,0.0,0.0,0.0,0.0,0.0,0.0,0.0,0.0,0.0,0.0,0.0,0.0,0.0,0.0,0.0,0.0,0.0,0.0,0.0,0.0,0.0,0.0,0.0,0.0,0.0,2.7481,2.7473,2.7323,2.54,2.3671,2.263,2.1299,2.0448,2.0254,2.0601,2.0822,2.0822,2.1002,2.1109,2.1109,2.1109,2.1109,2.1109,2.1109,2.1109,2.1102,2.0514,2.0173,2.0153,1.9633,1.9424,1.9424,1.9424,1.9199,1.8905,1.8611,1.8196,1.7709,1.7467,1.7347,1.7203,1.6017,1.5381,1.4713,0.0,0.0,0.0,0.9446,0.9624,1.0284,1.1369,1.2493,1.4489,1.7896,1.9381,2.0749,2.2291,2.2847,2.3091,2.3091,2.3135,2.3637,2.4745,2.4904,2.6341,2.9502,3.3068,3.5027,3.5056,3.7236,3.8407,3.8422,3.9937,4.069,4.0724,4.1593,4.1997,4.1997,4.1997,4.1997,4.1933,4.1113,3.8755,3.5398,3.3017,3.1536,3.057,0.0,0.0,0.0,0.0,0.0,0.0,0.0,0.0,0.0,0.0,0.0,0.0,0.0,0.0,0.0,0.0,0.0,0.0,0.0,0.0,0.0,0.0,0.0,0.0,0.0,0.0,0.0,0.0,0.0,0.0,0.0,0.0,0.0,2.833,2.9062,2.9066,2.7566,2.6576,2.5238,2.3361,2.1915,2.1109,2.1109,2.1109,2.1109,2.1109,2.1109,2.1109,2.1109,2.1109,2.1109,2.1109,2.1109,2.1109,2.1102,2.0514,2.0173,2.0153,1.9633,1.9424,1.9424,1.9424,1.9205,1.8911,1.8611,1.8323,1.7975,1.7709,1.7582,1.7549,1.732,1.6967,1.6214,0.0,0.0,0.9655,0.9586,0.9774,0.9869,0.9792,1.1085,1.2778,1.4765,1.7309,1.9555,2.1025,2.2341,2.3091,2.3091,2.3844,2.4457,2.4787,2.692,2.9473,3.2354,3.4079,3.5445,3.6418,3.7709,3.8631,3.914,4.0182,4.069,4.0724,4.1593,4.1997,4.1997,4.1997,4.1997,4.1997,4.1723,4.1074,3.9924,3.6838,3.4789,3.3406,0.0,0.0,0.0,0.0,0.0,0.0,0.0,0.0,0.0,0.0,0.0,0.0,0.0,0.0,0.0,0.0,0.0,0.0,0.0,0.0,0.0,0.0,0.0,0.0,0.0,0.0,0.0,0.0,0.0,0.0,0.0,2.8389,2.9219,2.9219,2.9678,3.0032,2.9949,2.7628,2.5822,2.5238,2.2707,2.1109,2.1109,2.1109,2.1109,2.1109,2.1109,2.1109,2.1109,2.1109,2.1109,2.1109,2.1109,2.1109,2.1102,2.0514,2.0173,2.0153,1.9633,1.9424,1.9424,1.9424,1.9377,1.9205,1.8698,1.8444,1.8317,1.7789,1.7582,1.7569,1.7548,1.6562,1.498,0.0,0.8544,0.9253,0.9164,0.9576,0.9751,0.9269,1.0142,1.1676,1.378,1.5839,1.7862,1.9954,2.1485,2.2359,2.2359,2.3846,2.4999,2.5462,2.9094,3.2098,3.4106,3.5608,3.6787,3.7549,3.8412,3.902,3.9388,4.0638,4.1247,4.128,4.2504,4.3092,4.3075,4.2734,4.2766,4.3045,4.2382,4.2276,4.2346,4.0044,3.8038,3.6394,3.559,3.4182,3.2552,3.1704,3.0522,2.937,2.9053,0.0,0.0,0.0,0.0,0.0,0.0,0.0,0.0,0.0,0.0,0.0,0.0,0.0,0.0,0.0,0.0,0.0,0.0,0.0,0.0,0.0,0.0,0.0,0.0,2.9238,2.9902,3.0098,3.0332,3.0586,3.0859,2.8,2.5976,2.5976,2.3062,2.1109,2.1109,2.1109,2.1109,2.1109,2.1109,2.1109,2.1109,2.1109,2.1109,2.1109,2.1109,2.1109,2.1102,2.0514,2.0173,2.0153,1.9633,1.9424,0.0,1.9424,1.9299,1.9145,1.8677,1.8417,0.0,0.0,0.0,0.0,0.0,1.645,1.519,0.0,0.7246,0.8723,0.8324,0.8992,0.9474,0.9042,0.9311,1.0615,1.3595,1.4524,1.597,1.8752,2.0432,2.1293,2.1293,2.3557,2.5641,2.7214,3.125,3.414,3.5319,3.7316,3.8422,3.8497,3.911,3.9388,3.9388,4.1062,4.1901,4.2029,4.3663,4.4514,4.4581,4.3859,4.3927,4.4508,4.3086,4.2831,4.3366,4.2614,4.1137,3.9295,3.8133,3.6921,3.5725,3.5101,3.4216,3.3356,3.3289,0.0,0.0,0.0,0.0,0.0,0.0,0.0,0.0,0.0,0.0,0.0,0.0,0.0,0.0,0.0,0.0,0.0,0.0,0.0,0.0,0.0,0.0,0.0,0.0,3.0,3.042,3.083,3.0889,3.0889,3.0889,2.8,2.5976,2.5976,2.3062,2.1109,2.1109,2.1109,2.1109,2.1109,0.0,0.0,0.0,0.0,2.1109,2.1109,2.1109,2.1109,2.1102,2.0514,2.0173,2.0153,1.9633,1.9424,1.9424,1.9424,1.9199,1.8905,1.8611,1.8297,1.7916,1.7689,1.7562,1.7468,1.6907,1.652,0.0,0.0,0.5866,0.646,0.7223,0.7596,0.7582,0.6992,0.7144,0.8026,1.0051,1.2254,1.4365,1.622,1.934,2.1293,2.1293,2.4277,2.7898,3.196,3.3078,3.4824,3.7614,3.8172,3.8646,3.9215,3.9313,3.9388,3.9388,4.0432,4.1313,4.2029,4.3061,4.3948,4.4598,4.4445,4.4462,4.457,4.426,4.422,4.4327,4.4167,4.3029,4.1317,4.0417,3.9364,3.823,3.6989,3.6131,3.5523,3.5096,3.4111,3.287,3.1886,3.0553,0.0,0.0,0.0,0.0,0.0,0.0,0.0,0.0,0.0,0.0,0.0,0.0,0.0,0.0,0.0,0.0,0.0,0.0,0.0,2.998,3.0459,3.0791,3.0879,3.0889,3.0889,3.0889,2.8,2.5976,2.5976,2.3062,2.1109,2.1109,2.1109,2.1109,2.1109,2.1109,2.1109,2.1109,2.1109,2.1109,2.1109,2.1109,2.1109,2.1102,0.0,0.0,2.0153,1.9633,1.9424,1.9424,1.9424,1.9199,1.8905,1.8611,1.8163,1.7662,1.7609,1.7494,1.7246,1.6834,1.652,1.608,0.3154,0.4616,0.5897,0.7082,0.7799,0.7989,0.7347,0.7442,0.7963,0.9146,1.097,1.279,1.4259,1.7206,1.9245,1.9781,2.3699,2.8258,3.3276,3.3905,3.5386,3.8262,3.8721,3.9065,3.9373,3.9388,3.9388,3.9388,4.0274,4.0912,4.1379,4.2693,4.3532,4.396,4.3979,4.4402,4.4991,4.4296,4.4419,4.5025,4.472,4.4093,4.3213,4.2316,4.1415,4.0402,3.9244,3.834,3.7537,3.6845,3.59,3.4808,3.3781,3.2708,3.1662,0.0,0.0,0.0,0.0,0.0,0.0,0.0,0.0,0.0,0.0,0.0,0.0,0.0,0.0,3.1397,3.119,0.0,3.0029,3.0478,3.0742,3.0587,2.9776,2.9648,2.9962,3.082,2.8,2.5976,2.5976,2.3062,2.1109,2.1109,2.1109,2.1109,2.1109,2.1109,2.1109,2.1109,2.1109,2.1109,2.1109,2.1109,2.1109,2.1102,2.0514,2.0173,2.0153,1.9633,1.9424,1.9424,1.9424,1.9199,1.8891,1.845,1.7996,1.7582,1.7582,1.7315,1.6907,1.676,1.6426,1.5929,0.137,0.3289,0.5233,0.6746,0.7715,0.8216,0.8,0.8056,0.8319,0.8849,1.019,1.1523,1.2677,1.5202,1.7434,1.905,2.3031,2.7652,3.283,3.3663,3.5171,3.784,3.8487,3.8767,3.8767,3.8767,3.8767,3.8767,3.9474,4.0043,4.0439,4.1837,4.2784,4.332,4.3462,4.4285,4.5425,4.4304,4.4453,4.5433,4.4841,4.4615,4.4514,4.3814,4.3,4.2125,4.108,4.004,3.9103,3.8355,3.7181,3.5902,3.5211,3.4361,3.3491,3.2478,3.1901,0.0,0.0,0.0,0.0,0.0,0.0,0.0,0.0,3.5039,3.5251,3.492,3.4342,3.3578,3.2652,3.1574,3.0902,3.1006,3.1016,3.0448,2.8783,2.8471,2.8792,2.9835,2.7331,2.5558,2.5558,2.282,2.1109,2.1109,2.1109,2.1109,2.1109,2.1109,2.1109,2.1109,2.1109,2.1109,2.1109,2.1109,2.1109,2.1102,2.0514,2.0173,2.0153,1.9633,1.9424,1.9417,1.9303,1.9065,1.8791,1.8149,1.7809,1.7582,1.7582,1.7221,1.6707,1.6707,1.6333,1.5784,0.0,0.1821,0.2685,0.4816,0.5308,0.5769,0.6897,0.7044,0.7205,0.7556,0.9651,1.121,1.1487,1.4698,1.8194,2.1721,2.3453,2.6411,3.1227,3.1645,3.3093,3.632,3.6523,3.6565,3.6565,3.6565,3.6565,3.6565,3.6654,3.7595,3.9288,3.9486,4.0908,4.332,4.3877,4.4626,4.5494,4.5347,4.5364,4.5433,4.4841,4.4615,4.4587,4.4485,4.3902,4.2939,4.128,4.0254,3.9601,3.9313,3.7529,3.5457,3.5888,3.4721,3.3038,3.2407,3.2177,3.1751,3.0218,3.0515,3.1629,3.3283,3.45,3.5621,0.0,3.76,3.789,3.8854,3.7943,3.6577,3.5164,3.4014,3.2882,3.1663,3.1445,3.088,2.9261,2.8643,2.7931,2.6712,2.4962,2.3876,2.3876,2.2215,2.1109,2.1109,2.1109,2.1109,2.1109,2.1109,2.1109,2.1109,2.1109,2.1109,2.1109,2.1109,2.1109,2.1102,2.0514,2.0173,2.0153,1.9633,1.9424,1.9397,1.8818,1.8571,1.849,1.7883,1.7615,1.7582,1.7582,1.7221,1.6707,1.6707,1.6333,1.5784,0.0,0.0686,0.1187,0.281,0.4166,0.5207,0.5781,0.6514,0.7051,0.7221,0.9301,1.0877,1.115,1.5109,1.8731,2.123,2.313,2.5912,2.9978,3.092,3.2594,3.5506,3.6333,3.6876,3.7194,3.6428,3.6386,3.7194,3.6062,3.6344,3.7949,3.873,3.9994,4.1693,4.3423,4.4875,4.6014,4.5648,4.5707,4.594,4.4971,4.4615,4.4542,4.4035,4.3036,4.1743,4.0492,3.9542,0.0,3.7121,3.5831,3.4834,3.4463,3.3728,3.2944,3.2357,3.1685,3.0965,3.0049,3.0411,3.1343,3.2592,3.4126,3.5673,3.6964,3.7914,3.873,3.9534,3.8518,3.7037,3.5563,3.4391,3.3248,3.1742,3.1728,3.0924,2.8062,2.7459,2.6293,2.345,2.2522,2.2529,2.3512,2.2097,2.1109,2.1109,2.1109,2.1109,2.1109,2.1109,2.1109,2.1109,2.1109,2.1109,2.1109,2.1109,2.1109,2.1102,2.0514,2.0173,2.0153,1.9633,1.9424,1.9403,1.8925,1.8644,1.8457,1.8029,1.7749,1.7582,1.7582,1.7221,1.6707,1.6707,1.6333,1.5784,0.0,0.0,0.0293,0.1165,0.2914,0.4318,0.4622,0.6051,0.7007,0.665,0.896,1.0958,1.1943,1.5573,1.8523,2.013,2.2067,2.4788,2.8399,2.9433,3.1038,3.3472,3.4567,3.5319,3.5695,3.49,3.4933,3.59,3.4499,3.4667,3.6368,3.7318,3.8618,4.0177,4.2524,4.4434,4.5866,4.5561,4.5814,4.6319,4.4858,4.4059,4.3681,4.2675,4.1023,3.9284,3.9241,3.8239,3.662,3.4776,3.3634,3.2849,3.2279,3.1879,3.1602,3.1318,3.0502,2.969,2.9935,3.016,3.0683,3.1895,3.3524,3.5055,3.5882,3.7344,3.8607,3.899,3.8582,3.753,3.5672,3.4838,3.389,3.1978,3.206,3.1039,2.7306,2.6674,2.5226,2.1509,2.1109,2.1601,2.2772,2.179,2.1109,2.1109,2.1109,2.1109,2.1109,2.1109,2.1109,2.1109,2.1109,2.1109,2.1109,2.1109,2.1069,2.0982,2.0474,2.0187,2.0094,1.9593,1.9424,1.9403,1.8965,1.8684,1.8464,1.8076,1.7789,1.7582,1.7582,1.7275,1.682,1.6734,1.6333,1.5784,0.0,0.0,0.0,0.0044,0.106,0.2278,0.3477,0.5617,0.6694,0.5581,0.8468,1.1565,1.4128,1.5762,1.7332,1.9015,2.014,2.2383,2.6157,2.643,2.7385,2.9454,2.9994,3.0206,3.0218,3.0653,3.09,3.09,3.0841,3.2055,3.4392,3.4412,3.6148,3.933,4.1146,4.2972,4.4671,4.506,4.5759,4.641,4.4219,4.2717,4.1629,4.0225,3.7819,3.5456,3.7582,3.6207,3.3318,3.3019,3.112,2.8978,2.9629,2.9082,2.8345,2.8766,2.8298,2.803,2.9568,2.9536,2.9551,3.1644,3.303,3.3974,3.4361,3.604,3.7559,3.7571,3.8687,3.8752,3.5847,3.5971,3.5591,3.2664,3.25,3.1464,2.7819,2.6894,2.5226,2.1509,2.1109,2.1109,0.0,2.1109,2.1109,2.1109,2.1109,2.1109,2.1109,2.1109,2.1109,2.1109,2.1109,2.1109,2.1109,2.1109,2.0969,2.0688,2.0381,2.0087,1.9806,1.9506,1.9424,1.939,1.8751,1.8497,1.8444,1.7842,1.7589,1.7582,1.7582,1.7454,1.7152,1.6814,1.6333,1.5784,0.0,0.0,0.0,0.0,0.1002,0.1645,0.1279,0.3243,0.4978,0.5463,0.8897,0.0,0.0,0.0,0.0,0.0,1.9225,2.0925,2.3288,2.4469,2.6017,2.8186,2.9493,3.0438,3.1099,2.9405,2.9091,3.0285,2.8024,2.8289,3.1002,3.1302,3.2874,3.5588,3.8203,4.0054,4.1194,4.1855,4.2749,4.3469,4.1221,4.0024,3.9357,3.6705,3.3725,3.0933,0.0,3.0059,3.0157,2.9052,2.8028,2.7293,2.7518,2.7349,2.7048,2.6995,2.7469,2.799,2.8017,2.7327,2.6903,2.8218,2.8945,2.9747,3.1293,3.3053,3.4593,3.5423,3.6202,3.6059,3.3812,3.4089,3.4154,3.2463,3.2519,3.1865,2.9279,2.902,2.757,2.3289,2.3015,2.2624,2.1249,0.0,0.0,2.1109,2.1109,2.1109,2.1109,2.1109,2.1109,2.1109,2.1109,2.1109,2.1109,2.1109,2.0962,2.0668,2.018,1.9793,1.9506,1.947,1.9259,1.9052,1.8664,1.8377,1.8163,1.7749,1.7582,1.7582,1.7582,1.746,1.7166,1.6814,1.646,1.6092,0.0,0.0,0.0,0.0,0.0,0.0,0.0,0.0,0.0,0.0,0.0,0.0,0.0,0.0,0.0,0.0,0.0,1.9561,2.1188,2.2704,2.4246,2.5826,2.7484,2.8487,2.8673,2.7011,2.6554,2.7386,2.5165,2.5362,2.7782,2.8184,2.9435,3.1494,3.3959,3.5558,3.6429,3.7003,3.7854,3.8577,3.6311,3.5146,3.4432,3.1798,2.8759,0.0,2.4018,2.4095,2.4878,2.4639,2.4576,2.4649,2.4827,2.5389,2.6007,2.5986,2.6707,2.7399,2.6622,2.5912,2.5478,2.5831,2.6035,2.653,2.8028,3.0035,3.1836,3.2628,3.3899,3.4326,3.2727,3.2993,3.3217,3.2363,3.2519,3.2109,3.0226,3.0093,2.8565,2.4329,2.3953,2.324,2.1312,2.1109,2.1109,2.1109,2.1109,2.1109,2.1109,2.1109,2.1109,2.1109,2.1109,2.1109,2.1109,2.1109,2.0909,2.0508,1.9927,1.9546,1.9424,1.9424,1.9205,1.8911,1.8617,1.8323,1.7969,1.7709,1.7582,1.7582,1.7582,1.746,1.7166,1.6814,1.652,1.6226,0.0,0.0,0.0,0.0,0.0,0.0,0.0,0.0,0.0,0.0,0.0,0.0,0.0,0.0,0.0,0.0,0.0,0.0,1.9882,2.1113,2.2003,2.2465,2.4023,2.4355,2.3202,2.3533,2.327,2.2368,2.2333,2.3142,2.4772,2.5028,2.5838,2.7114,2.8584,2.9714,3.0469,3.0641,3.1248,3.1908,2.9756,2.833,2.7367,2.5779,2.3013,1.9994,1.9442,1.8495,1.7888,2.0152,2.1123,2.1455,2.2007,2.3532,2.5215,2.5644,2.6094,2.6309,2.5569,2.5352,2.5164,2.4507,2.4301,2.44,2.4854,2.7101,2.9205,2.9307,3.1653,3.338,3.2382,3.2598,3.2788,3.2224,3.249,3.2248,3.0708,3.0138,2.856,2.4927,2.4056,2.312,2.1439,2.1179,2.1109,2.1109,0.0,2.1109,2.1109,2.1109,2.1109,2.1109,2.1109,2.1109,2.1109,2.1082,2.0775,2.014,1.9639,1.9424,1.9424,1.9424,1.9199,1.8885,1.8611,1.831,1.7949,1.7702,1.7582,1.7582,1.7582,1.746,1.7166,1.6814,1.652,1.6226,0.0,0.0,0.0,0.0,0.0,0.0,0.0,0.0,0.0,0.0,0.0,0.0,0.0,0.0,0.0,0.0,0.0,0.0,1.821,1.8918,1.9706,2.0683,2.1475,2.19,2.1884,2.1117,2.0762,2.0852,1.9959,2.0315,2.1793,2.188,2.2087,2.2523,2.3922,2.405,2.3315,2.3926,2.478,2.5528,2.372,2.3391,2.3694,2.0394,1.8565,1.7545,1.5308,1.4225,1.4292,1.7651,2.0486,2.2749,2.3928,2.5102,2.6074,2.6191,2.6758,2.7062,2.5777,2.4839,2.3889,2.2619,2.1676,2.1364,2.2635,2.3702,2.5019,2.698,2.8275,2.9162,2.9689,3.0396,3.1097,3.1602,3.2051,3.2309,3.2229,3.2315,3.1446,2.8648,2.7173,2.5581,2.3576,2.1977,2.1109,0.0,2.1109,2.1109,2.1109,2.1109,2.1109,2.1109,2.1109,2.1109,2.1109,2.0675,2.0274,1.9907,1.9539,1.9424,1.9424,1.9424,1.9085,1.8597,1.8524,1.819,1.7695,1.7615,1.7582,1.7582,1.7582,1.746,1.7166,1.6814,1.652,1.6226,0.0,0.0,0.0,0.0,0.0,0.0,0.0,0.0,0.0,0.0,0.0,0.0,0.0,0.0,0.0,0.0,0.0,0.0,0.0,1.7621,1.8323,1.9011,1.9805,2.0095,1.9774,1.9353,1.8651,1.7651,1.7231,1.7152,1.7308,1.7422,1.7521,1.7647,1.8469,1.836,1.7569,1.7933,1.8386,0.0,0.0,1.7639,1.8099,1.5928,1.4745,1.4041,1.2499,1.1858,1.2262,1.5576,1.8895,2.1909,2.399,2.559,2.6738,2.7119,2.7559,2.7535,2.5538,2.4573,2.3578,2.1238,2.0106,1.98,2.0557,2.14,2.2414,2.3786,2.4902,2.6054,2.7471,2.8426,2.9432,3.0976,3.1768,3.2314,3.2734,3.2998,3.2301,2.9981,2.8765,2.7263,2.5217,2.3304,2.2223,2.2223,2.1544,2.1109,2.1109,2.1109,2.1109,2.1109,2.1109,2.1049,2.0922,2.0461,2.0087,1.98,1.9506,1.9424,1.9424,1.9424,1.9045,1.849,0.0,1.8143,1.7582,1.7582,1.7582,1.7582,1.7582,1.7321,1.6934,1.6767,1.644,1.6052,0.0,0.0,0.0,0.0,0.0,0.0,0.0,0.0,0.0,0.0,0.0,0.0,0.0,0.0,0.0,0.0,0.0,0.0,0.0,0.0,1.6922,1.6922,1.791,1.8003,1.6969,1.7439,1.6509,1.4057,1.46,1.4208,1.2985,1.3153,1.3208,1.3115,1.3227,1.3179,1.3003,1.2765,1.256,1.2354,1.193,1.1915,1.2042,0.0,1.1473,1.0761,1.065,1.0634,1.1007,1.3688,1.6792,2.0078,2.2997,2.5367,2.7153,2.8101,2.8247,2.764,2.521,2.4384,2.3443,2.0229,1.9426,1.9339,1.8998,1.9907,2.0844,2.0728,2.1969,2.3607,2.5538,2.6596,2.7895,3.0161,3.1356,3.2168,3.2646,3.2715,3.2046,3.0272,2.9501,2.8383,2.6571,2.4925,2.3938,2.3938,2.2404,2.1355,2.1109,2.1109,2.1109,2.1109,2.1109,2.0949,2.0621,2.0361,2.0067,1.974,1.9486,1.9424,1.9424,1.9424,1.9045,1.849,0.0,0.0,1.7582,1.7582,1.7582,1.7582,1.7542,1.7188,1.67,1.666,1.6299,1.5784,0.0,0.0,0.0,0.0,0.0,0.0,0.0,0.0,0.0,0.0,0.1908,0.3907,0.0,0.0,0.0,0.0,0.0,0.0,0.0,0.0,0.0,1.2904,1.3134,1.3134,1.2904,1.3281,1.3209,1.2728,1.3046,1.3075,1.2817,1.2869,1.2265,1.1206,1.1206,1.0535,0.9391,0.9365,0.8636,0.7486,0.7418,0.8174,0.9164,0.8021,0.0,0.0,0.9658,0.9193,0.9388,1.1423,1.5087,1.9243,2.2242,2.4848,2.7004,2.8369,2.8096,2.6933,2.5259,2.3837,2.2371,2.026,1.9726,1.9586,1.9045,1.9088,1.9542,2.0518,2.097,2.1713,2.3536,2.53,2.6929,2.83,2.9984,3.1387,3.2168,3.2275,3.2185,3.1793,3.02,2.8985,2.861,2.6776,2.5558,2.5558,2.4108,2.2591,2.1172,2.1109,2.1109,2.1109,2.1109,2.0848,2.0314,2.0261,1.9967,1.9446,1.9392,1.9424,1.9424,1.9424,1.9045,1.849,0.0,0.0,1.7582,1.7582,1.7582,1.7555,1.7373,1.7065,1.6673,1.6433,1.6126,1.5784,0.0,0.0,0.0,0.0,0.0,0.0,0.0,0.0,0.0,0.0,0.0576,0.1727,0.3715,0.5756,0.7225,0.0,0.0,0.0,0.0,0.0,0.0,0.0,1.1957,1.1896,1.1896,1.2379,1.2138,1.1271,0.0,1.0349,0.9484,0.8605,0.7898,0.7337,0.7265,0.6833,0.6182,0.6182,0.5772,0.5115,0.5156,0.6119,0.7455,0.0,0.0,0.0,0.826,0.8175,0.8632,0.8152,1.0497,1.4477,1.9388,2.2307,2.4471,2.727,2.7083,2.5874,2.5369,2.4075,2.2317,2.0317,1.98,1.9606,1.8865,1.8698,1.8786,1.9048,1.9184,1.9827,2.1471,2.3007,2.4675,2.6774,2.8373,2.9916,3.1347,3.1689,3.1836,3.1836,3.0952,3.0244,3.0037,2.8355,2.7263,2.7263,2.4962,2.3263,2.2466,2.1538,2.1109,2.1109,2.0962,2.0675,2.0173,2.008,1.9793,1.9424,1.9424,1.9424,1.9424,1.9424,1.9045,1.849,1.849,0.0,1.7582,1.7582,1.7582,1.7569,1.7481,1.7101,1.6687,1.6553,1.6213,1.5784,0.0,0.0,0.0,0.0,0.0,0.0,0.0,0.0,0.0,0.0,0.0,0.0384,0.1462,0.3694,0.5132,0.0,0.0,0.0,0.0,0.0,0.0,0.0,0.0,1.0829,1.1138,0.0,0.0,0.9875,0.8832,0.0,0.0,0.0,0.0,0.0,0.4023,0.3989,0.3989,0.4022,0.3857,0.0,0.0,0.4662,0.0,0.0,0.0,0.0,0.0,0.7125,0.7419,0.5326,0.6174,0.9137,1.5065,1.8566,2.1262,2.5059,2.535,2.4614,2.4957,2.3899,2.2245,2.0327,1.9893,1.9646,1.8704,1.849,1.8317,1.7709,1.7776,1.8279,1.959,2.0694,2.245,2.5362,2.6929,2.8473,3.048,3.1113,3.1377,3.1377,3.1377,3.126,3.0928,2.9717,2.8911,2.8911,2.6244,0.0,2.3146,2.216,2.1481,2.1109,2.0828,2.0535,2.0173,1.9947,1.9659,1.9424,1.9424,1.9424,1.9424,1.9299,1.8985,1.849,1.8424,0.0,0.0,1.7582,1.7582,1.7569,1.7442,1.7114,1.6693,1.656,1.6226,1.5784,0.0,0.0,0.0,0.0,0.0,0.0,0.0,0.0,0.0,0.0,0.0,0.0056,0.0171,0.1495,0.2372,0.0,0.0,0.0,0.0,0.0,0.0,0.0,0.0,0.0,0.0,0.0,0.0,0.8826,0.7319,0.0,0.0,0.0,0.0,0.0,0.0,0.4015,0.4012,0.3994,0.0,0.0,0.0,0.0,0.0,0.0,0.0,0.0,0.0,0.5799,0.4586,0.4555,0.4691,0.5536,0.9062,1.37,1.8358,2.1489,2.2836,2.3271,2.3308,2.2326,2.111,2.0334,2.0133,1.9893,1.8751,1.849,1.8317,1.7709,1.7602,1.7762,1.8151,1.9417,2.1294,2.3776,2.5775,2.7781,2.9966,3.0654,3.0947,3.0947,3.0947,3.0928,3.0898,3.0762,3.0645,3.0645,2.8979,0.0,2.1538,2.2654,2.2654,2.1172,2.0828,2.0535,2.0173,1.9947,1.9659,1.9424,1.9424,1.9424,1.9417,1.9085,1.8791,1.8477,0.0,0.0,0.0,1.7582,1.7582,1.7528,1.6994,1.6754,1.664,1.6057,1.5831,1.5784,0.0,0.0,0.0,0.0,0.0,0.0,0.0,0.0,0.0,0.0,0.0,0.0,0.0,0.0462,0.0798,0.0815,0.0,0.0,0.0,0.0,0.0,0.0,0.0,0.0,0.0,0.0,0.8696,0.8849,0.6373,0.0,0.0,0.0,0.0,0.0,0.0,0.1578,0.1578,0.1566,0.0,0.0,0.0,0.0,0.0,0.0,0.0,0.0,0.0,0.0,0.3926,0.2311,0.2315,0.3356,0.5569,0.8504,1.2459,1.8674,2.0069,2.0019,2.2251,2.175,2.0488,2.0074,1.9973,1.9713,1.8718,1.849,1.8317,1.7709,1.7582,1.7622,1.7742,1.8385,1.9585,2.1658,2.3593,2.5547,2.7762,2.9287,3.0185,3.0439,3.0723,3.0889,3.0889,3.0889,3.046,2.9471,2.9717,0.0,2.4278,2.3745,2.2834,2.1172,2.0655,2.0347,2.0173,1.9773,1.9486,1.9424,1.9424,1.9424,1.9417,1.9058,1.8764,1.8477,1.8176,0.0,0.0,1.7582,1.7582,1.7542,1.7186,1.6867,1.6653,1.6246,1.5985,1.5784,0.0,0.0,0.0,0.0,0.0,0.0,0.0,0.0,0.0,0.0,0.0,0.0,0.0,0.0,0.0,0.0,0.0876,0.0,0.0,0.0,0.0,0.0,0.0,0.0,0.0,0.0,0.9421,0.908,0.6029,0.4622,0.0,0.0,0.0,0.0,0.0,0.0,0.0,0.0,0.0,0.0,0.0,0.0,0.0,0.0,0.0,0.0,0.0,0.0,0.0,0.0,0.0,0.1756,0.3679,0.5233,0.7818,1.5541,1.7498,1.7886,2.0892,2.098,2.0167,1.9873,1.98,1.9573,1.8691,1.849,1.8317,1.7709,1.7582,1.7582,1.7582,1.7836,1.8611,2.0392,2.2322,2.437,2.6545,2.8558,2.9912,3.0351,3.0693,3.0889,3.0889,3.0889,3.0401,2.9226,3.0206,0.0,2.6832,2.553,2.384,2.1777,2.1622,2.1124,2.0107,2.0068,1.9809,1.9424,1.9424,1.9325,1.9225,1.8931,1.8637,1.8343,0.0,0.0,0.0,1.7582,1.7582,1.7549,1.7219,1.6894,1.666,1.6279,1.6012,1.5784,0.0,0.0,0.0,0.0,0.0,0.0,0.0,0.0,0.0,0.0,0.0,0.0,0.0,0.0,0.0,0.0,0.0,0.0,0.0,0.0,0.0,0.0,0.0,0.0,0.0,0.0,1.1061,0.9602,0.6316,0.4786,0.48,0.1539,0.0,0.0,0.0,0.0,0.0,0.0,0.0,0.0,0.0,0.0,0.0,0.0,0.0,0.0,0.0,0.0,0.0,0.0,0.0,0.0,0.0,0.4526,0.5742,1.1774,1.5316,1.7519,1.9017,1.9793,2.0167,1.9873,1.98,1.9573,1.8691,1.849,1.8317,1.7709,1.7582,1.7582,1.7582,1.7836,1.8611,2.0392,2.2576,2.4743,2.7005,2.8984,3.0361,3.083,3.0889,3.0889,3.0889,3.0889,3.0889,3.0889,0.0,0.0,2.8477,2.7998,2.6295,2.3202,2.4217,2.3231,1.9866,2.0967,2.0866,1.9424,1.9424,1.9212,1.8918,1.8631,1.833,0.0,0.0,0.0,0.0,1.7582,1.7582,1.7522,1.6941,1.6707,1.6633,1.6046,1.5784,1.5784,0.0,0.0,0.0,0.0,0.0,0.0,0.0,0.0,0.0,0.0,0.0,0.0,0.0,0.0,0.0,0.0,0.0,0.0,0.0,0.0,0.0,0.0,0.0,0.0,0.0,0.0,1.124,0.9754,0.6433,0.493,0.4952,0.159,0.0,0.0,0.0,0.0,0.0,0.0,0.0,0.0,0.0,0.0,0.0,0.0,0.0,0.0,0.0,0.0,0.0,0.0,0.0,0.0,0.0,0.0,0.0,1.0609,1.3177,1.5192,1.6851,1.8134,1.9018,1.8925,1.8905,1.8778,1.8297,1.8135,1.807,1.7662,1.7582,1.7582,1.7582,1.7662,1.8117,1.9257,2.09,2.2895,2.5341,2.7338,2.9008,3.0276,3.0703,3.0889,3.0889,0.0,3.0889,3.0889,0.0,0.0,2.9699,2.9498,2.7939,2.4723,2.4504,2.3447,2.1328,2.1521,2.0751,1.9065,1.9998,1.978,1.8673,1.9328,0.0,0.0,0.0,0.0,0.0,1.7582,1.7468,1.73,1.6854,1.6587,1.6359,1.5972,1.5784,1.5784,0.0,0.0,0.0,0.0,0.0,0.0,0.0,0.0,0.0,0.0,0.0,0.0,0.0,0.0,0.0,0.0,0.0,0.0,0.0,0.0,0.0,0.0,0.0,0.0,1.0197,1.2024,1.2252,1.0753,0.749,0.5647,0.5022,0.2306,0.0677,0.0,0.0,0.0291,0.0,0.0,0.0,0.0,0.0,0.0,0.0,0.0,0.0,0.0,0.0,0.0,0.0,0.0,0.0,0.0,0.0,0.0,0.0,0.0,1.1365,1.3076,1.4855,1.6456,1.768,1.768,1.8082,1.841,1.8062,1.7995,1.7902,1.7649,1.7582,1.7582,1.7582,1.7669,1.7969,1.8651,2.0533,2.2656,2.4688,2.6982,2.8964,3.0295,3.0713,3.0889,3.0889,3.0889,3.0889,0.0,0.0,0.0,3.0215,2.9893,2.8776,2.6721,2.6263,2.4689,2.1885,2.2245,2.1259,1.8925,2.0278,2.0,1.8372,1.9538,0.0,0.0,0.0,0.0,0.0,1.7514,1.7367,1.7159,1.67,1.6433,1.6239,1.5939,1.5784,1.5784,0.0,0.0,0.0,0.0,0.0,0.0,0.0,0.0,0.0,0.0,0.0,0.0,0.0,0.0,0.0,0.0,0.0,0.0,0.0,0.0,0.0,0.0,0.0,0.0,1.1861,1.352,1.3773,1.2394,0.9171,0.6737,0.5102,0.3464,0.1739,0.0,0.0,0.077,0.0,0.0,0.0,0.0,0.0,0.0,0.0,0.0,0.0,0.0,0.0,0.0,0.0,0.0,0.0,0.0,0.0,0.0,0.0,0.0,0.0,0.0,0.0,1.4833,1.6245,1.6357,1.7444,1.8357,1.8022,1.7962,0.0,1.7642,1.7582,1.7589,1.7609,1.7816,1.811,1.849,2.1093,2.3554,2.492,2.7719,2.9932,3.0791,3.0889,3.0889,3.0889,3.0859,3.084,0.0,0.0,0.0,3.0107,2.9346,2.8906,2.8877,2.8848,2.66,2.1945,2.3223,2.2322,1.9133,2.0485,2.0048,1.8171,1.9575,0.0,0.0,0.0,0.0,0.0,1.7313,1.7172,1.7085,1.6536,1.6308,1.6206,1.5932,1.5784,1.5784,0.0,0.0,0.0,0.0,0.0,0.0,0.0,0.0,0.0,0.0,0.0,0.0,0.0,0.0,0.0,0.0,0.0,0.0,0.0,0.0,0.0,0.0,0.0,0.0,1.1924,1.2599,1.2825,1.2641,0.9343,0.6949,0.526,0.3534,0.1713,0.0,0.0,0.0179,0.0,0.0,0.0,0.0,0.0,0.0,0.0,0.0,0.0,0.0,0.4526,0.2573,0.0,0.0,0.0,0.0,0.0,0.0,0.0,0.0,0.9154,0.9761,1.1266,0.0,1.5869,1.7021,1.7576,1.7776,0.0,1.7695,1.7669,1.7595,1.7582,1.7655,1.7896,1.7796,1.8009,1.9055,1.9637,2.1119,2.4456,2.79,3.0254,3.082,3.0889,3.0889,3.0889,3.0566,0.0,0.0,0.0,2.957,2.9238,2.9033,2.8769,2.8447,2.8125,2.6846,2.4544,2.4877,2.3787,2.1366,2.2714,2.19,1.9285,2.0656,0.0,0.0,0.0,0.0,1.73,1.7233,1.6931,1.6516,1.6375,1.6132,1.5925,1.5804,1.5784,1.5784,0.0,0.0,0.0,0.0,0.0,0.0,0.0,0.0,0.0,0.0,0.0,0.0,0.0,0.0,0.0,0.0,0.0,0.0,0.0,0.0,0.0,0.0,0.0,1.0648,1.3038,1.3444,1.3631,1.376,1.1404,0.8607,0.5391,0.4384,0.2544,0.0062,0.1521,0.1372,0.0,0.0,0.0,0.0,0.0,0.0,0.0,0.0,0.0,0.0,0.4526,0.2573,0.0,0.2516,0.3799,0.4862,0.0,0.0,0.0,0.0,0.8832,0.9247,1.1242,1.3179,1.4993,1.6473,1.7295,1.7796,1.7796,1.7582,1.7434,1.7434,1.7434,1.7637,1.8422,1.8699,1.9299,2.0685,2.1503,2.3157,2.6601,2.8861,3.0371,3.083,3.0889,3.081,0.0,0.0,0.0,0.0,0.0,2.917,2.8926,2.874,2.8525,2.8301,2.7933,2.6946,2.5441,2.5217,2.4088,2.2116,2.3443,2.2519,1.9627,2.1041,2.0179,0.0,0.0,0.0,1.7192,1.7052,1.673,1.6259,1.6119,1.5972,1.5784,1.5784,1.5784,1.5784,0.0,0.0,0.0,0.0,0.0,0.0,0.0,0.0,0.0,0.0,0.0,0.0,0.0,0.0,0.0,0.0,0.0,0.0,0.0,0.0,0.0,0.0,0.7192,1.0447,1.3946,1.4415,1.4732,1.5008,1.3707,1.0585,0.5816,0.5533,0.3607,0.0493,0.3155,0.2994,0.0,0.0,0.0,0.0,0.0,0.0,0.0,0.0,0.0,0.0,0.0,0.0,0.0,0.3466,0.4526,0.5027,0.7986,0.0,0.0,0.0,0.0,0.0,1.1657,1.3001,1.413,1.5705,1.7086,1.7982,1.7935,1.7549,1.7199,1.7199,1.7199,1.7616,1.9014,1.9813,2.0825,2.2499,2.4419,2.6461,2.8843,2.9663,3.0176,3.0635,3.0693,0.0,3.0137,0.0,0.0,0.0,0.0,2.8818,0.0,2.8486,2.8262,2.8203,2.7793,2.6926,2.5543,2.5206,2.4214,2.2654,2.3772,2.2775,1.9981,2.1143,2.0179,0.0,0.0,0.0,1.7112,1.676,1.6466,1.6179,1.5925,1.5784,1.5784,1.5784,1.5784,1.5784,0.0,0.0,0.0,0.0,0.0,0.0,0.0,0.0,0.0,0.0,0.0,0.0,0.0,0.0,0.0,0.0,0.0,0.0,0.0,0.0,0.0,0.276,0.4589,0.773,1.2332,1.266,1.3503,1.5008,1.3589,1.1092,0.7578,0.6104,0.4239,0.2155,0.264,0.3306,0.4209,0.0,0.0,0.0,0.0,0.0,0.0,0.0,0.0,0.0,0.0,0.0,0.0,0.3466,0.4526,0.5027,0.7986,0.0,0.0,0.0,0.0,0.0,1.0693,1.2478,1.439,1.6499,1.7503,1.7922,1.7716,1.744,1.7199,1.7199,1.7199,1.7678,1.9251,1.9971,2.0902,2.2833,2.4765,2.6309,2.7021,2.8281,2.9277,2.9717,0.0,2.9746,0.0,0.0,0.0,0.0,0.0,0.0,0.0,2.833,2.8125,2.7826,2.7344,2.6832,2.627,2.6203,2.5793,2.5174,2.537,2.4003,2.1397,2.16,2.0179,0.0,0.0,1.7099,1.6754,1.646,1.6166,1.5892,1.5798,1.5784,1.5784,1.5784,1.5784,1.5784,0.0,0.0,0.0,0.0,0.0,0.0,0.0,0.0,0.0,0.0,0.0,0.0,0.0,0.0,0.0,0.0,0.0,0.0,0.0,0.0,0.0,0.111,0.2708,0.5876,1.0759,1.2069,1.3083,1.376,1.4262,1.2256,0.7934,0.6108,0.4766,0.3932,0.479,0.5073,0.4978,0.5889,0.4821,0.0,0.0,0.0,0.0,0.0,0.0,0.0,0.0,0.0,0.0,0.0,0.4402,0.5012,0.7813,0.0,0.0,0.0,0.0,0.0,1.0028,1.1978,1.4003,1.5686,1.7294,1.8428,1.8337,1.7829,1.7434,1.7434,1.7306,1.7893,2.0074,2.1155,2.2626,2.5496,2.6714,2.7427,2.7842,2.8468,2.9082,0.0,0.0,0.0,0.0,0.0,0.0,0.0,0.0,0.0,0.0,0.0,2.7519,2.7324,2.6894,2.6582,2.6387,2.6152,2.5888,2.5684,2.4971,2.3583,2.1702,2.1702,2.059,1.8693,0.0,1.8067,1.7704,1.6729,1.6099,1.5784,1.5784,1.5784,1.5784,1.5784,1.5784,1.5784,0.0,0.0,0.0,0.0,0.0,0.0,0.0,0.0,0.0,0.0,0.0,0.0,0.0,0.0,0.0,0.0,0.0,0.0,0.0,0.0,0.0,0.0,0.1233,0.423,0.908,1.1221,1.2603,1.3327,1.4565,1.2702,0.7987,0.6473,0.5716,0.5736,0.6908,0.6911,0.6159,0.7387,0.6077,0.0,0.0,0.0,0.0,0.0,0.0,0.0,0.0,0.0,0.0,0.0,0.0,0.0,0.0,0.0,0.0,0.8336,0.8245,0.8451,0.9352,1.1119,1.3032,1.4346,1.668,1.8651,1.8791,1.8123,1.7522,1.7662,1.7455,1.8,2.0382,2.221,2.4456,2.7627,2.8232,2.8408,2.873,2.8769,2.8896,2.9228,2.9323,0.0,0.0,0.0,0.0,0.0,0.0,0.0,0.0,0.0,2.6973,2.6875,2.6553,2.6338,2.624,2.5908,2.5693,2.5684,2.4353,2.2976,2.1702,2.1347,2.0436,1.9095,1.8753,1.8496,1.8134,1.6745,1.6039,1.5784,1.5784,1.5784,1.5784,1.5784,1.5784,1.5784,0.0,0.0,0.0,0.0,0.0,0.0,0.0,0.0,0.0,0.0,0.0,0.0,0.0,0.0,0.0,0.0,0.0,0.0,0.0,0.0,0.0,0.0,0.0123,0.2455,0.7369,0.9284,1.1801,1.5127,1.3789,1.1372,0.7992,0.7722,0.7537,0.7393,0.7393,0.8139,0.9438,0.9569,0.7734,0.4719,0.4753,0.0,0.0,0.0,0.0,0.0,0.0,0.0,0.0,0.0,0.0,0.0,0.0,0.0,0.835,0.833,0.817,0.8085,0.8367,0.9701,1.1388,1.2823,1.5429,1.7822,1.839,1.7829,1.7393,1.7849,1.7769,1.8007,1.9435,2.254,2.5488,2.7418,2.8037,2.8301,2.833,0.0,2.835,2.8379,0.0,0.0,0.0,0.0,0.0,0.0,0.0,0.0,0.0,0.0,0.0,2.6445,2.6406,2.6191,2.5742,2.5703,2.5693,2.5684,2.4353,2.2976,2.1651,2.0333,1.9013,1.7706,1.7133,1.687,1.681,1.6092,1.5798,1.5784,1.5784,1.5784,1.5784,1.5784,1.5784,1.5784,0.0,0.0,0.0,0.0,0.0,0.0,0.0,0.0,0.0,0.0,0.0,0.0,0.0,0.0,0.0,0.0,0.0,0.0,0.0,0.0,0.0,0.0,-0.0851,-0.0061,0.2829,0.5661,0.8222,1.0665,1.1268,1.0885,0.9695,0.9549,0.9408,0.9292,0.9077,0.9338,0.9822,0.9822,0.8529,0.6365,0.5343,0.0,0.0,0.0,0.0,0.0,0.0,0.0,0.0,0.0,0.3023,0.4437,0.5786,0.7154,0.8252,0.8153,0.8035,0.8002,0.8109,0.9411,1.1157,1.277,1.4582,1.6436,1.8139,1.823,1.836,1.9676,1.8988,1.8564,2.0027,2.263,2.4969,2.6163,2.7237,2.7998,2.8252,2.8291,2.8291,0.0,0.0,0.0,0.0,0.0,0.0,0.0,0.0,0.0,0.0,0.0,0.0,2.5986,2.5986,2.5908,2.5693,2.5693,2.5693,2.5684,2.3484,2.2206,2.1643,2.0231,1.9214,1.8548,1.811,1.7858,1.7601,1.632,1.5784,1.5784,1.5784,1.5784,1.5784,1.5784,1.6292,1.699,0.0,0.0,0.0,0.0,0.0,0.0,0.0,0.0,0.0,0.0,0.0,0.0,0.0,0.0,0.0,0.0,0.0,0.0,0.0,0.0,0.0,0.0,-0.1434,-0.1669,-0.0595,0.1754,0.4564,0.7874,1.0205,1.1098,1.0578,1.0426,1.03,1.0202,1.0046,0.9859,0.9822,0.9822,0.8812,0.7231,0.6042,0.4326,0.0,0.0,0.0,0.0,0.0,0.0,0.0,0.0,0.2965,0.4257,0.5113,0.6687,0.8076,0.7516,0.7719,0.8113,0.8113,0.9016,1.0453,1.2566,1.3721,1.5013,1.7742,1.8343,1.8885,2.0726,2.0082,1.9626,2.0956,2.257,2.3978,2.5043,2.6485,2.7559,2.7851,2.7891,0.0,0.0,0.0,0.0,0.0,0.0,0.0,0.0,0.0,0.0,0.0,0.0,0.0,0.0,2.5693,2.5693,2.5693,2.5274,2.5069,2.502,2.2316,2.1296,2.1643,1.9721,1.8752,1.8528,1.8101,1.7845,1.7572,1.632,1.5784,1.5784,1.5784,1.5784,1.5784,1.5784,1.6339,1.7084,0.0,0.0,0.0,0.0,0.0,0.0,0.0,0.0,0.0,0.0,0.0,0.0,0.0,0.0,0.0,0.0,0.0,0.0,0.0,0.0,0.0,0.0,-0.1411,-0.2231,-0.2231,-0.2231,0.1124,0.7976,1.1228,1.1968,1.0276,1.0124,0.9987,0.9977,0.989,0.9819,0.9819,0.9819,0.8757,0.713,0.7133,0.5165,0.2223,0.0,0.0,0.0,0.0,0.0,0.0,0.0,0.2864,0.3966,0.4016,0.5822,0.7739,0.6381,0.7077,0.8323,0.832,0.832,0.9013,1.1877,1.2705,1.3719,1.7208,1.7975,1.8578,2.0626,2.0878,2.1033,2.207,2.2264,2.2722,2.4065,2.5818,2.7012,2.7012,0.0,0.0,0.0,0.0,0.0,0.0,0.0,0.0,0.0,0.0,0.0,0.0,0.0,0.0,0.0,2.5693,2.5693,2.5684,2.4353,2.3683,2.3674,2.0888,2.0326,2.1576,1.8585,1.7199,1.7159,1.6576,1.6321,1.6246,1.5952,1.5784,1.5784,1.5784,1.5832,1.5825,1.5825,1.5832,1.5825,0.0,0.0,0.0,0.0,0.0,0.0,0.0,0.0,0.0,0.0,0.0,0.0,0.0,0.0,0.0,0.0,0.0,0.0,0.0,0.0,0.0,0.0,-0.2552,-0.3929,-0.3929,-0.278,0.0479,0.5985,0.8198,0.9621,1.028,1.0236,1.0097,0.9886,0.9842,0.9707,0.951,0.951,0.9189,0.8608,0.7421,0.5743,0.3814,0.0,0.0,0.0,0.0,0.0,0.0,0.0,0.0,0.0,0.3715,0.5267,0.6687,0.6152,0.7077,0.8248,0.8136,0.883,1.0162,1.224,1.3669,1.5141,1.7271,1.8043,1.8574,1.9381,2.0012,2.0187,1.942,2.0711,2.2112,2.2783,2.4965,2.668,0.0,0.0,0.0,0.0,0.0,0.0,0.0,0.0,0.0,0.0,0.0,0.0,0.0,0.0,0.0,0.0,2.5693,2.5538,2.5273,2.4024,2.3238,2.291,2.0213,1.931,1.9884,1.8039,1.6971,1.6576,1.6402,1.6152,1.5952,1.5818,1.5784,1.5784,1.5784,1.6339,1.7131,1.7131,1.8218,1.9563,0.0,0.0,0.0,0.0,0.0,0.0,0.0,0.0,0.0,0.0,0.4227,0.4092,0.0,0.0,0.0,0.0,0.0,0.0,0.0,0.0,-0.0276,-0.0832,-0.3271,-0.4641,-0.4642,-0.3671,-0.048,0.5049,0.6692,0.8685,1.0867,1.0321,1.0217,1.0568,1.0034,0.969,0.9473,0.9473,0.9401,0.9222,0.8211,0.6863,0.5308,0.0,0.0,0.0,0.0,0.0,0.0,0.0,0.0,0.0,0.2964,0.4199,0.5346,0.5238,0.6308,0.7734,0.8769,0.9736,1.0941,1.3252,1.4588,1.5753,1.739,1.8522,1.9296,1.9549,1.9961,2.0022,1.9085,1.9956,2.1113,2.1956,2.3901,2.5595,0.0,0.0,0.0,0.0,0.0,0.0,0.0,0.0,0.0,0.0,0.0,0.0,0.0,0.0,0.0,0.0,2.5469,2.5015,2.4136,2.331,2.2554,2.1782,2.0144,1.9169,1.8711,1.7439,1.6656,1.6315,1.6146,1.5999,1.5784,1.5784,1.5784,1.5784,1.5784,1.6574,1.7692,1.7692,1.891,2.0395,0.0,0.0,0.0,0.0,0.0,0.0,0.0,0.0,0.0,0.0,0.5864,0.6121,0.0,0.0,0.0,0.0,0.0,0.0,0.0,0.0,-0.0644,-0.2122,-0.3665,-0.4512,-0.4546,-0.4506,-0.144,0.4864,0.6242,0.8503,1.1593,1.0354,1.0395,1.1548,1.0412,0.9792,0.9527,0.9527,0.9361,0.9146,0.9146,0.8091,0.6501,0.6494,0.0,0.0,0.0,0.0,0.0,0.0,0.0,0.0,0.1962,0.2868,0.3874,0.3967,0.5084,0.693,0.9896,1.0772,1.1586,1.4612,1.5393,1.5854,1.7587,1.9063,2.012,2.0386,2.0254,2.0023,2.0023,1.9829,2.0084,2.1448,2.2791,0.0,0.0,0.0,0.0,0.0,0.0,0.0,0.0,0.0,0.0,0.0,0.0,0.0,0.0,0.0,0.0,0.0,2.5057,2.4268,2.27,2.2456,2.1807,0.0,2.0431,1.9598,1.8173,1.7022,1.6399,1.6219,1.5945,1.5784,1.5784,1.5784,1.5784,1.5784,1.5784,1.6669,1.787,1.787,1.8688,1.9633,0.0,0.0,0.0,0.0,0.0,0.0,0.0,0.0,0.0,0.0,0.0,0.0,0.0,0.0,0.0,0.0,0.0,0.0,0.0,0.0,-0.064,-0.2138,-0.3765,-0.4688,-0.484,-0.3598,-0.0425,0.4742,0.5042,0.6896,1.0073,1.0751,1.0616,0.9817,1.0634,1.0205,0.8903,0.8903,0.8798,0.8628,0.8628,0.7727,0.6328,0.6321,0.5175,0.0,0.0,0.0,0.0,0.0,0.0,0.0,0.1661,0.2287,0.2766,0.3732,0.5084,0.691,0.9701,1.124,1.2557,1.4688,1.6147,1.7265,1.7855,1.8116,1.8287,1.8542,1.8357,1.819,1.819,1.8959,2.0084,2.1448,2.2516,0.0,0.0,0.0,0.0,0.0,0.0,0.0,0.0,0.0,0.0,0.0,0.0,0.0,0.0,0.0,0.0,2.456,2.456,2.4208,2.3554,2.2566,2.175,0.0,2.018,1.9502,1.916,1.8193,1.704,1.5919,1.5811,1.5784,1.5784,1.5784,1.5784,1.5784,1.5784,1.7163,1.9131,1.9131,2.0503,2.1996,0.0,0.0,0.0,0.0,0.0,0.0,0.0,0.0,0.0,0.0,0.0,0.0,0.0,0.0,0.0,0.0,0.0,0.0,0.0,0.0,-0.1007,-0.3224,-0.4178,-0.4731,-0.4692,-0.3236,-0.012,0.469,0.4653,0.6963,1.145,1.0809,1.0811,1.1341,1.0754,0.9929,0.8916,0.8849,0.8689,0.8482,0.8482,0.8017,0.7269,0.7256,0.6315,0.4885,0.4183,0.0,0.0,0.0,0.0,0.0,0.0,0.0,0.1531,0.3425,0.4547,0.5961,0.9478,1.1447,1.3204,1.5732,1.699,1.7622,1.7789,1.7589,1.7474,1.7582,1.7488,1.7427,1.7427,1.786,1.8658,2.0045,0.0,0.0,0.0,0.0,0.0,0.0,0.0,0.0,0.0,0.0,0.0,0.0,0.0,0.0,0.0,2.4541,2.4326,2.4121,2.4111,2.3625,2.2591,2.2556,2.2121,2.1293,2.1266,2.0899,2.0305,1.8637,1.7472,1.6669,1.6062,1.5784,1.5784,1.5784,1.5784,1.5872,1.648,1.7855,1.9579,2.0169,2.1534,2.2775,0.0,0.0,0.0,0.0,0.0,0.0,0.0,0.0,0.0,0.0,0.0,0.0,0.0,0.0,0.0,0.0,0.0,0.0,0.0,-0.0259,-0.1529,-0.4043,-0.4212,-0.4221,-0.4176,-0.2554,0.035,0.4652,0.4745,0.7818,1.3553,1.1216,1.1437,1.3588,1.1313,0.9972,0.9415,0.9016,0.8682,0.8404,0.8404,0.8336,0.8231,0.8231,0.7437,0.6331,0.6079,0.4572,0.2615,0.2163,0.0,0.0,0.0,0.0,0.0504,0.2916,0.3815,0.488,0.8938,1.1568,1.3786,1.652,1.7344,1.7508,1.7508,1.7373,1.7186,1.7132,1.7125,1.7125,1.7125,1.6874,1.7143,0.0,0.0,0.0,0.0,0.0,0.0,0.0,0.0,0.0,0.0,0.0,0.0,0.0,0.0,0.0,2.4307,2.4238,2.4033,2.3691,2.3682,2.3032,2.1614,2.2589,2.2589,2.1614,2.2633,2.2589,2.1525,1.9093,1.7917,1.7638,1.6574,1.6109,1.6109,1.5872,1.592,1.6204,1.7037,1.8226,1.9579,2.0395,2.1721,2.2731,0.0,0.0,0.0,0.0,0.0,0.0,0.0,0.0,0.0,0.0,0.8771,0.8213,0.6433,0.5172,0.0,0.0,0.0,0.0,0.0,0.0,0.0,-0.2723,-0.2628,-0.2596,-0.275,-0.0057,0.2399,0.4499,0.5579,0.8806,1.3984,1.3435,1.3305,1.3694,1.3335,1.2133,1.0391,0.9124,0.837,0.8049,0.8049,0.8035,0.8019,0.8019,0.7905,0.7587,0.6431,0.5779,0.5125,0.2766,0.1862,0.0,0.0,0.0,0.0303,0.1812,0.3115,0.468,0.7813,1.1535,1.4667,1.5341,1.6367,1.7259,1.7259,1.7233,1.7125,1.682,1.6767,1.6767,1.6767,1.6734,1.7143,0.0,0.0,0.0,0.0,0.0,0.0,0.0,0.0,0.0,0.0,0.0,0.0,0.0,0.0,0.0,2.3877,2.3471,2.3237,2.3188,2.3179,2.3106,2.2862,2.3003,2.3003,2.2862,2.3003,2.3003,2.2775,2.0359,1.8688,1.7684,1.7505,1.7458,1.7365,1.6251,1.6433,1.7365,1.6433,1.7483,1.9405,1.8503,2.0277,2.2599,0.0,0.0,0.0,0.0,0.0,0.0,0.0,0.0,0.0,0.0,0.0,0.8017,0.565,0.483,0.0,0.0,0.0,0.0,0.0,-0.0622,0.0,0.0,-0.1469,-0.142,-0.2309,-0.022,0.1646,0.3207,0.4471,0.7382,1.1722,1.3365,1.4595,1.5527,1.4536,1.3377,1.2057,1.0422,0.9473,0.9069,0.8283,0.8092,0.816,0.8022,0.8092,0.8056,0.7363,0.6631,0.5727,0.3768,0.2614,0.1762,0.0404,0.0,0.0,0.0,0.2966,0.4832,0.8527,1.0918,1.277,1.4549,1.5444,1.6062,1.6742,1.6774,1.6464,1.5519,1.522,1.5409,1.6328,1.5718,1.5554,0.0,0.0,0.0,0.0,0.0,0.0,0.0,0.0,0.0,0.0,0.0,0.0,0.0,0.0,2.3428,2.3428,2.3198,2.3091,2.3091,2.3091,2.3091,2.3091,2.3091,2.3091,2.3091,2.3091,2.3091,2.3047,2.1996,2.0494,1.8634,1.7264,1.6622,1.6669,1.6803,1.7178,1.7777,1.858,1.9115,1.9542,1.967,2.0719,2.1667,0.0,0.0,0.0,0.0,0.0,0.0,0.0,0.0,0.0,0.0,0.0,0.7844,0.5269,0.0,0.0,0.0,0.0,0.0,0.0,0.0,0.0,0.0,0.0,-0.0529,-0.1638,-0.0212,0.1058,0.2217,0.3516,0.6079,0.9885,1.2139,1.4588,1.705,1.5684,1.4627,1.3777,1.2006,1.0886,1.0133,0.8999,0.8463,0.8262,0.8184,0.8225,0.8303,0.8153,0.7438,0.6372,0.4979,0.3867,0.2766,0.1461,0.1005,0.0,0.0,0.0,0.481,0.863,0.9946,1.0771,1.3073,1.4143,1.49,1.5876,1.6223,1.5898,1.4472,1.3765,1.3744,1.4978,1.4497,1.4214,0.0,0.0,0.0,0.0,0.0,0.0,0.0,0.0,0.0,0.0,0.0,0.0,0.0,0.0,2.3091,2.3091,2.3091,2.3091,2.3091,2.3091,2.3091,2.3091,2.3091,2.3091,2.3091,2.3091,2.3091,2.3091,2.2775,2.1676,1.9852,1.7979,1.7203,1.725,1.7902,1.8319,1.8772,2.026,2.0486,1.9988,2.026,2.0755,2.0935,0.0,0.0,0.0,0.0,0.0,0.0,0.0,0.0,0.0,0.0,0.0,0.0,0.6587,0.525,0.3819,0.207,0.0,0.0,0.0,0.0,0.0,0.0,0.0,0.0,-0.0104,0.1193,0.2021,0.2176,0.3406,0.6039,1.0,0.9957,1.2586,1.7374,1.7132,1.6449,1.5358,1.3641,1.2102,1.0815,1.0268,0.9361,0.8337,0.8411,0.8465,0.8452,0.8309,0.8258,0.7926,0.6419,0.5829,0.5577,0.4218,0.3722,0.3378,0.0,0.0,0.0,0.7004,0.8767,0.9931,1.036,1.2418,1.4327,1.4426,1.5422,1.5839,1.4238,1.292,1.2047,1.2106,1.3113,0.0,0.0,0.0,0.0,0.0,0.0,0.0,0.0,0.0,0.0,0.0,0.0,0.0,0.0,0.0,2.3091,2.3091,2.3091,2.3091,2.3091,2.3091,2.3091,2.3091,2.3091,2.3091,2.3091,2.3091,2.3091,2.3047,2.1943,2.1337,2.1203,2.1069,2.1025,2.0935,1.9852,2.0079,2.1025,1.9988,2.026,2.0935,1.8726,1.936,2.0792,0.0,0.0,0.0,0.0,0.0,0.0,0.0,0.0,0.0,0.0,0.0,0.0,0.0,0.516,0.3666,0.2117,0.0756,0.0,0.0,0.0,0.0,0.0,0.0,0.0,0.0,0.0459,0.0764,0.0764,0.207,0.4065,0.6629,0.8644,1.0967,1.3562,1.5584,1.6751,1.7006,1.4756,1.3068,1.1784,1.0643,0.9477,0.8411,0.8462,0.8543,0.8598,0.8357,0.8323,0.8041,0.6522,0.5979,0.5765,0.4309,0.3832,0.3851,0.4233,0.4666,0.5446,0.7146,0.8032,0.8731,0.9698,1.0681,1.1637,1.2564,1.3138,1.3067,1.1663,1.1019,1.0435,0.9554,1.048,0.0,0.0,0.0,0.0,0.0,0.0,0.0,0.0,0.0,0.0,0.0,0.0,0.0,0.0,0.0,0.0,2.3091,2.3091,2.3091,2.3091,2.3091,2.3091,2.3091,2.3091,2.3091,2.3091,2.3091,2.3091,2.3101,2.2633,2.2448,2.2448,2.2448,2.1578,2.0169,2.0522,2.089,2.1337,2.1676,2.1578,2.1203,2.035,2.0079,1.9852,0.0,0.0,0.0,0.0,0.0,0.0,0.0,0.0,0.873,0.8781,0.0,0.0,0.0,0.0,0.351,0.1514,0.0504,0.0,0.0,0.0,0.0,0.0,0.0,0.0,0.0,0.0,0.0,0.0,0.0907,0.2218,0.3994,0.6627,0.8832,1.0719,1.3147,1.5341,1.7207,1.5925,1.4607,1.3217,1.1676,1.0244,0.9038,0.8733,0.8635,0.8608,0.8411,0.8364,0.8143,0.703,0.6681,0.6509,0.5452,0.4793,0.4631,0.5751,0.5911,0.591,0.7098,0.7553,0.7912,0.8811,0.9385,0.9966,1.1007,1.155,1.1468,1.023,0.9998,0.9608,0.8237,0.8726,0.0,0.0,0.0,0.0,0.0,0.0,0.0,0.0,0.0,0.0,0.0,0.0,0.0,0.0,0.0,0.0,2.3091,2.3091,2.3091,2.3091,2.3091,2.3091,2.3091,2.3091,2.3091,2.3091,2.3091,2.3091,2.3091,2.3091,2.3091,2.3091,2.3091,2.2183,2.0764,2.1578,2.1889,2.1987,2.2775,2.2633,2.1845,2.1426,2.0531,1.9314,0.0,0.0,0.0,0.0,0.0,0.0,0.0,0.0,0.8764,0.8858,0.0,0.0,0.0,0.0,0.0,0.0253,0.0,0.0,0.0,0.0,0.0,0.0,0.0,0.0,0.0,0.0,0.0,0.0,0.0,0.0874,0.2495,0.3872,0.6185,0.9272,1.0108,1.2428,1.5867,1.7006,1.6579,1.4983,1.3393,1.1733,1.0086,0.9241,0.875,0.8496,0.8489,0.8401,0.8258,0.8099,0.7995,0.7968,0.7855,0.6797,0.5828,0.6824,0.6343,0.5725,0.0,0.0,0.0,0.7556,0.8509,0.9516,0.9847,1.0798,1.1282,1.0147,0.994,0.955,0.8233,0.7988,0.0,0.0,0.0,0.0,0.0,0.0,0.0,0.0,0.0,0.0,0.0,0.0,0.0,0.0,0.0,2.3091,2.3091,2.3091,2.3091,2.3091,2.3091,2.3091,2.3091,2.3091,2.3091,2.3091,2.3091,2.3091,2.3091,2.3091,2.3091,2.3091,2.3091,2.3091,2.3091,2.3091,2.3091,2.3091,2.3091,2.3091,2.296,2.18,2.0576,1.9314,0.0,0.0,0.0,0.0,0.0,0.9381,0.9381,0.9001,0.8726,0.0,0.0,0.0,0.7872,0.5615,0.3007,0.0258,0.0,0.0,0.0,0.0,0.0,0.0,0.0,0.0,0.0,0.0,0.0,0.0,0.0,0.071,0.2147,0.3621,0.5326,0.7261,1.0557,1.2543,1.3575,1.4539,1.4277,1.3245,1.2618,1.1034,0.9069,0.8831,0.8791,0.8798,0.8686,0.8621,0.855,0.8292,0.8208,0.8143,0.7773,0.7293,0.6927,0.705,0.7069,0.7007,0.7067,0.0,0.0,0.0,0.0,0.0,0.0,0.0,0.8685,0.8467,0.8403,0.8342,0.8067,0.7988,0.0,0.0,0.0,0.0,0.0,0.0,0.0,0.0,0.0,0.0,0.0,0.0,0.0,0.0,2.3091,2.3091,2.3091,2.3091,2.3091,2.3091,2.3091,2.3091,2.3091,2.3091,2.3091,2.3091,2.3091,2.3091,2.3091,2.3091,2.3091,2.3091,2.3091,2.3091,2.3091,2.3091,2.3091,2.3091,2.3091,2.3091,2.3047,2.2731,2.1311,1.9443,0.0,0.0,0.0,0.9511,0.9629,0.9476,0.9476,0.9144,0.8896,0.0,0.0,0.0,0.7728,0.5595,0.331,0.109,0.0363,0.0,0.0,0.0,0.0,0.0,0.0,0.0,0.0,0.0,0.0,0.0,0.0,0.0404,0.121,0.3201,0.454,0.5507,0.9684,1.1822,1.2359,1.3468,1.4015,1.4037,1.2929,1.1512,1.0052,0.9158,0.8781,0.8747,0.872,0.8632,0.8503,0.833,0.8187,0.8024,0.7699,0.7539,0.7438,0.7282,0.7363,0.7465,0.7285,0.7319,0.74,0.7377,0.0,0.0,0.755,0.755,0.7546,0.0,0.7334,0.718,0.7818,0.7497,0.0,0.0,0.0,0.0,0.0,0.0,0.0,0.0,0.0,0.0,0.0,0.0,0.0,2.3091,2.3091,2.3091,2.3091,2.3091,2.3091,2.3091,2.3091,2.3091,2.3091,2.3091,2.3091,2.3091,2.3091,2.3091,2.3091,2.3091,2.3091,2.3091,2.3091,2.3091,2.3091,2.3091,2.3091,2.3091,2.3091,2.3091,2.3091,2.3091,2.1898,2.0169,0.0,0.0,0.7914,0.9511,0.9703,0.9608,0.9608,0.9364,0.9234,0.0,0.9052,0.8358,0.6926,0.5528,0.4048,0.2356,0.099,0.0155,0.0,0.0,0.005,0.0202,0.0202,0.0202,0.0202,0.0202,0.0151,0.0,0.0,0.0101,0.0252,0.2815,0.4166,0.4612,0.8495,1.0921,1.2188,1.3542,1.4944,1.6022,1.3672,1.2447,1.1803,0.9665,0.8743,0.8526,0.8662,0.853,0.8344,0.8327,0.8079,0.7811,0.7668,0.7624,0.7594,0.7441,0.7453,0.7463,0.7446,0.7305,0.7193,0.7346,0.7282,0.0,0.7492,0.7458,0.7407,0.0,0.6526,0.6086,0.7177,0.0,0.0,0.0,0.0,0.0,0.0,0.0,0.0,0.0,0.0,0.0,0.0,2.3091,2.3091,2.3091,2.3091,2.3091,2.3091,2.3091,2.3091,2.3091,2.3091,2.3091,2.3091,2.3091,2.3091,2.3091,2.3091,2.3091,2.3091,2.3091,2.3091,2.3091,2.3091,2.3091,2.3091,2.3091,2.3091,2.3091,2.3091,2.3091,2.3091,2.3091,2.235,2.1159,0.0,0.8526,0.7914,0.9511,0.9703,0.9608,0.9608,0.9456,0.9337,0.9337,0.9205,0.8574,0.7159,0.6549,0.5265,0.2645,0.2043,0.1261,0.0103,0.0,0.0504,0.1561,0.1611,0.1611,0.1611,0.1611,0.1058,0.0,0.0,0.0555,0.1662,0.3265,0.5159,0.7344,1.0262,1.228,1.3584,1.4902,1.5614,1.57,1.3292,1.1793,1.0839,0.9305,0.8716,0.8669,0.8699,0.8594,0.8425,0.8361,0.8147,0.7921,0.7818,0.777,0.7743,0.7597,0.7634,0.7699,0.7587,0.7614,0.7631,0.7421,0.7441,0.0,0.7227,0.7302,0.7148,0.0,0.5793,0.5454,0.4849,0.4534,0.0,0.0,0.0,0.0,0.0,0.0,0.0,0.0,0.0,0.0,0.0,2.3091,2.3091,2.3091,2.3091,2.3091,2.3091,2.3091,2.3091,2.3091,2.3091,2.3091,2.3091,2.3091,2.3091,2.3091,2.3091,2.3091,2.3091,2.3091,2.3091,2.3091,2.3091,2.3091,2.3091,2.3091,2.3091,2.3091,2.3091,2.3091,2.3091,2.3091,2.235,2.1248,0.9242,0.833,0.7766,0.941,0.9656,0.9635,0.9703,0.9591,0.9496,0.9496,0.9429,0.9058,0.8229,0.7415,0.6287,0.4751,0.3153,0.2184,0.2074,0.1386,0.1576,0.2917,0.3015,0.3015,0.3015,0.2364,0.1661,0.1008,0.0303,0.0706,0.2013,0.3364,0.5409,0.8135,1.0707,1.2624,1.3974,1.5242,1.5784,1.5621,1.3253,1.2008,1.1326,0.9422,0.871,0.8699,0.8625,0.8503,0.8353,0.8204,0.8102,0.7965,0.7858,0.7865,0.7896,0.7746,0.7753,0.7794,0.7726,0.7706,0.7672,0.7522,0.7485,0.0,0.0,0.7255,0.7075,0.6484,0.5395,0.4656,0.4754,0.0,0.0,0.0,0.0,0.0,0.0,0.0,0.0,0.0,0.0,0.0,0.0,2.2217,2.2448,2.3047,2.3091,2.3091,2.3091,2.3091,2.3091,2.3091,2.3091,2.3091,2.3091,2.3091,2.3091,2.3091,2.3091,2.3091,2.3091,2.3091,2.2984,2.2779,2.2779,2.2705,2.251,2.251,2.251,2.2539,2.2701,2.2705,2.251,2.251,2.2107,2.1521,0.9162,0.8407,0.7946,0.9324,0.9822,0.9996,0.9761,0.9943,1.0003,0.9649,0.9649,0.9557,0.9367,0.8253,0.7371,0.6937,0.4577,0.3467,0.4276,0.3125,0.3032,0.4416,0.4435,0.4423,0.444,0.3071,0.2264,0.2013,0.0656,0.0807,0.2413,0.3515,0.5705,0.8829,1.0956,1.277,1.4316,1.5337,1.5784,1.5634,1.354,1.2593,1.2106,0.9867,0.8859,0.8604,0.8452,0.8323,0.8208,0.8032,0.8187,0.8312,0.7941,0.8083,0.8308,0.7941,0.7855,0.7855,0.7855,0.7773,0.7672,0.7614,0.7529,0.7434,0.0,0.0,0.0,0.6833,0.5085,0.0,0.0,0.0,0.0,0.0,0.0,0.0,0.0,0.0,0.0,0.0,0.0,0.0,0.0,2.1159,2.1702,2.2677,2.296,2.3091,2.3091,2.3091,2.3091,2.3091,2.3091,2.3091,2.3091,2.3091,2.3091,2.3091,2.3013,2.2974,2.2974,2.2886,2.2672,2.2393,2.2393,2.2197,2.1885,2.1885,2.1836,2.1807,2.2227,2.2187,2.1885,2.1885,2.1885,2.1751,0.9357,0.9275,0.9172,0.9405,1.0669,1.1244,0.9867,1.0913,1.1411,0.9977,0.9795,0.9785,0.9747,0.9467,0.8828,0.7627,0.6787,0.5924,0.4863,0.4278,0.4621,0.616,0.5928,0.5871,0.6014,0.4554,0.3215,0.2013,0.0656,0.131,0.3765,0.3915,0.6691,1.1453,1.175,1.3253,1.5581,1.573,1.5784,1.5709,1.4441,1.3209,1.2078,1.0712,0.9457,0.8299,0.8147,0.8029,0.8012,0.0,0.8775,0.9554,0.8361,0.881,0.9554,0.8312,0.7965,0.7965,0.7965,0.7951,0.7877,0.7665,0.7682,0.7655,0.7213,0.0,0.7034,0.5827,0.0,0.0,0.0,0.0,0.0,0.0,0.0,0.0,0.0,0.0,0.0,0.0,0.0,0.0,0.0,0.0,2.1337,2.1471,2.2492,2.3091,2.3091,2.3091,2.3091,2.3091,2.3091,2.3091,2.3091,2.3091,2.3091,2.3091,2.2721,2.2578,2.2568,2.2197,2.2002,2.1953,2.1953,2.1934,2.1885,2.1885,2.165,2.1317,2.1787,2.1924,2.1885,2.1885,2.1885,2.1885,0.9113,0.9191,0.9306,0.9306,0.9867,1.017,0.958,1.0191,1.0501,0.9869,0.9822,0.9822,0.9822,0.9768,0.948,0.8786,0.7808,0.7213,0.723,0.6262,0.6234,0.7583,0.7452,0.7382,0.7434,0.5931,0.4872,0.4321,0.2966,0.3317,0.5172,0.5172,0.7548,1.1896,1.1896,1.3355,1.5784,1.5784,1.5784,1.5743,1.5274,1.434,1.3084,1.1872,1.1025,1.0302,0.9438,0.9653,1.0141,0.0,1.0047,0.0,0.0,1.0632,1.0974,1.0435,1.0239,1.0092,0.9361,0.9167,0.8913,0.0,0.0,0.0,0.7336,0.0,0.7083,0.0,0.0,0.0,0.0,0.0,0.0,0.0,0.0592,0.0,0.0,0.0,0.0,0.0,0.0,0.0,0.0,0.0,0.0,0.0,0.0,2.3091,2.3091,2.3091,2.3091,2.3091,2.3091,2.3091,2.3091,2.3091,2.2974,2.273,2.2598,2.2383,2.2139,2.1963,2.1748,2.1504,2.1504,2.1357,2.1163,2.1163,2.1006,2.0859,2.1085,2.1163,2.1163,2.1163,2.1163,2.1163,0.8885,0.9022,0.9093,0.9093,0.9515,0.9891,1.0099,0.9828,0.9659,0.9802,0.9822,0.9836,0.988,0.9883,0.9876,0.9852,0.8763,0.8411,0.9205,0.803,0.7694,0.8672,0.8501,0.8381,0.8381,0.6847,0.606,0.5979,0.467,0.467,0.5979,0.5979,0.8103,1.1896,1.1896,1.3389,1.5952,1.5952,1.5999,1.6066,1.5985,1.5313,1.4238,1.2708,1.2032,1.1799,1.0828,1.1121,1.1755,1.0828,1.1361,0.0,1.1999,0.0,1.2382,1.1994,1.1896,1.1702,1.0779,0.0,0.0,0.0,0.0,0.0,0.0,0.0,0.0,0.0,0.0,0.0,0.0,0.0,0.1546,0.0634,0.0,0.204,0.0,0.0,0.0,0.0,0.0,0.0,0.0,0.0,0.0,0.0,0.0,0.0,2.3091,2.3091,2.3091,2.3091,2.3091,2.3091,2.3091,2.2984,2.2769,2.251,2.2275,2.2002,2.1699,2.1582,2.1357,2.1055,2.1055,2.0869,2.0605,2.0605,2.0605,2.0605,2.0605,2.0605,2.0605,2.0605,2.0605,2.0605,0.8885,0.8888,0.8892,0.8892,1.0329,1.1559,1.1866,1.0595,0.9659,0.9802,0.9822,0.9876,0.9963,0.998,1.0092,1.0439,1.0004,0.9808,1.007,0.9279,0.8939,0.9183,0.8763,0.8476,0.8476,0.7024,0.6185,0.5979,0.467,0.467,0.5979,0.5979,0.8103,1.1896,1.1896,1.3533,1.6259,1.6259,1.642,1.6653,1.6373,1.6086,1.5445,0.0,1.1907,1.1896,1.1848,0.0,0.0,1.1848,1.2716,0.0,0.0,0.0,0.0,0.0,0.0,0.0,0.0,0.0,0.0,0.9856,0.0,0.0,0.0,0.0,0.7409,0.0,0.0,0.0,0.0,0.2799,0.1935,0.1759,0.1782,0.0,0.0,0.0,0.0,0.0,0.0,0.0,0.0,0.0,0.0,0.0,0.0,0.0,2.3047,2.3091,2.3091,2.3091,2.3091,2.3091,2.3091,2.2691,2.2519,2.25,2.1629,2.1229,2.12,2.081,2.0635,2.0625,2.0625,2.0615,2.0605,2.0605,2.0605,2.0605,2.0605,2.0605,2.0605,2.0605,2.0605,2.0605,0.8885,0.8885,0.8885,0.8885,0.9362,0.9887,1.0211,0.9715,0.9466,0.9852,0.9883,0.9954,1.0304,1.0341,1.0382,1.0483,1.0351,1.0161,0.9914,0.9663,0.9459,0.931,0.8971,0.8784,0.8784,0.802,0.7569,0.7525,0.6921,0.688,0.7335,0.7335,0.8958,1.1896,1.1896,1.34,1.5992,1.6186,1.6213,1.6119,1.6019,1.5919,1.5683,0.0,0.0,1.437,1.3542,1.3782,0.0,1.3494,1.4076,1.5092,1.4615,1.4806,1.5051,1.4609,1.4465,0.0,0.0,0.0,1.2881,1.133,0.0,0.0,0.0,0.0,0.0,0.0,0.0,0.0,0.0,0.4789,0.4261,0.339,0.3835,0.4587,0.0,0.0,0.0,0.0,0.0,0.0,0.0,0.0,0.0,0.0,0.0,0.0,0.0,2.3091,2.3091,2.3091,2.2828,2.2682,2.2682,2.2305,2.1953,2.1629,2.1337,2.1074,2.0791,2.0674,2.0605,2.0605,2.0605,2.0605,2.0605,2.0605,2.0605,2.0605,2.0605,2.0605,2.0605,2.0605,2.0605,2.0605,0.8895,0.8885,0.9044,0.9588,0.9743,0.9648,0.9459,0.9388,0.9547,0.993,1.0012,1.036,1.1346,1.0876,1.077,1.1467,1.0907,1.0348,1.0005,0.988,0.9713,0.9473,0.9228,0.9045,0.8885,0.8655,0.8431,0.8323,0.817,0.8092,0.7988,0.7988,0.941,1.1896,1.1896,1.34,1.6005,1.6306,1.6319,1.6132,1.6025,1.5925,0.0,0.0,1.5784,1.5683,0.0,1.5092,1.5683,1.4854,1.5099,1.5784,1.5784,1.5784,1.5784,1.5784,1.5784,1.5635,1.48,1.4561,0.0,1.2756,1.1626,0.0,1.019,0.0,0.0,0.0,0.0,0.0,0.0,0.5796,0.5534,0.4659,0.5065,0.5654,0.0,0.6789,0.0,0.0,0.0,0.0,0.0,0.0,1.3806,1.589,0.0,0.0,0.0,0.0,2.3091,2.3091,2.2734,2.251,2.251,2.1943,2.1514,2.119,2.1034,2.084,2.0605,2.0605,2.0605,2.0605,2.0605,2.0605,2.0605,2.0605,2.0605,2.0605,2.0605,2.0605,2.0605,2.0605,2.0605,2.0605,0.9186,0.9161,0.9658,1.1013,1.1253,1.0868,0.9697,0.9737,0.9917,1.0087,1.0307,1.1157,1.3033,1.1782,1.146,1.3242,1.1747,1.0568,1.0414,1.0067,0.9778,0.9629,0.9473,0.9262,0.8922,0.8895,0.873,0.8354,0.8333,0.8197,0.8002,0.7992,0.941,1.1896,1.1896,1.3533,1.6266,1.656,1.6687,1.666,1.6366,1.6079,1.5784,1.5784,0.0,1.5784,1.5784,1.5784,1.5784,1.5784,1.5784,1.5784,1.5784,1.5784,1.5784,1.5784,1.5784,1.5784,1.5784,1.5771,1.5448,1.4141,0.0,0.0,0.0,0.0,0.9427,0.0,0.0,0.0,0.0,0.0,0.583,0.557,0.5486,0.5852,0.6938,0.0,0.0,0.0,0.0,0.0,0.7767,0.9903,1.1987,1.366,1.7076,1.9741,0.0,0.0,0.0,2.3091,2.2672,2.248,2.248,2.159,2.1161,2.1161,2.0771,2.0605,2.0605,2.0605,2.0605,2.0605,2.0605,2.0605,2.0605,2.0605,2.0605,2.0605,2.0605,2.0605,2.0605,2.0605,2.0605,2.0605,1.2228,1.3232,1.3897,1.3177,1.2,1.1176,1.1163,1.1111,1.126,1.1881,1.2104,1.2961,1.495,1.4799,1.4693,1.52,1.36,1.2475,1.2237,1.0951,1.0042,0.9778,0.9629,0.9513,0.9439,0.9053,0.8828,0.8767,0.8435,0.8252,0.8208,0.8092,0.941,1.1896,1.1896,1.3389,1.5965,1.6259,1.6386,1.6359,1.6059,1.5899,0.0,0.0,1.5784,1.5784,1.5784,1.5784,1.5784,1.5784,1.5784,1.5784,1.5784,1.5784,1.5784,1.5784,1.5784,1.5784,1.5784,1.5671,1.5445,1.5034,1.394,1.2815,0.0,0.0,0.0,0.0,0.0,0.0,0.0,0.0,0.0,0.7032,0.6931,0.695,0.7074,0.7095,0.0,0.7299,0.0,0.0,0.0,0.9712,1.19,1.33,1.6959,0.0,0.0,0.0,0.0,2.3091,2.2432,2.2041,2.2041,2.1172,2.0732,2.0732,2.0664,2.0605,2.0605,2.0605,2.0605,2.0605,2.0605,2.0605,2.0605,2.0605,2.0605,2.0605,2.0605,2.0605,2.0605,2.0605,2.0605,2.0605,1.3527,1.4361,1.511,1.5048,1.4223,1.3478,1.3133,1.2942,1.2976,1.3466,1.3704,1.4543,1.6424,1.6188,1.6242,1.6953,1.5459,1.4318,1.398,1.3022,1.23,1.1933,1.1821,1.1438,1.0657,1.0315,0.9734,0.8885,0.8554,0.8381,0.832,0.8707,0.9948,1.1945,1.2528,1.3884,1.5791,1.6005,1.6152,1.6246,1.5945,1.5784,0.0,1.5784,1.5784,1.5784,1.5784,1.5784,1.5784,1.5784,1.5784,1.5784,1.5784,1.5784,1.5784,1.5784,1.5784,1.5784,1.5784,1.5618,1.5398,1.5398,1.4443,1.3598,1.3724,1.2626,1.1421,0.0,0.0,0.0,0.0,0.0,0.0,0.7499,0.7326,0.7241,0.7109,0.7095,0.7129,0.0,0.7149,0.0,0.0,0.0,1.137,1.236,0.0,0.0,0.0,0.0,0.0,2.2828,2.2227,2.1797,2.1602,2.0908,2.0605,2.0605,2.0605,2.0605,2.0605,2.0605,2.0605,2.0595,2.0361,2.0429,2.0586,2.04,2.0391,2.0605,2.0605,2.0605,2.0605,2.0605,2.0605,2.0605,1.4449,1.4572,1.5262,1.671,1.7035,1.6762,1.5655,1.5098,1.4926,1.5181,1.5371,1.609,1.7837,1.7149,1.7211,1.8698,1.7275,1.6046,1.5654,1.5437,1.5115,1.4624,1.4604,1.3917,1.2379,1.2,1.0936,0.9241,0.8905,0.8664,0.8568,0.9693,1.0925,1.2188,1.3392,1.4609,1.5784,1.5784,1.5979,1.6192,1.5932,1.5784,1.5784,1.5784,1.5784,1.5784,1.5784,1.5784,1.5784,1.5784,1.5784,1.5784,1.5784,1.5784,1.5784,1.5784,1.5784,1.5784,1.5784,1.5591,1.5337,1.5337,1.4897,1.4529,1.4834,1.3787,1.2833,1.2866,1.2044,0.0,0.0,0.0,0.0,0.7554,0.7316,0.7272,0.7139,0.7112,0.7125,0.7125,0.0,0.0,0.0,0.0,0.0,0.0,0.0,0.0,0.0,0.0,0.0,0.0,2.2021,0.0,2.12,0.0,2.0605,2.0605,2.0605,2.0605,2.0605,2.0605,2.0605,2.0586,2.0166,2.0215,2.0576,2.0156,2.0225,2.0605,2.0605,2.0683,2.0789,2.0789,2.0857,2.0934,1.7736,1.8083,1.85,1.8483,1.8906,1.9253,1.9232,1.7973,1.7131,1.7489,1.7765,1.8568,2.0307,2.0334,2.0329,2.0589,1.9024,1.784,1.7459,1.6118,1.5115,1.4624,1.4604,1.4465,1.4129,1.2592,1.1558,1.1054,1.0383,0.9991,0.991,1.1018,1.2285,1.3536,1.3776,1.4609,1.5784,1.5784,0.0,1.5905,1.5804,1.5784,1.5784,1.5784,1.5784,1.5784,1.5784,1.5784,1.5784,1.5784,1.5784,1.5784,1.5784,1.5784,1.5784,1.5784,1.5784,1.5784,1.5784,1.5444,1.5082,1.5082,1.464,1.4175,1.4229,1.4025,1.356,1.2629,1.2241,1.1711,1.0541,0.0,0.0,0.0,0.0,0.0,0.0,0.7251,0.7329,0.7329,0.0,0.782,0.0,0.0,0.0,0.0,0.0,0.0,0.0,0.0,0.0,0.0,0.0,0.0,0.0,0.0,0.0,2.0605,2.0605,2.0605,2.0605,2.0605,2.0605,2.0595,2.0517,2.0537,2.0595,2.0517,2.0537,2.0605,2.0605,2.1078,2.1735,2.1735,2.2301,2.275,1.9392,1.9499,1.9593,1.9599,1.984,2.012,0.0,1.9895,1.9373,1.9212,1.9279,1.9698,2.0531,2.0929,2.1049,2.0895,2.011,1.9424,1.893,1.8095,1.7493,1.7114,1.7103,1.668,1.5843,1.485,1.3761,1.2548,1.203,1.1569,1.1258,1.2384,1.3295,1.3926,1.4609,1.5242,0.0,0.0,0.0,1.6072,1.6226,1.6192,1.6059,1.6059,1.5965,1.5784,1.5784,1.5784,1.5784,1.5784,1.6251,1.681,1.681,1.721,1.7708,1.7708,1.7708,1.7576,1.6943,1.6394,1.5777,1.5181,1.4566,1.4088,1.4088,1.4088,1.3955,1.3336,1.3245,1.2857,1.1686,1.0994,0.0,0.0,0.0,0.0,0.0,0.0,0.8627,0.9251,0.9341,0.9701,0.0,0.0,0.0,0.0,0.0,0.0,0.0,0.0,0.0,0.0,0.0,0.0,0.0,0.0,0.0,2.0605,2.0605,2.0605,2.0605,2.0605,2.0605,2.0595,2.0322,2.04,2.0605,2.0605,2.0605,2.0644,2.1155,2.1593,2.2065,2.259,2.3073,2.3368,2.0201,2.01,2.004,2.0207,2.0287,2.0408,2.0641,2.0922,2.0942,2.0481,2.0421,2.0394,2.0334,2.0742,2.0902,2.0608,2.0581,2.0361,1.9833,1.98,1.9673,1.9379,1.9424,1.8823,1.7566,1.6998,1.5807,1.4046,1.3629,1.3163,1.2662,1.3802,0.0,0.0,0.0,0.0,0.0,0.0,1.6366,1.638,1.6547,1.648,1.6315,1.6206,1.6032,1.5784,1.5784,1.5967,1.6197,1.6197,1.685,1.7731,1.8002,1.8726,1.9497,1.9497,1.9497,1.9314,1.8319,1.7689,1.7029,1.5976,1.5331,1.4902,1.4797,1.4783,1.4699,1.4496,1.425,1.3857,1.3178,1.2109,0.0,0.0,0.0,0.0,0.0,0.0,0.9966,1.0989,1.1078,1.1382,1.2223,0.0,0.0,0.0,0.0,0.0,1.9859,2.1085,0.0,0.0,0.0,0.0,2.0605,0.0,2.0605,0.0,2.0605,2.0605,2.0605,2.0605,2.0605,2.0586,2.0205,2.0244,2.0605,2.0605,2.0605,2.0673,2.1413,2.1962,2.2403,2.322,2.377,2.4145,2.0281,2.0428,2.0521,2.0274,2.0454,2.0641,2.0675,2.0922,2.1089,2.1036,2.1029,2.0929,2.0661,2.0681,2.0601,2.0301,2.0274,2.014,1.982,1.98,1.9673,1.9379,1.9424,1.9307,1.9185,1.7529,1.6434,0.0,0.0,1.4561,1.415,1.5124,0.0,0.0,0.0,0.0,0.0,1.6547,1.6667,1.6647,1.6413,1.6299,1.6295,1.5972,1.5804,1.5784,1.5784,1.6527,1.7498,1.7498,1.7598,1.787,1.9001,1.9405,1.9497,1.9497,1.9497,1.9497,1.936,1.9118,1.8748,1.8238,1.7872,1.7539,1.709,1.7017,1.6723,1.5745,1.4776,1.437,1.5206,1.451,1.3428,0.0,0.0,0.0,0.0,0.0,1.0766,1.1078,1.0944,1.1211,0.0,0.0,0.0,0.0,0.0,0.0,1.9083,2.0495,0.0,2.0683,0.0,2.0644,2.0605,2.0605,0.0,2.0605,2.0605,2.0605,2.0605,2.0605,2.0605,2.0605,2.0556,2.0566,2.0605,2.0605,2.0605,2.0605,2.0712,2.1821,2.3368,2.3478,2.4648,2.6233,0.0,0.0,0.0,0.0,0.0,0.0,0.0,2.1036,2.1109,2.1109,2.1109,2.0995,2.0708,2.0675,2.0488,2.0013,1.9973,1.9853,1.9559,1.9539,1.9492,1.943,1.9424,1.9424,1.9424,1.8706,1.7994,0.0,0.0,1.6437,1.5762,1.6154,0.0,0.0,0.0,1.6533,1.6553,1.6847,1.7025,1.7012,1.6898,1.6744,1.65,1.6206,1.5985,1.592,1.6669,1.7271,1.7917,1.936,1.9852,1.9943,2.044,2.1078,2.1676,2.1676,2.1676,2.1498,2.08,2.0385,1.9878,1.8722,1.8194,1.7871,1.7425,1.7302,1.7172,1.6764,1.6322,1.5959,1.5745,1.5338,1.4678,0.0,0.0,0.0,0.0,0.0,0.0,1.494,1.5062,1.4829,0.0,0.0,0.0,0.0,0.0,0.0,0.0,0.0,0.0,2.0615,0.0,2.0605,2.0605,2.0303,2.0303,2.0595,2.0303,2.0312,2.0605,2.0605,2.0605,2.0605,2.0605,2.0605,2.0605,2.0605,2.0605,2.0644,2.1231,2.1924,2.2739,2.3963,2.4921,2.5699,2.1853,0.0,2.1479,0.0,2.0942,2.0869,2.1076,2.1109,2.1109,2.1109,2.1109,2.0995,2.0708,2.0601,2.0341,1.9846,1.972,1.9586,1.9379,1.9424,1.9424,1.9424,1.9424,0.0,1.9424,1.9424,1.9018,1.8249,1.8169,1.7762,1.6961,0.0,0.0,0.0,1.68,1.6834,1.6854,1.7199,1.7326,1.7313,1.7139,1.6894,1.6667,1.6286,1.6252,1.648,1.7365,1.8141,1.8993,2.0711,2.1525,2.1845,2.1845,2.2394,2.3091,2.3091,2.3091,2.2906,2.2076,2.1685,2.1213,1.9787,1.9293,1.9011,1.8414,1.8261,1.8261,1.8261,1.7738,1.7172,1.6764,1.615,1.5455,1.4692,0.0,0.0,0.0,1.5603,0.0,1.7619,1.7705,1.7251,1.6255,0.0,0.0,0.0,0.0,0.0,0.0,0.0,0.0,0.0,0.0,0.0,0.0,0.0,2.0549,2.0595,2.0254,2.0273,2.0605,2.0605,2.0605,2.0605,2.0605,2.0605,2.0605,2.0605,2.0605,2.0673,2.1336,2.1773,2.2178,2.3588,2.4492,2.5087,2.3574,2.3574,2.3014,2.1418,2.1109,2.1109,2.1109,2.1109,2.1109,2.1109,2.1109,2.0995,2.0708,2.0414,2.012,1.9826,1.9539,1.943,1.9424,1.9424,1.9424,0.0,0.0,1.9424,1.9424,1.9424,1.9219,1.8911,0.0,0.0,1.7562,0.0,1.6707,1.6714,1.7065,1.7199,1.7213,1.7507,1.7582,1.7528,1.6941,1.6707,1.664,1.6004,1.6574,1.7692,1.7684,1.9222,2.1248,2.1293,2.2076,2.3091,2.3091,2.3101,2.3091,2.3091,2.3091,2.3091,2.3091,2.3091,2.2886,2.2048,2.1885,2.1641,2.0762,2.0566,2.0566,2.0566,1.8829,1.7626,1.8749,1.7163,1.5696,1.5696,0.0,0.0,0.0,0.0,0.0,1.7762,1.7524,1.7302,1.7302,0.0,0.0,0.0,0.0,0.0,0.0,0.0,0.0,2.201,2.2962,0.0,2.1989,2.1989,2.1517,2.0605,2.0595,2.0595,2.0605,2.0605,2.0605,2.0605,2.0605,2.0605,2.0605,2.0605,2.0605,2.0605,2.0605,2.1183,2.1989,2.2027,2.3294,2.5004,2.5261,2.4355,2.345,2.2897,2.1853,2.1109,2.1109,2.1109,2.1109,2.1109,2.1109,2.1076,2.0982,2.0528,2.0114,0.0,1.9533,1.9424,0.0,1.9424,1.9424,1.9424,1.9424,1.9424,1.9424,1.9424,1.9225,1.8925,0.0,0.0,0.0,1.7656,1.7508,1.7308,1.7454,1.7442,1.7501,1.7542,1.7582,1.7654,1.8215,1.8217,1.7972,1.8537,1.8831,1.9039,1.9852,2.0666,2.1426,2.2262,2.2775,2.3091,2.3091,2.3091,2.3091,2.3091,2.3091,2.3091,2.3091,2.3091,2.2964,2.2451,2.21,2.1738,2.1152,2.0781,2.0605,2.0605,2.004,1.9432,1.9076,1.843,1.7698,1.6927,0.0,0.0,0.0,0.0,1.9709,2.0576,2.0586,2.0227,0.0,1.8841,0.0,0.0,0.0,0.0,0.0,0.0,0.0,0.0,2.3331,0.0,2.3036,2.2057,2.1584,2.1555,2.0587,2.0273,2.0605,2.0605,2.0605,2.0605,2.0605,2.0605,2.0605,2.0605,2.0605,2.0605,2.0605,2.0789,2.1116,2.1773,2.2403,2.3036,2.6893,2.5627,2.4479,2.4479,2.2647,2.1292,2.1908,2.1475,2.1069,2.0962,2.0949,2.0902,2.0795,2.0354,0.0,1.9967,1.9599,1.9424,1.9424,1.9424,1.9424,1.9424,1.9424,1.9424,1.9424,0.0,0.0,1.9092,1.8978,1.8677,1.821,1.8042,1.7883,1.7582,1.7582,1.7582,1.7582,1.7582,1.7582,1.7713,1.8775,1.9022,1.8882,1.9741,2.0264,2.0511,2.1078,2.1569,2.2076,2.2862,2.3091,2.3091,2.3091,2.3091,2.3091,2.3091,2.3091,2.3091,2.3091,2.3091,2.2994,2.2617,2.2314,2.1963,2.1327,2.0889,2.0605,2.0605,2.0605,2.0401,1.9717,1.9274,1.8758,1.8069,0.0,1.8498,1.9423,0.0,0.0,0.0,0.0,0.0,0.0,2.07,0.0,0.0,0.0,0.0,0.0,0.0,0.0,2.4036,2.4445,0.0,2.4072,2.3187,2.2494,2.1989,2.0759,2.0341,2.0605,2.0605,2.0605,2.0605,2.0605,2.0605,2.0605,2.0605,2.0605,2.0605,2.0605,2.0605,2.0673,2.126,2.1707,2.2103,2.8536,2.7263,0.0,0.0,2.3551,0.0,2.3504,2.2341,2.1198,2.0921,2.0812,2.0568,2.0294,2.004,2.0019,2.0288,0.0,0.0,0.0,1.9424,1.9424,1.9424,1.9424,0.0,1.9424,1.9424,1.9424,1.9424,1.9065,1.8778,1.8484,1.8135,1.7883,1.7582,1.7582,1.7582,1.7582,1.7582,1.7635,1.7811,1.895,1.9416,1.9525,2.022,2.1157,2.2062,2.1617,2.2148,2.3091,2.3091,2.3091,2.3091,2.3091,2.3135,2.3222,2.3135,2.3091,2.3135,2.3222,2.3222,2.3168,2.286,2.2712,2.2446,2.1618,2.1115,2.0789,2.0712,2.0712,2.0673,2.0605,1.9766,1.9125,1.9161,1.9483,1.9959,2.0498,0.0,0.0,0.0,0.0,0.0,0.0,2.2702,2.2478,0.0,0.0,0.0,0.0,0.0,2.5111,2.5111,2.6025,2.606,2.5123,2.504,2.4,2.1989,2.1039,2.0605,2.0605,2.0605,2.0605,2.0605,2.0605,2.0605,2.0605,2.0605,2.0605,2.0605,2.0605,2.0605,2.0605,2.0605,2.1155,2.1886,0.0,0.0,2.7811,2.7811,2.6167,2.4947,2.5375,2.4047,2.2992,2.2919,2.1603,2.0648,2.0581,2.1153,2.1474,2.1547,2.0247,1.9424,1.9424,1.9424,1.9424,1.9424,1.9424,1.9424,1.9424,1.9424,1.9424,1.9424,1.9065,1.8778,1.8484,1.8135,1.7883,1.7582,1.7582,1.7582,1.7582,1.7582,1.8199,1.9265,2.0546,2.1512,2.2226,2.3463,2.368,2.3355,2.3249,2.3142,2.3091,2.3091,2.3091,2.3091,2.3091,2.3714,2.4211,2.3343,2.3091,2.3309,2.4168,2.4414,2.4564,2.5344,2.4976,2.427,2.3672,2.3161,2.2601,2.1811,2.1669,2.1441,2.0712,2.0401,2.0312,2.0617,2.1095,2.1617,2.2084,2.3466,0.0,0.0,2.4636,2.4636,2.4636,2.3745,2.3257,0.0,0.0,0.0,0.0,0.0,2.6129,2.6129,2.6383,2.6383,2.6129,2.537,2.4,2.1989,2.1039,2.0605,2.0605,2.0605,2.0605,2.0605,2.0605,2.0605,2.0605,2.0605,2.0605,2.0605,2.0605,2.0605,2.0605,2.0605,2.075,2.0934,3.0889,2.953,2.8664,2.9403,2.7572,2.6227,2.6953,2.5741,2.4363,2.3488,2.2342,2.1551,2.1343,2.1635,2.207,2.2749,2.1976,2.1152,2.0422,2.1045,2.1095,2.0422,2.0429,2.0429,2.0429,1.9758,1.9424,1.9424,1.9205,1.8911,1.849,1.8323,1.8009,1.7582,1.7582,1.7582,1.7635,1.8251,1.8916,1.9782,2.1803,2.2895,2.3447,2.4641,2.4822,2.4346,2.415,2.3799,2.3437,2.3437,2.3257,2.3091,2.3091,2.3877,2.467,2.4049,2.4264,2.4808,2.5431,2.5588,2.5714,2.6348,2.5941,2.5301,2.5032,2.4633,2.4055,2.3221,2.2723,2.2175,2.1377,2.0895,2.0752,2.1122,2.1813,2.2552,2.3268,2.4477,0.0,2.5653,2.5699,2.5699,2.5699,2.4779,2.4373,2.4838,0.0,0.0,2.5664,2.6198,2.6499,2.6499,2.6499,2.6499,2.6499,2.504,2.3781,2.2664,2.127,2.0605,2.0605,2.0605,2.0605,2.0605,2.0605,2.0605,2.0605,2.0605,2.0605,2.0605,2.0605,2.0605,2.0605,2.0605,2.0857,2.1221,3.0889,2.9776,2.9226,3.0645,2.8614,2.7202,2.8545,2.7383,2.5687,2.3787,2.3277,2.2883,2.2125,2.2249,2.2877,2.4044,2.4322,2.3766,2.2032,2.3095,2.3263,2.1975,2.1919,2.1919,2.1919,2.0702,1.9982,1.9758,1.994,1.9651,1.8932,1.8995,1.8672,1.8012,1.7911,1.7891,1.7996,1.9117,1.9834,2.0444,2.2776,2.384,2.411,2.491,2.5127,2.5067,2.4648,2.4238,2.3887,2.3887,2.3643,2.3276,2.3208,2.4107,2.5137,2.5062,2.5964,2.6976,2.6801,2.6894,2.7017,2.7017,2.6628,2.6251,2.6251,2.5952,2.5432,2.4786,2.4023,2.3251,2.2615,2.1694,2.1174,2.1579,2.2436,2.333,2.4176,0.0,2.6021,2.6446,2.6499,2.6499,2.6499,2.5734,2.5616,2.6624,2.5791,0.0,0.0,2.6555,2.6499,2.6499,2.6499,2.6499,2.6499,2.4516,2.3514,2.3489,2.1527,2.0605,2.0605,2.0605,2.0605,2.0605,2.0605,2.0605,2.0605,2.0605,2.0605,2.0605,2.0605,2.0683,2.0789,2.0634,2.1298,2.2215,3.0889,3.0704,3.0577,3.083,3.046,3.0206,3.046,2.9098,2.7417,2.5789,2.5348,2.4463,2.2609,2.4515,2.586,2.5735,2.6888,2.6445,2.3654,2.3654,2.371,2.3487,2.3431,2.3431,2.3431,2.3215,2.2484,2.1252,2.2252,2.2112,2.0796,2.1423,2.1041,1.9873,1.9449,1.9272,1.9324,1.9524,2.0947,2.3076,2.3534,2.4402,2.5421,2.5557,2.54,2.5106,2.5037,2.4687,2.4316,2.4316,2.4277,2.416,2.3799,2.5091,2.6661,2.6346,2.7678,2.9079,2.8108,2.8569,2.93,2.93,2.8829,2.8409,2.8409,2.8027,2.7373,2.6419,2.6132,2.5768,2.4869,2.3795,2.32,2.3669,2.4252,2.4648,2.4715,0.0,2.6891,2.6549,2.6499,2.6499,2.6499,2.6349,2.6598,2.7451,2.6735,2.6633,2.7484,2.6871,2.6499,2.6499,2.6499,2.6499,2.6499,2.4516,2.3514,2.3489,2.1527,2.0605,2.0605,2.0605,2.0605,2.0605,2.0605,2.0605,2.0605,2.0605,2.0605,2.0605,2.0605,2.1078,2.1697,2.0895,2.1707,2.3147,3.0889,3.0889,3.0889,3.0889,3.0889,3.0889,3.0889,3.0265,2.9157,2.7503,2.7052,2.6377,2.5136,2.621,2.7066,2.7279,2.8099,2.7911,2.6345,2.6218,2.5882,2.5041,2.5041,2.4654,2.3822,2.3822,2.3487,2.2814,2.3324,2.32,2.2402,2.2482,2.2132,2.1362,2.0901,2.0743,2.0794,2.1499,2.2525,2.3741,2.451,2.5177,2.5693,2.5693,2.5557,2.543,2.543,2.5146,2.4766,2.4766,2.4609,2.4467,2.4977,2.603,2.7186,2.7681,2.8759,2.9702,2.9157,2.9404,2.9792,2.9792,2.9591,2.939,2.939,2.9202,2.88,2.8001,2.7436,2.6871,2.6092,2.511,2.457,2.5011,2.5504,0.0,0.0,2.6991,2.7748,2.7193,2.7571,2.7855,2.7855,2.7855,2.7986,2.8363,2.7604,2.7317,2.767,2.6939,2.6499,2.6499,2.6499,2.6499,2.6499,2.4516,2.3514,2.3489,2.1527,2.0605,2.0605,2.0605,2.0605,2.0605,2.0605,2.0605,2.0605,2.0605,2.0605,2.0605,2.0605,2.1155,2.1962,2.1517,2.2601,2.4228,3.0889,3.0889,3.0889,3.0889,3.0889,3.0889,3.0889,3.0889,3.0333,2.8605,2.8586,2.8306,2.7368,2.7667,2.8136,2.8598,2.8887,2.8887,2.8467,2.8437,2.7885,2.6662,2.6608,2.6045,2.4884,2.4829,2.4663,2.4322,2.4663,2.4573,2.401,2.3905,2.3528,2.2892,2.2503,2.2283,2.2384,2.3409,2.4026,2.4393,2.5477,2.5781,2.5693,2.5693,2.5693,2.5693,2.5693,2.5518,2.5225,2.5225,2.5179,2.5291,2.6156,2.702,2.7843,2.8657,2.9312,2.9792,2.9792,2.9792,2.9792,2.9792,2.9792,2.9792,2.9792,2.9792,2.9666,2.9176,2.853,2.7871,2.7448,2.6523,2.5988,2.6274,0.0,0.0,0.0,2.7906,2.8535,2.8066,2.8588,2.9002,2.9002,2.8812,2.878,2.8971,2.8019,2.7517,2.7703,2.6939,2.6499,2.6499,2.6499,2.6499,2.6499,2.4731,2.3854,2.3818,2.1859,2.0934,2.0934,2.0712,2.0605,2.0605,2.0605,2.0605,2.0605,2.0605,2.0712,2.0934,2.0934,2.1631,2.2664,2.244,2.3624,2.5335,3.0889,3.0889,3.0889,3.0889,3.0889,3.0889,3.0889,3.0889,3.0333,2.8605,2.9747,2.9947,2.7957,2.9087,2.9848,2.9512,2.9502,2.9336,2.8906,2.8877,2.8647,2.814,2.8121,2.8067,2.795,2.795,2.7276,2.5927,2.7276,2.7267,2.5937,2.6877,2.6409,2.4801,2.4302,2.4122,2.4113,2.4224,2.5019,2.6229,2.6288,2.6103,2.5693,2.5693,2.5693,2.5693,2.5693,2.5664,2.5635,2.5635,2.6406,2.7317,2.697,2.8011,2.9343,2.9011,2.9312,2.9792,2.9792,2.9792,2.9792,2.9792,2.9792,2.9792,2.9792,2.9792,2.9779,2.9741,2.969,2.9626,2.955,2.8657,2.7909,2.7945,0.0,0.0,2.7656,2.8617,2.9238,2.8949,2.8971,2.9002,2.9002,2.8266,2.8149,2.8939,2.7517,2.6905,2.767,2.6939,2.6499,2.6499,2.6499,2.6499,2.6499,2.5441,2.4898,2.4862,2.285,2.1886,2.1886,2.1011,2.0605,2.0605,2.0605,2.0605,2.0605,2.0605,2.1116,2.1886,2.1886,2.3073,2.4671,2.3734,2.466,2.6245,3.0889,3.0889,3.0889,3.0889,3.0889,3.0889,3.0889,3.0889,3.0645,3.002,3.0518,3.0471,2.9422,3.0094,3.0342,2.9629,2.9814,2.9775,2.9346,2.9062,2.873,2.831,2.8291,2.8291,2.8291,2.8291,2.8014,2.7447,2.8014,2.8014,2.7492,2.7641,2.735,2.6636,2.6157,2.5967,2.5967,2.5967,2.6292,2.6777,2.6777,2.6523,2.6143,2.6143,2.5977,2.5693,2.5693,2.5693,2.583,2.662,2.722,2.7829,2.9137,2.9802,3.0071,3.0,2.9878,2.9792,2.9792,2.9792,2.9792,2.9792,2.9792,2.9792,2.9792,2.9792,2.9792,2.9792,2.9792,2.9792,2.9792,2.9456,2.9157,2.9157,0.0,2.921,2.9349,2.9825,3.0179,3.034,3.0454,3.0554,3.0554,2.9797,2.9442,2.9797,2.8214,2.7384,2.767,2.6939,2.6499,2.6499,2.6499,2.6499,2.6499,2.4874,2.4072,2.4047,2.2075,2.1116,2.1116,2.075,2.0605,2.0605,2.0605,2.0605,2.0605,2.0605,2.1155,2.1989,2.1989,2.322,2.4933,2.4564,2.5323,2.6465,3.0889,3.0889,3.0889,3.0889,3.0889,3.0889,3.0889,3.0889,3.0889,3.0889,3.0889,3.0771,3.0449,3.0703,3.0644,3.0039,3.0244,3.0176,2.9665,2.9033,2.8594,2.8301,2.8291,2.8291,2.8291,2.8291,2.8291,2.8291,2.8291,2.8291,2.8281,2.7998,2.7845,2.7708,2.7353,2.7217,2.7217,2.7217,2.7217,2.7217,2.7217,2.6963,2.6592,2.6592,2.6318,2.5986,2.6357,2.6403,2.6476,2.772,2.8412,2.9039,3.0676,3.1085,3.0901,3.068,3.0344,3.0018,2.9842,2.9792,2.9792,2.9792,2.9792,2.9792,2.9792,2.9792,2.9792,2.9792,2.9792,2.9792,2.9792,2.9792,2.9792,2.9792,3.0037,3.0377,3.0739,3.0959,3.1204,3.1573,3.1531,3.1511,3.1511,3.0524,2.9889,2.9889,2.8298,2.7317,2.7317,2.6816,2.6499,2.6499,2.6499,2.6499,2.6499,2.5134,2.4433,2.4433,2.2451,2.1527,2.1489,2.1193,2.0895,2.0605,2.0895,2.0857,2.0644,2.0934,2.1593,2.2515,2.2813,2.4,2.5476,2.5476,2.5908,2.6499,3.0889,3.0889,3.0889,3.0889,3.0889,3.0889,3.0889,3.0889,3.0889,3.0889,3.0889,3.0889,3.0889,3.0889,3.0889,3.0889,3.0889,3.0518,2.9685,2.8779,2.8301,2.8291,2.8291,2.8291,2.8291,2.8291,2.8291,2.8291,2.8291,2.8291,2.8291,2.8291,2.8066,2.7718,2.7718,2.7718,2.7718,2.7718,2.7718,2.7718,2.7718,2.7412,2.7021,2.7021,2.6758,2.6586,2.7796,2.7977,2.7825,2.9004,3.0226,3.1223,3.1223,3.1674,3.2001,3.0894,3.062,3.0495,2.9942,2.9792,2.9792,2.9792,2.9792,2.9792,2.9792,2.9792,2.9792,2.9792,2.9792,2.9792,2.9792,2.9792,2.9792,2.983,3.0582,3.1299,3.1583,3.1905,3.221,3.2467,3.1914,3.1511,3.1511,2.9981,2.9002,2.9002,2.7451,2.6499,2.6499,2.6499,2.6499,2.6499,2.6499,2.6499,2.6499,2.6499,2.6499,2.6452,2.4469,2.3514,2.3478,2.2478,2.1479,2.0673,2.1593,2.1479,2.0673,2.1631,2.259,2.3588,2.46,2.5616,2.6499,2.6499,2.6499,2.6499,3.0889,3.0889,3.0889,3.0889,3.0889,3.0889,3.0889,3.0889,3.0889,3.0889,3.0889,3.0889,3.0889,3.0889,3.0889,3.0889,3.0889,3.0518,2.9685,2.9336,2.8916,2.832,2.8291,2.8291,2.8291,2.8291,2.8291,2.8291,2.8291,2.8291,2.8291,2.8291,2.8223,2.8105,2.8105,2.8105,2.8105,2.8105,2.8105,2.8105,2.8105,2.7851,2.7565,2.8554,2.8612,2.8377,2.9271,2.9539,2.954,3.0386,3.0899,3.1356,3.2239,3.2356,3.2152,3.1825,3.121,3.0583,3.0419,3.0093,2.9792,2.9792,2.9792,2.9792,2.9792,2.9792,2.9792,2.9792,2.9792,2.9998,3.0658,3.0758,3.1007,3.1659,3.1997,3.2431,3.3174,3.2606,3.237,3.3124,3.2183,3.1278,3.0703,2.9659,2.8748,2.8149,2.7095,2.6499,2.6499,2.6499,2.6499,2.6499,2.6499,2.6499,2.6499,2.5804,2.5441,2.5441,2.4108,2.3514,2.3478,2.3184,2.2515,2.1631,2.2627,2.2478,2.1669,2.2664,2.322,2.3588,2.46,2.5194,2.5511,2.6245,2.6499,2.6499,3.0889,3.0889,3.0889,3.0889,3.0889,3.0889,3.0889,3.0889,3.0889,3.0889,3.0889,3.0889,3.0889,3.0889,3.0889,3.0889,3.0723,3.0322,2.9619,2.9414,2.9082,2.8564,2.8379,2.8291,2.8291,2.8291,2.8291,2.8291,2.8291,2.8291,2.8291,2.8291,2.8291,2.8291,2.8291,2.8291,2.8291,2.8291,2.8291,2.8291,2.8291,2.8135,2.8058,2.9415,2.9676,2.9452,3.0748,3.1112,3.1055,3.1737,3.1965,3.2096,3.284,3.283,3.2503,3.2277,3.175,3.116,3.0733,3.0369,3.0068,2.9842,2.9792,2.9792,2.9792,2.9792,2.9895,3.0279,3.0343,3.0633,3.1573,3.1742,3.1924,3.25,3.2925,3.3345,3.391,3.346,3.3162,3.3453,3.2557,3.1471,3.0418,2.9504,2.8524,2.7317,2.6782,2.6499,2.6499,2.6499,2.6499,2.6499,2.6499,2.6499,2.6499,2.5908,2.5581,2.5581,2.4552,2.4072,2.4072,2.4072,2.3551,2.2664,2.3672,2.3514,2.2664,2.3672,2.4072,2.4192,2.5182,2.5581,2.5664,2.628,2.6499,2.6499,3.0889,3.0889,3.0889,3.0889,3.0889,3.0889,3.0889,3.0889,3.0889,3.0889,3.0889,3.0889,3.0889,3.0889,3.0889,3.0889,3.0508,3.0078,2.9658,2.9258,2.9014,2.8975,2.8574,2.835,2.835,2.831,2.8291,2.8291,2.8291,2.8291,2.8291,2.8291,2.8291,2.8291,2.8291,2.8291,2.8291,2.8291,2.8291,2.8291,2.8291,2.8291,2.8441,2.9911,3.0261,3.0191,3.2226,3.2669,3.2394,3.291,3.3124,3.3124,3.3124,3.3124,3.2968,3.2441,3.2252,3.2001,3.1022,3.0683,3.0495,2.9993,2.9829,2.9792,2.9792,2.9792,3.0075,3.1007,3.1217,3.1499,3.2522,3.2749,3.2749,3.2855,3.3567,3.4095,3.4027,3.4283,3.4216,3.3418,3.278,3.1781,3.0276,2.9314,2.8149,2.6624,2.6499,2.6499,2.6499,2.6499,2.6499,2.6499,2.6499,2.6499,2.6499,2.6499,2.6499,2.6499,2.5581,2.5111,2.5111,2.5111,2.46,2.3697,2.4707,2.4564,2.3708,2.4707,2.5075,2.5087,2.6094,2.6465,2.6383,2.6452,2.6499,2.6499,3.0889,3.0889,3.0889,3.0889,3.0889,3.0889,3.0889,3.0889,3.0889,3.0889,3.0889,3.0889,3.0889,3.0889,3.0889,3.0889,3.0801,3.0547,3.0088,2.9971,2.9775,2.9443,2.9014,2.8779,2.8779,2.8467,2.8291,2.8291,2.8291,2.8291,2.8291,2.8291,2.8291,2.8291,2.8291,2.8291,2.8291,2.8291,2.8291,2.8291,2.8291,2.8291,2.8548,3.0979,3.181,3.2007,3.4136,3.4578,3.4015,3.332,3.3124,3.3124,3.3124,3.3124,3.3056,3.293,3.2566,3.2164,3.1926,3.126,3.0583,3.047,3.0118,2.9792,2.9792,2.9792,3.0075,3.1007,3.1217,3.1706,3.338,3.3705,3.3959,3.4739,3.5034,3.4905,3.4095,3.4283,3.3859,3.221,3.1707,3.0791,2.9071,2.7753,2.6871,2.6521,2.6499,2.6499,2.6499,2.6499,2.6499,2.6499,2.6499,2.6499,2.6499,2.6499,2.6499,2.6499,2.628,2.6164,2.6164,2.6164,2.5616,2.4743,2.5734,2.5581,2.4743,2.5769,2.5699,2.5087,2.6094,2.6025,2.5406,2.6198,2.6499,2.6499,3.0889,3.0889,3.0889,3.0889,3.0889,3.0889,3.0889,3.0889,3.0889,3.0889,3.0889,3.0889,3.0889,3.0889,3.0889,3.0889,3.0889,3.0693,3.0225,3.0195,3.0098,2.9883,2.9258,2.9014,2.9228,2.8613,2.8291,2.8291,2.8291,2.8291,2.8291,2.8291,2.8291,2.8291,2.8291,2.8291,2.8291,2.8291,2.8291,2.8291,2.8291,2.8698,2.946,3.152,3.2744,3.3494,3.4957,3.4969,3.4248,3.3658,3.3294,3.3124,3.3124,3.3124,3.3124,3.3124,3.2867,3.2566,3.229,3.18,3.1311,3.1047,3.0583,3.0118,2.9854,2.9792,3.0177,3.1573,3.1852,3.2464,3.4361,3.4725,3.4725,3.4758,3.4758,3.4442,3.3463,3.3488,3.3106,3.1771,3.1467,3.0627,2.8709,2.728,2.6499,2.6499,2.6499,2.6499,2.6499,2.6499,2.6499,2.6499,2.6499,2.6499,2.6499,2.6499,2.6245,2.5769,2.5769,2.5769,2.5769,2.5288,2.5028,2.5052,2.5558,2.5769,2.5769,2.628,2.6198,2.5769,2.628,2.5873,2.504,2.5594,2.5769,2.5769,3.0889,3.0889,3.0889,3.0889,3.0889,3.0889,3.0889,3.0889,3.0889,3.0889,3.0889,3.0889,3.0889,3.0889,3.0889,3.0889,3.0889,3.0723,3.0342,3.0322,3.0322,3.0322,2.956,2.9268,2.956,2.8799,2.8369,2.8291,2.8291,2.8291,2.8291,2.8291,2.8291,2.8291,2.8291,2.8291,2.8291,2.8291,2.8291,2.8291,2.8548,2.9303,3.0473,3.2039,3.3353,3.4521,3.5362,3.5039,3.4161,3.396,3.3596,3.3206,3.3106,3.3124,3.3124,3.3124,3.3124,3.2968,3.2491,3.229,3.2102,3.165,3.1072,3.0495,3.0043,2.9867,3.0292,3.201,3.2357,3.289,3.4673,3.5001,3.4739,3.3891,3.3774,3.3415,3.25,3.25,3.2187,3.115,3.0762,2.9839,2.7945,2.6756,2.6077,2.599,2.6164,2.6245,2.6245,2.6418,2.6499,2.6499,2.6499,2.6499,2.6499,2.6314,2.5838,2.5004,2.4636,2.4564,2.4707,2.3891,2.3963,2.4743,2.4743,2.5217,2.5978,2.5978,2.5978,2.6013,2.6164,2.5616,2.4743,2.4743,2.4743,2.4779,3.0889,3.0889,3.0889,3.0889,3.0889,3.0889,3.0889,3.0889,3.0889,3.0889,3.0889,3.0889,3.0889,3.0889,3.0889,3.0889,3.0889,3.0859,3.0801,3.0801,3.0801,3.0801,3.0303,2.9883,2.9636,2.9092,2.8662,2.8291,2.8291,2.8291,2.8291,2.8291,2.8291,2.8291,2.8291,2.8291,2.8291,2.8291,2.8291,2.8398,2.9555,3.0162,3.0577,3.3166,3.4227,3.4569,3.5831,3.5855,3.5132,3.4223,3.3847,3.3709,3.3275,3.3124,3.3124,3.3124,3.3124,3.3056,3.298,3.2591,3.219,3.2127,3.1361,3.0595,3.052,3.0131,3.0113,3.118,3.1389,3.1719,3.2784,3.2996,3.2961,3.282,3.2784,3.2464,3.1536,3.2105,3.1589,2.8897,2.729,2.5988,2.4897,2.4611,2.4357,2.395,2.4707,2.5194,2.5194,2.6025,2.6499,2.6499,2.6499,2.6499,2.6499,2.5629,2.5111,2.4969,2.322,2.285,2.3708,2.3551,2.3551,2.3697,2.3697,2.3781,2.3927,2.3927,2.3927,2.4,2.485,2.46,2.3697,2.3697,2.3697,2.3818,3.0889,3.0889,3.0889,3.0889,3.0889,3.0889,3.0889,3.0889,3.0889,3.0889,3.0889,3.0889,3.0889,3.0889,3.0889,3.0889,3.0889,3.0889,3.0889,3.0889,3.0889,3.0889,3.0449,3.0107,2.9922,2.9268,2.8828,2.8643,2.8408,2.8291,2.8291,2.8291,2.8291,2.8291,2.8291,2.8291,2.8344,2.9102,2.9408,2.9513,3.0876,3.1887,3.2705,3.3932,3.4884,3.5619,3.6216,3.6006,3.542,3.4944,3.4568,3.4261,3.3709,3.3533,3.3483,3.3212,3.3124,3.3124,3.3124,3.2893,3.2692,3.2692,3.1863,3.1047,3.1047,3.0394,3.0075,3.1007,3.1217,3.1499,3.2429,3.2593,3.2429,3.1888,3.1815,3.1499,3.0558,3.0228,2.9359,2.7441,2.6266,2.5423,2.5038,2.4502,2.41,2.3914,2.405,2.4156,2.4156,2.4821,2.511,2.485,2.56,2.5612,2.4838,2.4921,2.4456,2.3294,2.2403,2.2215,2.2627,2.2113,2.2151,2.2664,2.2664,2.2962,2.3514,2.3514,2.3514,2.3551,2.4,2.3562,2.259,2.2075,2.2226,2.2813]}]]